[[{"header":{"parameterUnit":"m.s-1","parameterCategory":1,"la1":30.6,"la2":29.2853,"lo1":-89.7004,"lo2":-87.6739,"dy":0.0162,"dx":0.0183,"nx":112,"ny":82,"refTime":"2026-05-23T00:00:00:Z","depth":0,"parameterNumber":2,"parameterNumberName":"U-component_of_WINDS"},"data":[0.0,0.0,0.0,0.0,0.0,0.0,0.0,0.0,0.0,0.0,0.0,0.0,0.0,0.0,0.0,0.0,0.0,0.0,0.0,0.0,0.0,0.0,0.0,0.0,0.0,0.0,0.0,0.0,0.0,0.0,0.0,0.0,0.0,0.0,0.0,0.0,0.0,0.0,0.0,0.0,0.0,0.0,0.0,0.0,0.0,0.0,0.0,0.0,0.0,0.0,0.0,0.0,0.0,0.0,0.0,0.0,0.0,0.0,0.0,0.0,0.0,0.0,0.0,0.0,0.0,0.0,0.0,0.0,0.0,0.0,0.0,0.0,0.0,0.0,0.0,0.0,0.0,0.0,0.0,0.0,0.0,0.0,0.0,0.0,0.0,0.0,0.0,0.0,0.0,0.0,-2.9756,-3.2781,-3.6042,-3.7696,-3.6922,-3.6539,-3.4993,-3.1884,0.0,0.0,0.0,0.0,0.0,0.0,0.0,0.0,0.0,0.0,0.0,0.0,0.0,0.0,0.0,0.0,0.0,0.0,0.0,0.0,0.0,0.0,0.0,0.0,0.0,0.0,0.0,0.0,0.0,0.0,0.0,0.0,0.0,0.0,0.0,0.0,0.0,0.0,0.0,0.0,0.0,0.0,0.0,0.0,0.0,0.0,0.0,0.0,0.0,0.0,0.0,0.0,0.0,0.0,0.0,0.0,0.0,0.0,0.0,0.0,0.0,0.0,0.0,0.0,0.0,0.0,0.0,0.0,0.0,0.0,0.0,0.0,0.0,0.0,0.0,0.0,0.0,0.0,0.0,0.0,0.0,0.0,0.0,0.0,0.0,0.0,0.0,0.0,0.0,0.0,0.0,0.0,0.0,0.0,0.0,0.0,0.0,0.0,0.0,0.0,0.0,0.0,0.0,0.0,-3.0416,-3.5367,-3.7708,-3.8798,-3.8555,-3.7813,-3.6235,-3.3586,0.0,0.0,0.0,0.0,0.0,0.0,0.0,0.0,0.0,0.0,0.0,0.0,0.0,0.0,0.0,0.0,0.0,0.0,0.0,0.0,0.0,0.0,0.0,0.0,0.0,0.0,0.0,0.0,0.0,0.0,0.0,0.0,0.0,0.0,0.0,0.0,0.0,0.0,0.0,0.0,0.0,0.0,0.0,0.0,0.0,0.0,0.0,0.0,0.0,0.0,0.0,0.0,0.0,0.0,0.0,0.0,0.0,0.0,0.0,0.0,0.0,0.0,0.0,0.0,0.0,0.0,0.0,0.0,0.0,0.0,0.0,0.0,0.0,0.0,0.0,0.0,0.0,0.0,0.0,0.0,0.0,0.0,0.0,0.0,0.0,0.0,0.0,0.0,0.0,0.0,0.0,0.0,0.0,0.0,0.0,0.0,0.0,0.0,0.0,0.0,0.0,0.0,0.0,-3.0827,-3.3125,-3.6126,-3.8429,-3.9527,-3.8947,-3.7975,-3.632,-3.3856,-3.2364,0.0,0.0,0.0,0.0,0.0,0.0,0.0,0.0,0.0,0.0,0.0,0.0,0.0,0.0,0.0,0.0,0.0,0.0,0.0,0.0,0.0,0.0,0.0,0.0,0.0,0.0,0.0,0.0,0.0,0.0,0.0,0.0,0.0,0.0,0.0,0.0,0.0,0.0,0.0,0.0,0.0,0.0,0.0,0.0,0.0,0.0,0.0,0.0,0.0,0.0,0.0,0.0,0.0,0.0,0.0,0.0,0.0,0.0,0.0,0.0,0.0,0.0,0.0,0.0,0.0,0.0,0.0,0.0,0.0,0.0,0.0,0.0,0.0,0.0,0.0,0.0,0.0,0.0,0.0,0.0,0.0,0.0,0.0,0.0,0.0,0.0,0.0,0.0,0.0,0.0,0.0,0.0,0.0,0.0,0.0,0.0,0.0,0.0,0.0,0.0,0.0,0.0,-3.3469,-3.5609,-3.6604,-3.8851,-3.9996,-3.9252,-3.801,-3.6391,-3.432,-3.291,0.0,0.0,0.0,0.0,0.0,0.0,0.0,0.0,0.0,0.0,0.0,0.0,0.0,0.0,0.0,0.0,0.0,0.0,0.0,0.0,0.0,0.0,0.0,0.0,0.0,0.0,0.0,0.0,0.0,0.0,0.0,0.0,0.0,0.0,0.0,0.0,0.0,0.0,0.0,0.0,0.0,0.0,0.0,0.0,0.0,0.0,0.0,0.0,0.0,0.0,0.0,0.0,0.0,0.0,0.0,0.0,0.0,0.0,0.0,0.0,0.0,0.0,0.0,0.0,0.0,0.0,0.0,0.0,0.0,0.0,0.0,0.0,0.0,0.0,0.0,0.0,0.0,0.0,0.0,0.0,0.0,0.0,0.0,0.0,0.0,0.0,0.0,0.0,0.0,0.0,0.0,0.0,0.0,0.0,0.0,0.0,0.0,0.0,0.0,0.0,0.0,0.0,-3.4008,-3.6558,-3.7507,-3.9213,-4.0225,-4.0031,-3.846,-3.7032,-3.5985,-3.3638,0.0,0.0,0.0,0.0,0.0,0.0,0.0,0.0,0.0,0.0,0.0,0.0,0.0,0.0,0.0,0.0,0.0,0.0,0.0,0.0,0.0,0.0,0.0,0.0,0.0,0.0,0.0,0.0,0.0,0.0,0.0,0.0,0.0,0.0,0.0,0.0,0.0,0.0,0.0,0.0,0.0,0.0,0.0,0.0,0.0,0.0,0.0,0.0,0.0,0.0,0.0,0.0,0.0,0.0,0.0,0.0,0.0,0.0,0.0,0.0,0.0,0.0,0.0,0.0,0.0,0.0,0.0,0.0,0.0,0.0,0.0,0.0,0.0,0.0,0.0,0.0,0.0,0.0,0.0,0.0,0.0,0.0,0.0,0.0,0.0,0.0,0.0,0.0,0.0,0.0,0.0,0.0,0.0,0.0,0.0,0.0,0.0,0.0,0.0,0.0,0.0,0.0,-3.4775,-3.6909,0.0,-3.9547,-4.0196,-4.0117,-3.8912,-3.7568,-3.6142,0.0,0.0,0.0,0.0,0.0,0.0,0.0,0.0,0.0,0.0,0.0,0.0,0.0,0.0,0.0,0.0,0.0,0.0,0.0,0.0,0.0,0.0,0.0,0.0,0.0,0.0,0.0,0.0,0.0,0.0,0.0,0.0,0.0,0.0,0.0,0.0,0.0,0.0,0.0,0.0,0.0,0.0,0.0,0.0,0.0,0.0,0.0,0.0,0.0,0.0,0.0,0.0,0.0,0.0,0.0,0.0,0.0,0.0,0.0,0.0,0.0,0.0,0.0,0.0,0.0,0.0,0.0,0.0,0.0,0.0,0.0,0.0,0.0,0.0,0.0,0.0,0.0,0.0,0.0,0.0,0.0,0.0,0.0,0.0,0.0,0.0,0.0,0.0,0.0,0.0,0.0,0.0,0.0,0.0,0.0,0.0,0.0,0.0,0.0,0.0,0.0,0.0,-3.3572,-3.5818,-3.7833,0.0,-4.0263,-4.0557,-4.0516,-3.9336,-3.7969,-3.6507,0.0,0.0,0.0,0.0,0.0,0.0,0.0,0.0,0.0,0.0,0.0,0.0,0.0,0.0,0.0,0.0,0.0,0.0,0.0,0.0,0.0,0.0,0.0,0.0,0.0,0.0,0.0,0.0,0.0,0.0,0.0,0.0,0.0,0.0,0.0,0.0,0.0,0.0,0.0,0.0,0.0,0.0,0.0,0.0,0.0,0.0,0.0,0.0,0.0,0.0,0.0,0.0,0.0,0.0,0.0,0.0,0.0,0.0,0.0,0.0,0.0,0.0,0.0,0.0,0.0,0.0,0.0,0.0,0.0,0.0,0.0,0.0,0.0,0.0,0.0,0.0,0.0,0.0,0.0,0.0,0.0,0.0,0.0,0.0,0.0,0.0,0.0,0.0,0.0,0.0,0.0,0.0,0.0,0.0,0.0,0.0,0.0,0.0,0.0,0.0,0.0,0.0,-3.4471,-3.7136,-3.9489,-4.1313,-4.1446,-4.1415,-4.1402,-3.9697,-3.8253,0.0,0.0,0.0,0.0,0.0,0.0,0.0,0.0,0.0,0.0,0.0,0.0,0.0,0.0,0.0,0.0,0.0,0.0,0.0,0.0,0.0,0.0,0.0,0.0,0.0,0.0,0.0,0.0,0.0,0.0,0.0,0.0,0.0,0.0,0.0,0.0,0.0,0.0,0.0,0.0,0.0,0.0,0.0,0.0,0.0,0.0,0.0,0.0,0.0,0.0,0.0,0.0,0.0,0.0,0.0,0.0,0.0,0.0,0.0,0.0,0.0,0.0,0.0,0.0,0.0,0.0,0.0,0.0,0.0,0.0,0.0,0.0,0.0,0.0,0.0,0.0,0.0,0.0,0.0,0.0,0.0,0.0,0.0,0.0,0.0,0.0,0.0,0.0,0.0,0.0,0.0,0.0,0.0,0.0,0.0,0.0,0.0,0.0,0.0,0.0,0.0,0.0,0.0,-3.4488,-3.7108,-3.949,-4.1313,-4.195,-4.2011,-4.1377,-4.0681,-3.9422,-3.7367,0.0,0.0,0.0,0.0,0.0,0.0,0.0,0.0,0.0,0.0,0.0,0.0,0.0,0.0,0.0,0.0,0.0,0.0,0.0,0.0,0.0,0.0,0.0,0.0,0.0,0.0,0.0,0.0,0.0,0.0,0.0,0.0,0.0,0.0,0.0,0.0,0.0,0.0,0.0,0.0,0.0,0.0,0.0,0.0,0.0,0.0,0.0,0.0,0.0,0.0,0.0,0.0,0.0,0.0,0.0,0.0,0.0,0.0,0.0,0.0,0.0,0.0,0.0,0.0,0.0,0.0,0.0,0.0,0.0,0.0,0.0,0.0,0.0,0.0,0.0,0.0,0.0,0.0,0.0,0.0,0.0,0.0,0.0,0.0,0.0,0.0,0.0,0.0,0.0,0.0,0.0,0.0,0.0,0.0,0.0,0.0,0.0,0.0,0.0,0.0,0.0,0.0,-3.5943,-3.8302,-4.0449,-4.2267,-4.2832,-4.287,-4.2343,-4.1521,-4.0233,-3.8346,0.0,0.0,0.0,0.0,0.0,0.0,0.0,0.0,0.0,0.0,0.0,0.0,0.0,0.0,0.0,0.0,0.0,0.0,0.0,0.0,0.0,0.0,0.0,0.0,0.0,0.0,0.0,0.0,0.0,0.0,0.0,0.0,0.0,0.0,0.0,0.0,0.0,0.0,0.0,0.0,0.0,0.0,0.0,0.0,0.0,0.0,0.0,0.0,0.0,0.0,0.0,0.0,0.0,0.0,0.0,0.0,0.0,0.0,0.0,0.0,0.0,0.0,0.0,0.0,0.0,0.0,0.0,0.0,0.0,0.0,0.0,0.0,0.0,0.0,0.0,0.0,0.0,0.0,0.0,0.0,0.0,0.0,0.0,0.0,0.0,0.0,0.0,0.0,0.0,0.0,0.0,0.0,0.0,0.0,0.0,0.0,0.0,0.0,0.0,0.0,0.0,0.0,-3.815,-4.0127,-4.1884,-4.3711,-4.39,-4.3889,-4.3783,-4.22,-4.0802,-3.9844,0.0,0.0,0.0,0.0,0.0,0.0,0.0,0.0,0.0,0.0,0.0,0.0,0.0,0.0,0.0,0.0,0.0,0.0,0.0,0.0,0.0,0.0,0.0,0.0,0.0,0.0,0.0,0.0,0.0,0.0,0.0,0.0,0.0,0.0,0.0,0.0,0.0,0.0,0.0,0.0,0.0,0.0,0.0,0.0,0.0,0.0,0.0,0.0,0.0,0.0,0.0,0.0,0.0,0.0,0.0,0.0,0.0,0.0,0.0,0.0,-2.8508,-2.7081,0.0,0.0,0.0,0.0,0.0,0.0,0.0,0.0,0.0,0.0,0.0,0.0,0.0,0.0,0.0,0.0,0.0,0.0,0.0,0.0,0.0,0.0,0.0,0.0,0.0,0.0,0.0,0.0,0.0,0.0,0.0,0.0,0.0,0.0,0.0,0.0,0.0,0.0,0.0,0.0,-3.8161,-4.0075,-4.1873,-4.3618,-4.4372,-4.4443,-4.3703,-4.2664,-4.1352,-3.9732,-3.7873,0.0,0.0,0.0,0.0,0.0,0.0,0.0,0.0,0.0,0.0,0.0,0.0,0.0,0.0,0.0,0.0,0.0,0.0,0.0,0.0,0.0,0.0,0.0,0.0,0.0,0.0,0.0,0.0,0.0,0.0,0.0,0.0,0.0,0.0,0.0,0.0,0.0,0.0,0.0,0.0,0.0,0.0,0.0,0.0,0.0,0.0,0.0,0.0,0.0,0.0,0.0,0.0,0.0,0.0,0.0,0.0,0.0,0.0,0.0,-3.2015,-3.0704,0.0,0.0,0.0,0.0,0.0,0.0,0.0,0.0,0.0,0.0,0.0,0.0,0.0,0.0,0.0,0.0,0.0,0.0,0.0,0.0,0.0,0.0,0.0,0.0,0.0,0.0,0.0,0.0,0.0,0.0,0.0,0.0,0.0,0.0,0.0,0.0,0.0,0.0,0.0,0.0,-3.9354,-4.0939,-4.2439,-4.4201,-4.4713,-4.4737,-4.4222,-4.3415,-4.2303,-4.0841,-3.9189,0.0,0.0,0.0,0.0,0.0,0.0,0.0,0.0,0.0,0.0,0.0,0.0,0.0,0.0,0.0,0.0,0.0,0.0,0.0,0.0,0.0,0.0,0.0,0.0,0.0,0.0,0.0,0.0,0.0,0.0,0.0,0.0,0.0,0.0,0.0,0.0,0.0,0.0,0.0,0.0,0.0,0.0,0.0,0.0,0.0,0.0,0.0,0.0,0.0,0.0,0.0,0.0,0.0,-3.3777,-3.4093,-3.4695,-3.5601,-3.6472,-3.7182,-3.5709,-3.4696,-3.4008,-3.3299,0.0,0.0,0.0,0.0,0.0,0.0,0.0,0.0,0.0,0.0,0.0,0.0,0.0,0.0,0.0,0.0,0.0,0.0,0.0,0.0,0.0,0.0,-3.3585,-3.3833,-3.4734,-3.4808,-3.2151,0.0,0.0,0.0,0.0,0.0,0.0,0.0,0.0,0.0,0.0,0.0,-4.1078,-4.2169,-4.322,-4.4815,-4.4919,-4.4865,-4.4802,-4.3901,-4.2957,-4.2036,-4.0277,-3.8895,0.0,0.0,0.0,0.0,0.0,0.0,0.0,0.0,0.0,0.0,0.0,0.0,0.0,0.0,0.0,0.0,0.0,0.0,0.0,0.0,0.0,0.0,0.0,0.0,0.0,0.0,0.0,0.0,0.0,0.0,0.0,0.0,-2.4947,-2.5854,0.0,0.0,0.0,0.0,0.0,0.0,0.0,0.0,0.0,0.0,0.0,0.0,0.0,-3.2795,-3.4578,-3.385,-3.4684,-3.7077,-3.7238,-3.8183,-3.9777,-4.0759,-4.1314,-4.1491,-4.1374,0.0,-3.5951,-3.5818,0.0,0.0,0.0,0.0,0.0,0.0,0.0,0.0,0.0,0.0,0.0,0.0,0.0,0.0,0.0,0.0,0.0,0.0,0.0,0.0,0.0,0.0,-3.5496,-3.6377,-3.6552,-3.6549,-3.6616,-3.4766,-3.3053,-3.2922,-3.3291,-3.3841,0.0,0.0,0.0,0.0,0.0,0.0,-4.285,-4.3383,-4.3872,-4.4812,-4.4846,-4.4802,-4.4725,-4.3272,-4.2241,-4.1919,-3.9676,-3.8253,-3.8,-3.7627,0.0,0.0,0.0,0.0,0.0,0.0,0.0,0.0,0.0,0.0,0.0,0.0,0.0,0.0,0.0,0.0,0.0,0.0,0.0,0.0,0.0,0.0,0.0,0.0,0.0,0.0,0.0,0.0,0.0,-2.5668,-2.7414,-2.8322,-2.7975,-2.7285,0.0,0.0,0.0,0.0,0.0,0.0,0.0,0.0,0.0,-3.34,-3.3437,-3.446,-3.6537,-3.6228,-3.6915,-3.854,-3.9168,-3.995,-4.0892,-4.1862,-4.2347,-4.2416,-4.2462,-4.1478,-3.9711,-3.8762,-3.7843,-3.6898,0.0,0.0,0.0,0.0,-3.406,-3.4226,-3.4284,-3.4765,-3.5161,-3.388,0.0,0.0,0.0,0.0,0.0,0.0,0.0,-3.4092,-3.585,-3.7038,-3.8141,-3.9564,-3.9738,-3.9593,-3.9671,-3.8643,-3.7356,-3.6232,-3.5903,-3.5946,-3.6436,-3.7188,0.0,0.0,0.0,-4.0941,-4.261,-4.335,-4.4004,-4.4819,-4.4833,-4.4757,-4.4712,-4.3994,-4.3299,-4.2674,-4.1143,-4.0023,-3.9429,-3.8234,-3.744,0.0,0.0,0.0,0.0,0.0,0.0,0.0,0.0,0.0,0.0,0.0,0.0,0.0,0.0,0.0,0.0,0.0,0.0,0.0,0.0,0.0,0.0,0.0,0.0,0.0,0.0,0.0,0.0,-2.8252,-2.9717,-3.0628,-3.0633,-3.0196,0.0,0.0,0.0,0.0,0.0,0.0,-3.271,-3.3565,-3.4781,-3.6394,-3.595,-3.667,-3.8644,-3.8497,-3.8971,-4.0105,-4.0639,-4.1244,-4.1902,-4.2654,-4.3033,-4.3084,-4.3119,-4.3119,-4.2974,-4.1304,-4.0419,-3.9976,-3.8609,-3.7447,-3.6578,-3.7076,-3.734,-3.7428,-3.747,-3.7964,-3.8357,-3.7131,-3.6526,-3.6138,-3.5247,0.0,0.0,0.0,0.0,-3.7039,-3.8609,-3.9554,-4.042,-4.1756,-4.1986,-4.1875,-4.178,-4.1434,-4.0634,-3.8919,-3.8378,-3.8273,-3.8483,-3.9347,0.0,0.0,0.0,-4.1851,-4.2793,-4.3736,-4.4536,-4.5111,-4.5312,-4.5285,-4.5006,-4.4718,-4.4185,-4.3259,-4.2192,-4.1258,-4.0523,-3.8789,-3.8029,-3.846,0.0,0.0,0.0,0.0,0.0,0.0,0.0,0.0,0.0,0.0,0.0,0.0,0.0,0.0,0.0,0.0,0.0,0.0,0.0,0.0,0.0,0.0,0.0,0.0,0.0,0.0,0.0,0.0,0.0,-3.2373,-3.2409,0.0,0.0,0.0,0.0,-3.1827,-3.3241,-3.4723,-3.6255,-3.7059,-3.8247,-3.9985,-4.0071,-4.0465,-4.1289,-4.0686,-4.1076,-4.252,-4.1996,-4.2618,-4.4238,-4.4468,-4.4618,-4.4695,-4.483,-4.4842,-4.4649,-4.2962,-4.1756,-4.0908,-4.0772,-4.0014,-3.9019,-3.9048,-3.9547,-4.0193,-4.0197,-4.0721,-4.1375,-4.1245,-4.0562,-3.9704,-3.896,-3.878,0.0,0.0,-4.0061,-4.0351,-4.1268,-4.1614,-4.1749,-4.1959,-4.209,-4.2335,-4.288,-4.2352,-4.1404,-4.0147,-4.0433,-4.0859,-4.0761,0.0,-4.2247,-4.3108,-4.3359,-4.3731,-4.4479,-4.54,-4.5974,-4.5946,-4.6581,-4.6657,-4.581,-4.4988,-4.4116,-4.3259,-4.1681,-4.0678,-4.0505,-3.9551,-3.8553,-3.7573,-3.8208,0.0,0.0,0.0,0.0,0.0,0.0,0.0,0.0,0.0,0.0,0.0,0.0,0.0,0.0,0.0,0.0,0.0,0.0,0.0,0.0,0.0,0.0,0.0,0.0,0.0,0.0,0.0,0.0,-3.4092,-3.4602,0.0,-3.4425,-3.4192,-3.4403,-3.5199,-3.6609,-3.7848,-3.8873,-3.9164,-3.9848,-4.1026,-4.0632,-4.0744,-4.1489,-4.1817,-4.2266,-4.2824,-4.3258,-4.3872,-4.4605,-4.4706,-4.4789,-4.4815,-4.4914,-4.4895,-4.4795,-4.4178,-4.3422,-4.2542,-4.1864,-4.1274,-4.0798,-4.0717,-4.1178,-4.1812,-4.1293,-4.1627,-4.2217,-4.1686,-4.1267,-4.0955,-4.0689,-4.0659,-4.0777,-4.1059,-4.1192,-4.145,-4.2304,-4.2618,-4.2852,-4.3473,-4.3681,-4.3764,-4.3863,-4.3615,-4.3233,-4.2575,-4.2379,-4.2165,-4.1686,-4.2805,-4.3666,-4.335,-4.3881,-4.4436,-4.4783,-4.5073,-4.5464,-4.6018,-4.6259,-4.6242,-4.5829,-4.5477,-4.4928,-4.4148,-4.2492,-4.1533,-4.1475,-4.0064,-3.9519,-3.9996,-3.9608,-3.9612,0.0,0.0,0.0,0.0,0.0,0.0,0.0,0.0,0.0,0.0,0.0,0.0,0.0,0.0,0.0,0.0,0.0,0.0,0.0,0.0,0.0,0.0,0.0,0.0,0.0,0.0,-3.4879,-3.5798,-3.6834,-3.7344,-3.7009,-3.7101,-3.7499,-3.8264,-3.9122,-4.0081,-4.1151,-4.1089,-4.1449,-4.2381,-4.1939,-4.1902,-4.235,-4.2965,-4.3267,-4.3278,-4.399,-4.4547,-4.4937,-4.5041,-4.5246,-4.5561,-4.5634,-4.5659,-4.5615,-4.5337,-4.5015,-4.4617,-4.3316,-4.2876,-4.2932,-4.2489,-4.2885,-4.3509,-4.2693,-4.2733,-4.3052,-4.2563,-4.2411,-4.2411,-4.2441,-4.2482,-4.2596,-4.2847,-4.2764,-4.2804,-4.3602,-4.3712,-4.3741,-4.4299,-4.451,-4.4546,-4.4426,-4.4351,-4.4277,-4.4218,-4.3686,-4.3237,-4.3164,-4.4173,-4.4772,-4.424,-4.4702,-4.5059,-4.4859,-4.5016,-4.5374,-4.5999,-4.6253,-4.6237,-4.5908,-4.5538,-4.5115,-4.463,-4.2964,-4.2117,-4.2385,-4.0999,-4.063,-4.146,-4.0617,-4.0665,-4.1678,0.0,0.0,0.0,0.0,0.0,0.0,0.0,0.0,0.0,0.0,0.0,0.0,0.0,0.0,0.0,0.0,0.0,0.0,0.0,0.0,0.0,0.0,0.0,-3.2374,-3.4623,-3.6596,-3.7461,-3.9028,-3.9718,-3.8896,-3.9381,-4.0099,-4.0923,-4.0651,-4.1297,-4.317,-4.2917,-4.3197,-4.4202,-4.4202,-4.4138,-4.4042,-4.4157,-4.4175,-4.4079,-4.4209,-4.4683,-4.5447,-4.5652,-4.6204,-4.7012,-4.7137,-4.7229,-4.7227,-4.638,-4.6485,-4.7018,-4.5158,-4.4882,-4.5413,-4.4423,-4.4646,-4.532,-4.4538,-4.4194,-4.4095,-4.4224,-4.4274,-4.4289,-4.4345,-4.4433,-4.4626,-4.5342,-4.5017,-4.4616,-4.5273,-4.4957,-4.4462,-4.4389,-4.4533,-4.4667,-4.4667,-4.4515,-4.452,-4.4962,-4.4399,-4.4183,-4.5199,-4.5443,-4.5619,-4.5903,-4.5957,0.0,-4.4806,-4.5337,-4.5832,-4.5995,-4.6643,-4.6779,-4.6051,-4.5173,-4.4624,-4.4605,-4.2996,-4.2391,-4.3179,-4.236,-4.1801,-4.1627,-4.119,-4.0808,-4.0546,0.0,0.0,0.0,0.0,0.0,0.0,0.0,0.0,0.0,0.0,0.0,0.0,0.0,0.0,0.0,0.0,0.0,0.0,0.0,0.0,0.0,-3.2522,-3.413,-3.4179,-3.6395,-3.8321,-3.9145,-4.0154,-4.0912,-4.122,-4.1324,-4.1674,-4.2433,-4.2286,-4.2899,-4.4619,-4.3995,-4.4,-4.4965,-4.4342,-4.4239,-4.4781,-4.4786,-4.5134,-4.5807,-4.5858,-4.6047,-4.6404,-4.648,-4.669,-4.6993,-4.7094,-4.7137,-4.7132,-4.6892,-4.6902,-4.6938,-4.5752,-4.5667,-4.6171,-4.5749,-4.5754,-4.5971,-4.59,-4.5841,-4.5839,-4.5982,-4.601,-4.6025,-4.6139,-4.6203,-4.6255,-4.645,-4.6304,-4.6109,-4.6305,-4.6209,-4.6071,-4.6041,-4.6113,-4.625,-4.6384,-4.637,-4.6302,-4.6246,-4.5811,-4.5301,-4.4831,-4.5413,-4.5654,-4.4819,-4.4898,0.0,-4.4795,-4.4952,-4.533,-4.5999,-4.625,-4.628,-4.6027,-4.5755,-4.5372,-4.4788,-4.3666,-4.3143,-4.3408,-4.2436,-4.2006,-4.2242,-4.202,-4.1787,0.0,0.0,0.0,0.0,0.0,0.0,0.0,0.0,0.0,0.0,0.0,0.0,0.0,0.0,0.0,0.0,0.0,0.0,0.0,0.0,0.0,0.0,-3.434,-3.5969,-3.6321,-3.7991,-3.9583,-4.073,-4.1602,-4.224,-4.2586,-4.287,-4.3202,-4.3572,-4.339,-4.3875,-4.5323,-4.4724,-4.4654,-4.5316,-4.5106,-4.5022,-4.5101,-4.5455,-4.5895,-4.6426,-4.6492,-4.6773,-4.7214,-4.7311,-4.7578,-4.798,-4.8055,-4.8085,-4.8047,-4.7665,-4.7695,-4.7788,0.0,0.0,0.0,0.0,-4.6587,-4.6342,-4.6461,-4.6494,-4.6527,-4.665,-4.6713,-4.6729,-4.6889,-4.6937,-4.7012,-4.735,-4.7166,-4.6896,-4.7205,-4.7052,-4.6824,-4.6794,-4.684,-4.6915,-4.7037,-4.6959,-4.6899,-4.6911,-4.647,0.0,-4.5077,-4.5739,-4.6044,-4.5015,-4.5237,-4.5331,-4.4865,-4.4789,-4.4978,-4.5534,-4.5565,-4.5552,-4.5539,-4.5513,0.0,0.0,0.0,-4.4484,-4.4503,-4.3473,0.0,0.0,0.0,0.0,0.0,0.0,0.0,0.0,-3.6361,-3.6144,0.0,0.0,0.0,0.0,0.0,0.0,0.0,0.0,0.0,0.0,0.0,0.0,0.0,0.0,0.0,0.0,-3.6338,-3.7706,-3.8552,-3.9474,-4.0578,-4.2015,-4.2938,-4.3427,-4.3332,-4.4018,-4.4416,-4.43,-4.4132,-4.4493,-4.5528,-4.5298,0.0,0.0,0.0,-4.6129,-4.5362,-4.6186,-4.6595,-4.6583,-4.6768,-4.7257,-4.7963,-4.8143,-4.8615,-4.9308,-4.9424,-4.9437,-4.9327,-4.8556,-4.8592,-4.898,-4.7427,-4.7233,-4.7797,-4.773,-4.7319,-4.6756,-4.6773,0.0,0.0,-4.693,-4.6993,-4.7025,-4.723,-4.7293,-4.7443,-4.8138,-4.7838,-4.7432,-4.805,-4.7743,-4.723,-4.7173,-4.7219,-4.726,-4.7278,-4.704,-4.6954,-4.726,-4.6671,-4.5992,-4.5567,-4.6135,-4.6396,-4.5711,-4.6046,-4.5989,-4.4934,-4.4732,-4.4751,-4.4889,0.0,0.0,-4.5034,-4.4978,-4.5332,-4.6189,-4.6099,-4.5962,-4.5899,-4.4786,-4.4102,-4.3929,-4.364,-4.2933,-4.1887,-4.098,-4.004,-3.903,-3.7327,-3.663,0.0,0.0,0.0,0.0,0.0,0.0,0.0,0.0,0.0,0.0,0.0,0.0,0.0,0.0,0.0,-3.6321,-3.7471,-3.8625,-4.0134,-4.1048,-4.1694,-4.2,-4.2752,-4.3501,-4.4107,-4.4221,-4.4244,-4.4214,-4.4621,-4.5228,-4.6094,-4.6081,-4.6397,-4.7153,-4.6635,-4.6547,-4.696,-4.7144,-4.7586,-4.8305,-4.841,0.0,-4.8938,-4.8971,-4.9094,-4.9308,-4.9324,-4.934,-4.9305,-4.9075,-4.888,-4.8695,-4.8326,-4.829,-4.842,-4.8402,-4.8381,-4.8359,-4.8427,-4.8514,-4.86,-4.8679,-4.8741,-4.8821,-4.8971,-4.902,0.0,-4.9208,-4.9133,-4.9008,-4.8998,-4.892,-4.884,-4.876,-4.8808,-4.8887,-4.8986,-4.8693,-4.832,-4.8182,-4.7181,-4.6142,-4.5523,-4.5513,-4.5334,-4.4628,-4.4777,-4.4931,-4.4827,-4.4732,-4.4738,-4.4808,-4.4815,-4.5079,-4.5824,-4.59,-4.6285,-4.7099,-4.6433,-4.5968,-4.5899,-4.4304,-4.3627,-4.4045,-4.318,-4.2811,-4.2995,-4.196,-4.0998,-4.0058,-3.8205,-3.7417,0.0,0.0,0.0,0.0,0.0,0.0,0.0,0.0,0.0,0.0,0.0,-3.2933,-3.3837,0.0,-3.6108,-3.7481,-3.8389,-3.9327,-4.0538,-4.1413,-4.2115,-4.2546,-4.3287,-4.3905,-4.4262,-4.4244,-4.4351,-4.4733,-4.4978,-4.5655,-4.6928,-4.6987,-4.7155,-4.7633,-4.7615,-4.758,-4.7494,-4.7936,-4.8396,-4.8839,-4.8978,-4.9129,-4.9244,-4.9311,-4.9377,-4.9409,-4.9409,-4.9343,-4.9228,-4.8993,-4.8785,-4.8587,-4.8476,-4.8495,-4.855,-4.855,-4.8661,-4.8804,-4.884,-4.8963,-4.9118,-4.9181,-4.9276,-4.9371,-4.9474,-4.9521,-4.9551,-4.9505,-4.9509,-4.9459,-4.9276,-4.9276,-4.9273,-4.926,-4.8977,-4.8724,-4.8836,-4.8189,-4.7505,-4.7169,-4.6407,-4.556,-4.4662,-4.4564,-4.4546,-4.4244,-4.4856,-4.5383,-4.5443,-4.5432,-4.54,-4.5457,-4.5086,-4.5205,-4.6076,-4.655,-4.715,-4.7984,-4.6768,-4.5981,-4.5954,-4.4571,-4.388,-4.4091,-4.3531,-4.3104,-4.2804,-4.2229,-4.1269,-3.9912,-3.8869,-3.8151,0.0,0.0,0.0,0.0,0.0,0.0,0.0,0.0,-3.3631,-3.3811,-3.4475,-3.5289,-3.6171,-3.6774,-3.7442,-3.8352,-3.9177,-3.9911,-4.0507,-4.1469,-4.2356,-4.3067,-4.3814,-4.4274,-4.4199,-4.4333,-4.4659,-4.5265,-4.5484,-4.6209,-4.7612,-4.7783,-4.7858,-4.7909,-4.8557,-4.856,-4.7824,-4.8558,-4.8926,-4.8907,-4.9129,-4.926,-4.934,-4.9459,-4.9509,-4.949,-4.9377,-4.9279,-4.9129,-4.8714,-4.855,-4.8569,-4.8382,-4.8363,-4.8457,-4.8494,-4.8643,-4.8787,-4.8787,-4.8946,-4.9135,-4.9181,-4.9308,-4.9449,-4.949,-4.9551,-4.9593,-4.9521,-4.9509,-4.9474,-4.9308,-4.9292,-4.927,-4.9105,-4.8562,-4.8087,-4.7992,-4.7111,-4.6232,-4.59,-4.5383,-4.4773,-4.396,-4.3872,-4.3942,-4.4011,-4.5047,-4.585,-4.6005,-4.6121,-4.6216,-4.6327,-4.5754,-4.5723,-4.6575,-4.7403,-4.809,-4.8621,-4.7106,-4.6132,-4.6,-4.4993,-4.4321,-4.414,-4.4048,-4.3561,-4.2607,-4.2508,-4.1621,-4.0045,-3.982,-3.9013,-3.0802,-3.0899,-3.1048,-3.1337,-3.1619,-3.204,0.0,0.0,-3.4701,-3.5323,-3.6216,-3.7084,-3.7729,-3.7916,-3.8252,-3.9119,-3.9893,-4.0444,-4.0587,-4.1875,-4.2805,-4.2917,-4.3677,-4.4199,-4.4199,-4.4792,-4.521,-4.5287,-4.6541,-4.7415,-4.76,-4.8286,-4.8675,-4.8675,-4.8819,-4.8819,-4.8675,-4.8943,-4.9047,-4.8974,-4.9193,-4.9358,-4.9474,-4.949,-4.9509,-4.9474,-4.901,-4.8889,-4.8974,-4.8476,-4.8343,-4.8494,-4.8363,-4.8306,-4.8343,-4.8457,-4.8643,-4.8787,-4.8787,-4.8979,-4.9197,-4.9214,-4.9374,-4.9578,-4.9521,-4.9551,-4.9593,-4.9521,-4.9509,-4.9459,-4.9262,-4.926,-4.9105,-4.8333,-4.8122,-4.7919,-4.7264,-4.6559,-4.6026,-4.5991,-4.4907,-4.4119,-4.4602,-4.4101,-4.3592,-4.343,-4.4195,-4.5003,-4.5664,-4.6151,-4.6649,-4.71,-4.7097,-4.7381,-4.827,-4.9083,-4.9225,-4.8475,-4.7518,-4.6666,-4.5937,-4.5007,-4.443,-4.4285,-4.414,-4.3965,-4.3719,-4.347,-4.2892,-4.1976,-4.172,-4.0274,-3.1926,-3.2082,-3.2459,0.0,-3.4062,-3.4379,-3.5205,-3.608,-3.6808,-3.705,-3.7835,-3.8559,-3.8807,-3.8792,-3.904,0.0,-4.0313,-4.0831,-4.1791,-4.2489,-4.3074,-4.3494,-4.3865,-4.429,-4.4792,-4.5133,-4.5709,-4.6671,-4.733,-4.7906,-4.849,-4.8812,-4.8963,-4.8963,-4.9047,-4.9047,-4.8963,-4.91,-4.9164,-4.9176,-4.9257,-4.9324,-4.9374,-4.9374,-4.9358,-4.9313,-4.9064,-4.8979,-4.903,-4.8624,-4.8476,-4.855,-4.8363,-4.8306,-4.8306,-4.8363,-4.8513,-4.8678,-4.8678,-4.8926,-4.9214,-4.9214,-4.939,-4.9544,-4.9276,-4.939,-4.9563,-4.9276,-4.9345,-4.9459,-4.9246,-4.8856,-4.8442,-4.8077,-4.7271,-4.6479,-4.609,-4.5259,-4.4686,-4.5004,-4.477,-4.4563,-4.4782,-4.4922,-4.4809,-4.4265,-4.5009,-4.5957,-4.6807,-4.688,-4.6884,-4.6932,-4.7385,-4.7923,-4.8613,-4.8926,-4.8928,-4.8541,-4.7141,-4.6186,-4.5848,-4.4988,-4.4444,-4.43,-4.4237,-4.4101,-4.3835,-4.3736,-4.3195,-4.2286,-4.2011,-4.0727,-3.3008,-3.3309,0.0,-3.551,-3.5969,-3.6223,-3.7069,-3.7723,-3.8228,-3.8376,-3.893,-3.9373,-3.9333,-3.9242,-3.949,-4.0388,-4.0682,-4.1291,-4.2687,-4.3059,-4.3401,-4.3931,-4.4209,-4.4692,-4.5547,-4.5621,-4.6136,-4.7339,-4.7809,-4.8364,-4.9094,-4.91,-4.9101,-4.9101,-4.9183,-4.9181,-4.9135,-4.9197,-4.926,-4.9308,-4.9308,-4.9308,-4.9308,-4.9308,-4.9276,-4.9211,-4.9081,-4.9066,-4.91,-4.8678,-4.855,-4.8587,-4.842,-4.8363,-4.8363,-4.8382,-4.8458,-4.8605,-4.8605,-4.8873,-4.9214,-4.9214,-4.9308,-4.9368,-4.9042,-4.9174,-4.9352,-4.9008,-4.9179,-4.9393,-4.9214,-4.8749,-4.8205,-4.7759,-4.6729,-4.5686,-4.5093,-4.4265,-4.3712,-4.4053,-4.4258,-4.4428,-4.4543,-4.5021,-4.5341,-4.5215,-4.5819,-4.6579,-4.7398,-4.7478,-4.7457,-4.738,-4.7894,-4.8442,-4.8918,-4.8909,-4.8678,-4.8197,-4.6873,-4.5933,-4.5462,-4.4815,-4.4416,-4.43,-4.427,-4.4138,-4.3837,-4.3804,-4.3391,-4.2635,-4.241,-4.1415,-3.4351,0.0,-3.5388,-3.6483,-3.677,-3.7013,-3.7954,-3.8122,-3.832,-3.9005,-3.9283,-3.9346,-3.9161,-3.9156,-3.9462,-4.0281,-4.1066,-4.185,-4.2686,-4.3466,-4.3968,-4.4005,-4.4748,-4.5565,-4.6382,-4.6457,-4.6475,-4.6531,-4.798,-4.8872,-4.8909,-4.9032,-4.9101,-4.9101,-4.9183,-4.9214,-4.9197,-4.926,-4.9308,-4.9308,-4.9308,-4.9308,-4.9308,-4.9308,-4.9308,-4.9273,-4.8954,-4.8956,-4.9146,-4.855,-4.842,-4.8587,-4.8532,-4.8476,-4.8494,-4.8569,-4.8587,-4.8605,-4.8605,-4.8873,-4.9214,-4.9214,-4.9127,-4.899,-4.885,-4.8903,-4.8973,-4.8783,-4.9008,-4.9276,-4.9152,-4.9131,-4.8765,-4.7124,-4.6741,-4.6285,-4.4512,-4.3908,-4.3612,-4.3392,-4.3086,-4.309,-4.3792,-4.3892,-4.4389,-4.5935,-4.6065,-4.6197,-4.6678,-4.7739,-4.8601,-4.8996,-4.9048,-4.9198,-4.9537,-4.957,-4.8844,-4.7158,-4.6993,-4.6242,-4.4594,-4.4444,-4.4368,-4.43,-4.4244,-4.4089,-4.3915,-4.3818,-4.3667,-4.346,-4.3392,-4.2632,-3.5389,0.0,-3.6315,-3.7339,-3.7608,-3.7826,-3.8667,-3.884,-3.888,-3.9036,-3.9092,-3.911,-3.905,-3.9495,-4.0154,-4.1051,-4.1909,-4.2728,-4.35,-4.4395,-4.4743,-4.4076,-4.5323,-4.6115,-4.581,-4.6694,0.0,-4.8238,-4.8749,-4.934,-5.0064,-5.0104,-5.0349,-5.0873,-5.0448,-5.0199,-5.0199,-4.9706,-4.9406,-4.9368,-4.9144,-4.9079,-4.9168,-4.9341,-4.9177,-4.8713,-4.8898,-4.8862,-4.866,-4.8402,-4.8458,-4.8715,-4.8605,-4.8587,-4.8569,-4.8587,-4.866,-4.8732,-4.8732,-4.8943,-4.9197,-4.915,-4.901,-4.8834,-4.855,-4.8477,-4.8458,-4.8439,-4.8659,-4.894,-4.9066,-4.8739,-4.813,-4.6975,-4.6345,-4.5649,-4.4378,-4.3889,-4.3778,-4.4034,-4.385,-4.4035,-4.5274,-4.5467,-4.5786,-4.678,-4.7124,-4.7168,-4.6931,-4.7534,-4.8158,-4.8639,-4.871,-4.8986,-4.9659,-4.9692,-4.9408,-4.8754,-4.7597,-4.6679,-4.6117,-4.4953,-4.43,-4.4244,-4.4116,-4.3976,-4.3818,-4.3686,-4.3532,-4.3429,-4.3142,-4.2427,-3.6333,-3.6902,-3.7215,-3.8247,-3.846,-3.8564,-3.9085,-3.9156,-3.9106,-3.9007,-3.8756,-3.8617,-3.8913,-3.9164,-3.9837,-4.1323,-4.2047,-4.2914,-4.4281,-4.501,-4.5301,-4.495,-4.618,-4.6842,0.0,0.0,0.0,-4.8663,-4.8949,-4.954,-5.0506,-5.0581,-5.0975,-5.1778,-5.1424,-5.119,-5.1123,-5.0667,-5.0353,-5.0167,-4.9657,-4.9574,-4.9926,-4.9895,-4.9539,-4.8919,-4.9067,-4.8887,-4.8458,-4.8364,-4.8513,-4.875,-4.84,-4.842,-4.8641,-4.8381,-4.8509,-4.884,-4.8804,-4.8776,-4.8737,-4.9006,-4.8652,-4.8144,-4.8215,-4.8076,-4.7961,-4.8132,-4.8383,-4.8659,-4.8962,-4.8518,-4.7778,-4.6919,-4.6154,-4.5357,-4.4352,-4.4014,-4.3925,-4.4068,-4.3962,-4.4084,-4.4939,-4.557,-4.6179,-4.6827,-4.7383,-4.7524,-4.7116,-4.7284,-4.77,-4.8347,-4.8403,-4.8763,-4.9644,-4.938,-4.9024,-4.8698,-4.7249,-4.6312,-4.6012,-4.4875,-4.4244,-4.4199,-4.4039,-4.3897,-4.3736,-4.3583,-4.3428,-4.3287,-4.2993,-4.2457,-3.7288,-3.7836,-3.8113,-3.9171,-3.9307,-3.9197,-3.9197,-3.9087,-3.8993,-3.8956,-3.827,-3.7917,-3.8707,-3.8298,-3.8669,-4.11,-4.1601,-4.2515,-4.4952,-4.534,-4.5656,0.0,0.0,0.0,0.0,0.0,0.0,-4.7984,0.0,-4.9528,-5.0328,-5.0611,-5.1103,-5.1909,-5.2073,-5.2102,-5.1968,-5.2065,-5.1912,-5.1607,-5.0757,-5.0708,-5.138,-5.0868,-5.031,-4.975,-4.94,-4.9001,-4.855,-4.8421,-4.8513,-4.8675,-4.7897,-4.8082,-4.8656,-4.8002,-4.824,-4.8891,-4.8767,-4.8334,-4.7947,-4.8749,-4.805,-4.6997,-4.7784,-4.7684,-4.7413,-4.7854,-4.8173,-4.8477,-4.8803,-4.847,-4.7852,-4.6975,-4.6255,-4.5485,-4.4464,-4.4252,-4.4064,-4.3508,-4.3374,-4.3269,-4.3066,-4.4313,-4.5594,-4.6269,-4.6899,-4.7276,-4.7219,-4.7111,-4.7353,-4.8216,-4.8272,-4.8604,-4.9529,-4.8743,-4.7875,-4.7091,-4.6188,-4.53,-4.4476,-4.433,-4.4221,-4.4184,-4.3995,-4.38,-4.3579,-4.3531,-4.334,-4.3086,-4.2938,-4.271,-3.8995,-3.9098,-3.8943,-3.9891,-3.9626,-3.9129,-3.9129,-3.9064,-3.883,-3.8163,-3.7811,-3.7694,-3.7954,-3.8334,0.0,-4.1249,-4.2136,0.0,-4.5042,-4.59,0.0,-4.6492,0.0,-4.8555,-4.7872,-4.8598,0.0,0.0,-5.0052,-5.0605,-5.1457,-5.2163,-5.2909,-5.3699,-5.3205,-5.2935,-5.2949,-5.228,-5.1828,-5.1589,-5.1155,-5.1065,-5.125,-5.1109,-5.0365,-4.9234,-4.9893,-4.939,-4.8151,-4.8056,-4.8015,-4.7964,-4.7742,-4.7797,-4.802,-4.8427,-4.8723,-4.8816,-4.8187,-4.7902,-4.7837,-4.7994,-4.7129,-4.6119,-4.6731,-4.6719,-4.6672,-4.7467,-4.7997,-4.8402,-4.8732,-4.8846,-4.8693,-4.7871,-4.7154,-4.6371,-4.5248,-4.4859,-4.4447,-4.3518,-4.3634,-4.4065,-4.4604,-4.5526,-4.6447,-4.7241,-4.7324,-4.7276,-4.7219,-4.7392,-4.7722,-4.8236,-4.8656,-4.9071,-4.9559,-4.8788,-4.8145,-4.7837,-4.694,-4.6041,-4.5192,-4.5065,-4.4692,-4.3979,-4.3867,-4.3736,-4.3531,-4.3357,-4.3214,-4.3086,-4.2804,-4.2631,-3.9335,-3.9345,-3.9175,-3.9723,-3.9482,-3.9008,-3.8628,-3.8456,-3.812,-3.719,-3.6662,-3.6476,-3.6795,-3.7353,-3.8442,0.0,0.0,0.0,-4.5024,-4.6004,-4.6652,0.0,-4.8248,0.0,-4.8462,-4.9187,-4.976,0.0,-5.0308,-5.107,-5.2315,-5.289,-5.3581,-5.4371,-5.399,-5.3779,-5.3828,-5.2919,-5.2561,-5.269,-5.2121,-5.2029,-5.2325,-5.1836,-5.1165,-5.0339,-5.0018,-4.946,-4.8744,-4.826,-4.8181,-4.8272,-4.7882,-4.7939,-4.824,-4.8333,-4.8629,-4.8905,-4.8406,-4.7791,-4.721,-4.7111,-4.6174,-4.5184,-4.5987,-4.6178,-4.6302,-4.7179,-4.7801,-4.8307,-4.8732,-4.849,-4.7983,-4.7535,-4.693,-4.6171,-4.5236,-4.5212,-4.5013,-4.3808,-4.3561,-4.3824,-4.4621,-4.5436,-4.623,-4.6964,-4.7212,-4.7276,-4.7219,-4.7323,-4.7617,-4.8254,-4.8531,-4.8954,-4.9544,-4.8773,-4.8224,-4.8152,-4.7243,-4.6477,-4.5998,-4.5536,-4.5032,-4.4434,-4.3952,-4.3599,-4.3409,-4.3251,-4.3123,-4.3012,-4.2727,-4.2629,-3.9054,-3.9095,-3.9124,-3.9286,-3.9189,-3.8855,-3.7998,-3.7585,-3.7095,-3.5992,0.0,-3.483,-3.539,-3.5941,-3.7114,-3.9534,0.0,-4.2356,-4.492,-4.5873,-4.6654,-4.7592,-4.8407,-4.8978,-4.9181,-4.9909,-5.0179,-4.9684,-5.023,-5.1264,-5.2771,-5.3174,-5.3693,-5.4371,-5.4474,-5.4489,-5.4489,-5.3745,-5.3611,-5.409,-5.3236,-5.3163,-5.3717,-5.2623,-5.2021,-5.1803,-5.014,-4.9549,-4.9732,-4.8842,-4.8716,-4.9008,-4.8135,-4.8178,-4.8667,-4.8091,-4.8365,-4.903,-4.8702,-4.7664,-4.6461,-4.6357,-4.5331,-4.4325,-4.5389,-4.585,-4.6155,-4.6927,-4.7664,-4.8307,-4.8767,-4.7951,-4.6996,-4.6884,-4.6428,-4.5787,-4.4958,-4.5259,-4.5364,-4.4206,-4.3427,-4.3192,-4.397,-4.4746,-4.5466,-4.607,-4.6787,-4.724,-4.7128,-4.7156,-4.7442,-4.8197,-4.8347,-4.8711,-4.9514,-4.8728,-4.8194,-4.8164,-4.7352,-4.681,-4.6682,-4.5871,-4.5315,-4.5084,-4.4122,-4.3512,-4.3285,-4.316,-4.3049,-4.29,-4.2709,-4.2688,-3.9648,-3.9394,-3.9116,-3.9837,-3.9478,-3.8746,-3.797,-3.7104,0.0,0.0,-3.3917,-3.3834,-3.3948,-3.5288,-3.7186,-3.9659,-4.0775,-4.2223,-4.4784,-4.5821,-4.6654,0.0,-4.8407,-4.8962,-4.91,-4.9862,0.0,0.0,-5.1124,-5.1703,-5.2067,-5.3433,-5.4259,-5.4409,-5.4407,-5.4407,-5.4407,-5.4276,-5.4154,-5.4091,-5.3777,-5.3587,-5.3502,-5.2267,-5.1408,-5.0863,-5.0951,0.0,-4.9769,-4.9489,-4.927,-4.9025,-4.8068,-4.7811,-4.798,-4.85,-4.8779,-4.8757,-4.745,-4.6665,-4.6274,-4.6409,-4.5172,-4.3776,-4.4582,-4.5334,-4.6065,-4.6761,-4.7795,-4.8697,-4.8804,-4.874,-4.852,-4.7914,-4.7729,-4.7233,-4.5555,-4.4625,-4.4161,-4.4427,-4.3795,-4.3433,-4.3989,-4.4668,-4.5186,-4.5346,-4.6439,-4.7104,-4.6742,-4.7521,-4.812,-4.8196,-4.8885,-4.9402,-4.9505,-4.8717,-4.8149,-4.8028,-4.7868,-4.7396,-4.6562,-4.6277,-4.5788,-4.5021,-4.409,-4.3479,-4.3214,-4.3178,-4.3105,-4.29,-4.2804,-4.2783,-3.9327,-3.9217,-3.9095,-3.9513,-3.9285,-3.8635,-3.7392,0.0,0.0,0.0,-3.299,-3.3008,-3.2935,-3.4765,0.0,-3.8475,-4.0145,-4.1868,0.0,0.0,0.0,0.0,0.0,0.0,0.0,-4.9946,-5.0516,-5.0646,-5.1825,-5.2536,-5.2569,-5.3733,-5.4392,-5.4359,-5.4375,-5.4409,-5.4409,-5.4409,-5.4304,-5.409,-5.3571,-5.3237,-5.2991,-5.1687,-5.1057,-5.1003,-5.0428,-5.0155,-5.0007,-4.9418,-4.9138,-4.9064,-4.8604,-4.8438,-4.8475,-4.8777,-4.8978,-4.8878,-4.7618,-4.676,-4.6197,-4.596,-4.506,-4.4177,-4.4702,-4.5642,-4.6636,-4.7168,-4.8032,-4.8804,-4.8839,-4.8699,-4.831,-4.7519,-4.7117,-4.6903,-4.6866,-4.568,-4.4713,-4.5006,-4.4232,-4.3536,-4.3615,-4.4247,-4.4782,-4.497,-4.6059,-4.6946,-4.7112,-4.7957,-4.8549,-4.8513,-4.892,-4.9273,-4.9474,-4.9049,-4.874,-4.868,-4.8602,-4.8319,-4.7776,-4.6819,-4.607,-4.5582,-4.4243,-4.3427,-4.3214,-4.316,-4.3068,-4.29,-4.2823,-4.2822,-3.8855,-3.8979,-3.9059,-3.9073,-3.8906,-3.828,-3.6597,-3.5376,0.0,0.0,-3.2019,-3.216,-3.2092,0.0,-3.6515,0.0,-3.9574,-4.153,0.0,0.0,0.0,0.0,0.0,0.0,-4.9179,-5.0046,0.0,-5.0691,-5.2078,-5.3092,-5.3449,-5.4035,-5.4357,-5.4324,-5.4376,-5.4392,-5.4409,-5.4392,-5.4212,-5.3829,-5.3159,-5.2641,-5.2252,-5.1001,-5.0652,-5.0991,-4.9794,-4.9654,-5.0239,-4.9448,-4.9223,-4.936,-4.9157,-4.9101,-4.9084,-4.8979,-4.9046,-4.9048,-4.7876,-4.696,-4.617,-4.5324,-4.4907,-4.4743,-4.5035,-4.6128,-4.7315,-4.7633,-4.8244,-4.884,-4.8891,-4.8416,-4.7767,-4.7127,-4.6506,-4.6459,-4.7974,-4.6986,-4.5769,-4.5552,-4.4708,-4.3882,-4.3393,-4.3944,-4.4544,-4.4748,-4.5856,-4.6892,-4.7512,-4.8255,-4.8873,-4.9179,-4.9049,-4.9092,-4.9424,-4.9358,-4.9292,-4.926,-4.915,-4.8957,-4.8614,-4.71,-4.6147,-4.5843,-4.4285,-4.3393,-4.3214,-4.3123,-4.303,-4.29,-4.2842,-4.2861,-3.8693,-3.8925,-3.8921,-3.8993,-3.8413,-3.7377,-3.5693,0.0,0.0,-3.0386,-3.0622,-3.117,-3.1289,-3.4037,-3.657,-3.7452,0.0,-4.1452,0.0,0.0,0.0,0.0,0.0,0.0,0.0,-5.0046,-5.0633,-5.0691,-5.1518,-5.2682,-5.4202,-5.4304,-5.4342,-5.4392,-5.4342,-5.4342,-5.4409,-5.4342,-5.3861,-5.3007,-5.2735,-5.2159,-5.1287,-5.0247,-4.9841,-4.9954,-4.9861,-5.0009,0.0,-5.0202,-5.0216,-5.0208,-4.9415,-4.9101,-4.9101,-4.9084,-4.9133,-4.8971,-4.7351,-4.6576,-4.6077,-4.4752,-4.4636,-4.5082,-4.5236,-4.6434,-4.7715,-4.7718,-4.8277,-4.8891,-4.8909,-4.8331,-4.775,-4.7874,-4.7376,-4.7154,-4.811,-4.7544,-4.6581,-4.5679,-4.5314,-4.4822,-4.3824,-4.4223,-4.4688,-4.471,-4.5937,-4.7038,-4.7459,-4.8161,-4.9098,-5.0405,-4.9875,-4.9409,-4.9324,-4.9308,-4.9244,-4.9135,-4.9101,-4.8682,-4.7766,-4.6755,-4.5838,-4.5033,-4.3958,-4.334,-4.3214,-4.3123,-4.303,-4.2901,-4.2882,-4.2882,-3.814,-3.8271,-3.8294,-3.8322,-3.7715,-3.6641,-3.4823,0.0,-3.2093,-3.0298,-3.0653,-3.1321,-3.1372,-3.4045,-3.6401,-3.6864,-3.9252,-4.1222,-4.1738,0.0,0.0,0.0,0.0,0.0,0.0,0.0,-5.1045,-5.2118,-5.2944,-5.3695,-5.4352,-5.3906,-5.38,-5.4146,-5.3749,-5.3468,-5.3379,-5.2877,-5.2378,-5.1862,-5.1306,-5.0824,-5.0379,-4.9455,-4.9104,-4.9214,-4.9233,-4.9322,0.0,-4.9463,-4.9461,-4.9458,-4.9196,-4.9116,-4.9166,-4.9118,-4.9166,-4.9075,-4.7756,-4.6899,-4.6238,-4.5188,-4.5388,-4.6004,-4.6027,-4.7229,-4.8546,-4.8443,-4.8649,-4.8909,-4.8909,-4.7958,-4.722,-4.7944,-4.7518,-4.7309,-4.8713,-4.8341,-4.7597,-4.72,-4.6244,-4.5438,-4.5284,-4.5021,-4.5088,-4.5846,-4.6654,-4.7426,-4.8087,-4.8615,-4.9174,-4.9744,-4.9517,-4.9535,-5.0038,-4.9529,-4.9115,-4.8979,-4.8481,-4.7951,-4.7442,-4.6044,-4.511,-4.4728,-4.3779,-4.3214,-4.3142,-4.3596,-4.3757,-4.3625,-4.4114,-4.4331,-3.7294,-3.7487,-3.7485,-3.7257,-3.6773,-3.5812,0.0,-3.2803,-3.1918,-3.0118,-3.0668,-3.1458,-3.1507,-3.4067,-3.6211,-3.6394,-3.8796,-4.0836,-4.1277,-4.3264,0.0,0.0,0.0,-4.8182,0.0,-5.0317,-5.1506,-5.2787,-5.3599,-5.4146,-5.439,-5.3603,-5.3426,-5.4055,-5.3324,-5.2839,-5.2696,-5.1842,-5.1212,-5.0843,-5.025,-4.9806,-4.9492,-4.8882,-4.8642,-4.8715,-4.8804,-4.8857,0.0,-4.896,-4.8978,-4.8979,-4.9083,-4.9166,-4.9179,-4.915,-4.9197,-4.9108,-4.7802,-4.6977,-4.6327,-4.5236,-4.5486,-4.6257,-4.6452,-4.7729,-4.91,-4.8943,-4.8723,-4.85,-4.8259,-4.7396,-4.6802,-4.7563,-4.7503,-4.7672,-4.9174,-4.902,-4.8514,-4.8251,-4.7211,-4.6379,-4.6445,-4.5902,-4.5827,-4.693,-4.7332,-4.7824,-4.8639,-4.896,-4.9222,-4.9515,-4.9262,-4.9374,-5.0106,-4.9469,-4.8979,-4.8874,-4.8026,-4.733,-4.6911,-4.5478,-4.4527,-4.4181,-4.3743,-4.3506,-4.3468,-4.423,-4.4554,-4.4458,-4.5037,-4.5436,-3.6173,-3.6666,-3.6532,-3.5714,-3.5529,-3.4835,0.0,-3.1573,-3.1077,-2.9529,-3.0319,-3.1365,-3.1561,-3.4072,-3.6124,-3.6197,-3.8285,-4.0257,-4.1274,-4.285,0.0,0.0,0.0,-4.8166,-4.9104,-5.0839,-5.1944,-5.2096,-5.2803,0.0,-5.4352,-5.3517,-5.3409,-5.4271,-5.3271,-5.2696,-5.2696,-5.1695,-5.0806,-5.0009,-4.9954,-4.9455,-4.8624,-4.8605,-4.855,-4.8531,-4.8786,-4.8856,0.0,-4.9098,-4.9166,-4.9101,-4.9164,-4.9214,-4.9214,-4.9214,-4.9244,-4.9033,-4.7169,-4.6513,-4.6199,-4.4485,-4.4554,-4.5454,-4.6252,-4.776,-4.9164,-4.896,-4.8333,-4.7534,-4.6735,-4.6559,-4.6619,-4.6694,-4.7408,-4.8347,-4.9305,-4.949,-4.9227,-4.8363,-4.8194,-4.7883,-4.6948,-4.6783,-4.7003,-4.7686,-4.7781,-4.8098,-4.8973,-4.8979,-4.9275,-5.0282,-4.9427,-4.8894,-4.9103,-4.8979,-4.8874,-4.8804,-4.792,-4.6965,-4.5975,-4.513,-4.4234,-4.3233,-4.3924,-4.4286,-4.4286,-4.497,-4.5291,-4.5291,-4.5291,-4.5725,-3.3855,-3.3915,-3.3776,-3.2976,-3.2427,-3.1679,-3.0104,-2.9732,-2.9562,-2.8985,-2.9692,-3.06,-3.1205,-3.3894,-3.5904,-3.55,-3.83,-4.0498,0.0,0.0,0.0,0.0,-4.7949,-4.9495,0.0,0.0,-5.2397,-5.3595,-5.3391,-5.3562,-5.4352,-5.3517,-5.3338,-5.4073,-5.2604,-5.1751,-5.1602,-5.0102,-4.9177,-4.8844,-4.8825,-4.8659,-4.8383,-4.8383,-4.8771,-4.9473,-4.9547,-4.9693,-4.9816,-4.9815,-4.9533,-4.9101,-4.9164,-4.9214,-4.9214,-4.9214,-4.9244,-4.9201,-4.8416,-4.7809,-4.7285,-4.6682,-4.6733,-4.7043,-4.7205,-4.7716,-4.8224,-4.8107,-4.7906,-4.7402,-4.6092,-4.5722,-4.5903,-4.6666,-4.6996,-4.7573,-4.9159,-4.9509,-4.9415,-4.9133,-4.8577,-4.82,-4.8402,-4.7911,-4.7737,-4.844,-4.8553,-4.8646,-4.8925,-4.8926,-4.9002,-4.928,-4.8988,-4.908,-4.9741,-4.9118,-4.8624,-4.8476,-4.7647,-4.7003,-4.6538,-4.5696,-4.5091,-4.4779,-4.4823,-4.4851,-4.4851,-4.558,-4.6227,-4.6795,-4.6897,-4.7083,0.0,-3.2072,-3.1947,-3.1201,-3.0911,-3.0448,-2.8915,-2.8975,-2.9173,-2.8469,-2.9423,-3.0527,-3.1037,-3.3738,-3.5821,-3.5458,-3.7951,-3.9937,0.0,0.0,0.0,-4.6271,0.0,0.0,0.0,-5.1659,-5.236,-5.3445,-5.3334,-5.328,-5.3449,-5.2827,-5.2634,-5.3014,-5.1918,-5.1083,-5.058,-4.9119,-4.8362,-4.8306,-4.8267,-4.8286,-4.8324,-4.8675,-4.9009,-4.9324,-4.9769,-4.9878,0.0,-4.9724,-4.9665,-4.953,-4.9262,-4.9521,-4.9987,-4.939,-4.9386,-4.9571,-4.8702,-4.8129,-4.7694,-4.7313,-4.7424,-4.7718,-4.7617,-4.7616,-4.7649,-4.765,-4.7188,-4.6466,-4.5544,-4.5013,-4.4994,-4.6053,-4.6461,-4.7055,-4.8643,-4.9199,-4.944,-4.949,-4.9027,-4.8743,-4.9137,-4.8716,-4.8466,-4.8852,-4.8909,-4.8909,-4.8909,-4.8909,-4.8763,-4.8397,-4.8584,-4.8806,-4.8937,-4.8384,-4.7979,-4.7866,-4.6745,-4.5991,-4.5779,-4.4975,-4.4481,-4.4421,-4.4534,-4.4761,-4.5068,-4.6122,-4.6935,-4.7511,-4.7533,-4.7593,0.0,-3.0849,-3.0757,-3.0167,-3.057,-3.057,-2.8389,-2.8886,0.0,-2.7962,-2.9356,-3.0853,-3.0966,-3.3622,-3.576,-3.5745,-3.7377,-3.891,0.0,-4.0892,0.0,0.0,-4.8247,0.0,-5.0335,-5.1253,-5.1872,-5.2062,-5.2656,-5.2663,-5.1931,-5.1636,-5.1428,-5.1286,-5.1176,-5.0638,-4.9709,-4.8708,-4.8264,-4.8378,-4.8245,-4.8281,-4.8489,-4.9265,-4.9192,0.0,-4.9676,-4.9729,-4.9025,-4.9257,-4.9718,-5.0238,-4.9493,-5.0053,-5.1151,-4.966,-4.9569,-4.998,-4.8264,-4.7726,-4.7629,-4.6765,-4.7027,-4.7675,-4.7658,-4.7587,-4.7515,-4.7584,-4.6385,-4.5095,-4.5086,-4.4426,-4.404,-4.5069,-4.59,-4.6799,-4.7857,-4.8727,-4.9324,-4.9459,-4.9493,-4.9409,-4.923,-4.9179,-4.9113,-4.8926,-4.8891,-4.8891,-4.8891,-4.8891,-4.8578,-4.7749,-4.8161,-4.8126,-4.7242,-4.7168,-4.7168,-4.713,-4.5552,-4.4524,-4.4277,-4.3533,-4.3021,-4.2789,-4.3542,-4.4351,-4.5159,-4.6579,-4.7363,-4.7468,-4.7363,-4.7363,-2.7228,0.0,-2.8146,-2.8136,-2.8282,-2.8135,0.0,-2.6991,-2.7169,-2.7351,0.0,-2.9497,-3.064,-3.3473,-3.5286,-3.424,-3.7503,-3.9677,-3.8193,0.0,0.0,-4.8157,-4.9057,-4.9696,-5.0335,-5.0717,-5.1141,-5.1744,-5.1337,-5.1262,-5.1711,-5.0925,-5.0413,-5.0342,-5.0139,-4.9951,-4.9691,-4.8708,-4.8518,-4.9122,-4.8402,-4.8749,-5.0021,-4.8997,-4.9244,-5.0469,-5.073,-5.0898,-5.0999,-5.1545,-5.1208,-5.0359,-5.0106,-4.9867,-4.9623,-4.925,-4.9232,-4.9291,-4.8709,-4.8561,-4.8576,-4.8303,-4.8288,-4.8365,-4.8311,-4.8384,-4.8343,-4.7768,-4.679,-4.578,-4.5169,-4.4343,-4.3919,-4.5034,-4.59,-4.6783,-4.7796,-4.8667,-4.9244,-4.9324,-4.9358,-4.9327,-4.923,-4.911,-4.8993,-4.8857,-4.8822,-4.8786,-4.8696,-4.8768,-4.8695,-4.8329,-4.7776,-4.7591,-4.7916,-4.7934,-4.7836,-4.7575,-4.7168,-4.6574,-4.5732,-4.5516,-4.5117,-4.4443,-4.5132,-4.5835,-4.6534,-4.6999,-4.7245,-4.7267,-4.7276,-4.732,-2.5626,-2.6557,-2.7189,-2.7733,-2.7891,-2.7737,-2.7063,0.0,0.0,0.0,0.0,-2.9168,-3.0399,-3.2678,-3.4312,-3.4012,-3.7132,0.0,0.0,0.0,-4.5602,-4.8159,-4.8973,-4.9597,0.0,-5.0378,-5.0467,-5.049,-5.0364,-5.016,-4.9881,-4.9632,-4.9434,-4.9326,-4.9158,-4.9043,-4.9004,-4.8832,-4.8974,-4.9413,-4.9261,-4.9742,-5.0729,-5.0215,-5.0186,-5.06,-5.1359,-5.1399,-5.0946,-5.1304,-5.1246,-5.0811,-4.998,-4.9869,-5.009,-4.9311,-4.9238,-4.95,-4.897,-4.8769,-4.8697,-4.8606,-4.8513,-4.8458,-4.842,-4.8532,-4.8494,-4.77,-4.6504,-4.5385,-4.5011,-4.4224,-4.3767,-4.4816,-4.5717,-4.66,-4.7634,-4.8485,-4.9096,-4.9228,-4.926,-4.9228,-4.9166,-4.9098,-4.8996,-4.8822,-4.8787,-4.875,-4.8624,-4.866,-4.8512,-4.7997,-4.7757,-4.7625,-4.7562,-4.7809,-4.7741,-4.7174,-4.6445,-4.5707,-4.5045,-4.4665,-4.4229,-4.3677,-4.4382,-4.5124,-4.5842,-4.6302,-4.6749,-4.7196,-4.716,-4.7205,-2.4853,-2.6032,-2.7103,-2.8192,-2.8479,-2.8331,-2.7662,0.0,0.0,0.0,0.0,0.0,0.0,-3.2023,0.0,0.0,0.0,0.0,-4.3453,-4.404,-4.5004,-4.7556,-4.8636,0.0,-4.9855,-4.9889,-4.9589,-4.89,-4.9242,-4.8948,-4.7723,-4.8213,-4.8531,-4.8494,-4.8363,-4.8267,-4.8187,-4.8862,-4.9265,-4.9413,-5.0069,-5.0538,-5.0867,-5.1439,-5.1039,-4.9972,-5.1416,0.0,-5.0337,-5.0319,-5.08,-5.1374,-4.9759,-4.9945,-5.0948,-4.9464,-4.9336,-4.982,-4.9027,-4.8624,-4.8438,-4.8325,-4.8306,-4.8287,-4.8287,-4.84,-4.8347,-4.7647,-4.6269,-4.4986,-4.4963,-4.4269,-4.3795,-4.4613,-4.5475,-4.6392,-4.7466,-4.8316,-4.8943,-4.9148,-4.9181,-4.9183,-4.9118,-4.9084,-4.8998,-4.8804,-4.8769,-4.8715,-4.8569,-4.8569,-4.8292,-4.7519,-4.7829,-4.7768,-4.7024,-4.7186,-4.7081,-4.6499,-4.5114,-4.4086,-4.3611,-4.2857,-4.2417,-4.2281,-4.2939,-4.3685,-4.4467,-4.5285,-4.6104,-4.695,-4.6944,-4.6998,-2.4843,-2.5802,-2.6971,-2.8696,-2.9069,-2.8831,-2.8224,0.0,0.0,0.0,0.0,0.0,0.0,-3.2934,-3.5137,0.0,0.0,-4.0891,0.0,0.0,-4.5791,-4.8323,0.0,-4.8964,-4.8989,-4.8413,-4.7915,-4.7678,-4.7125,-4.6996,-4.7421,-4.7389,-4.7702,-4.8476,-4.8304,-4.8207,-4.8187,-4.8218,-4.862,-4.9413,-4.9403,-4.9864,-5.0627,-5.0121,-4.9874,-4.9843,0.0,-5.0837,-5.1459,-5.1386,-5.1479,-5.1569,-5.0546,-4.9879,-4.942,-4.9036,-4.8983,-4.9041,-4.8733,-4.8458,-4.8246,-4.8305,-4.8306,-4.8287,-4.8228,-4.8343,-4.8457,-4.8216,-4.7462,-4.6562,-4.5902,-4.5095,-4.4473,-4.4742,-4.5475,-4.6393,-4.7399,-4.8248,-4.8875,-4.9084,-4.9118,-4.9118,-4.9101,-4.9015,-4.8874,-4.866,-4.8642,-4.8569,-4.8382,-4.8438,-4.8401,-4.8101,-4.7453,-4.7206,-4.7686,-4.6456,-4.5825,-4.6215,-4.5911,-4.5047,-4.3575,-4.2736,-4.2588,-4.312,-4.3245,-4.3624,-4.4316,-4.5149,-4.5592,-4.578,-4.6377,-4.6661,-2.4793,-2.5949,-2.7457,-2.9614,-2.957,-2.9155,-2.9738,0.0,0.0,0.0,0.0,0.0,0.0,0.0,-3.5897,-3.7913,0.0,-4.1355,-4.4693,-4.4839,-4.5259,0.0,0.0,-4.7222,-4.7331,-4.7017,-4.6575,-4.6043,-4.5991,-4.6158,-4.658,-4.6874,-4.7461,-4.8363,-4.8265,-4.8246,-4.8362,-4.8228,-4.8791,-5.0053,-5.0053,-5.0538,-5.1373,-5.0684,-5.0192,-4.9954,0.0,-5.082,-5.0871,-5.1352,-5.1556,-5.1555,-5.1146,-5.0511,-4.9711,-4.9076,-4.8732,-4.855,-4.8438,-4.8246,-4.8046,-4.813,-4.8131,-4.8151,-4.8187,-4.8265,-4.8323,-4.8324,-4.7681,-4.6873,-4.6085,-4.5572,-4.5279,-4.5369,-4.603,-4.6911,-4.7886,-4.842,-4.8732,-4.8911,-4.898,-4.8979,-4.8979,-4.8926,-4.882,-4.8623,-4.8605,-4.8514,-4.8325,-4.8305,-4.8285,-4.8207,-4.7718,-4.7525,-4.7884,-4.6608,-4.5518,-4.4928,-4.4742,-4.4096,-4.2894,-4.2421,-4.232,-4.2587,-4.2522,-4.3045,-4.418,-4.4551,-4.5216,-4.6094,-4.643,-4.659,-2.5225,-2.6471,-2.8105,-3.0508,-3.0415,-3.0087,-3.1492,-3.1791,0.0,0.0,0.0,0.0,0.0,-3.4905,0.0,-4.0221,-4.1035,-4.2013,-4.4108,-4.4307,-4.4692,-4.5882,-4.6012,-4.5993,-4.6029,-4.6029,-4.5662,-4.4762,-4.5205,-4.5627,-4.5865,-4.656,-4.7384,-4.8268,-4.8208,-4.8265,-4.8494,-4.8401,-4.8929,-5.0076,-5.0378,-5.079,-5.1199,-5.0912,-5.0379,-4.9713,-5.0525,-5.0598,-5.0189,-5.0741,-5.1055,-5.1205,-5.1036,-5.0588,-4.992,-4.908,-4.855,-4.8248,-4.8169,-4.8046,-4.7922,-4.797,-4.7992,-4.8012,-4.811,-4.8168,-4.8207,-4.8267,-4.7642,-4.6779,-4.6067,-4.5847,-4.5828,-4.5883,-4.6507,-4.7333,-4.8291,-4.8532,-4.8605,-4.8732,-4.8804,-4.882,-4.882,-4.882,-4.8767,-4.8605,-4.8569,-4.8495,-4.8287,-4.8228,-4.8168,-4.8146,-4.8004,-4.7809,-4.7588,-4.6576,-4.5306,-4.3886,-4.3468,-4.2968,-4.2343,-4.2166,-4.2058,-4.2005,-4.1862,-4.2339,-4.3474,-4.3691,-4.4442,-4.5658,-4.5859,-4.6077,-2.6585,-2.7467,-2.8801,-3.1145,-3.1951,0.0,-3.3071,-3.3389,0.0,-3.2493,0.0,0.0,0.0,-3.7449,-4.0162,-4.1396,-4.2359,-4.3269,-4.4254,0.0,-4.4747,-4.57,-4.645,-4.6634,-4.5883,-4.581,-4.5443,-4.451,-4.4602,-4.5004,-4.5773,-4.6445,-4.7269,-4.8268,-4.8111,-4.8169,-4.8494,-4.8494,-4.8474,-4.847,-4.9357,-4.9357,-4.8601,-4.949,-4.9455,-4.8716,-4.9112,-4.966,-5.0236,-4.9612,-4.9764,-5.0311,-4.9631,-4.9178,-4.8879,-4.8678,-4.8439,-4.8187,-4.807,-4.7968,-4.7922,-4.797,-4.7992,-4.7992,-4.8012,-4.809,-4.8187,-4.8207,-4.7543,-4.6663,-4.6048,-4.5847,-4.5828,-4.5883,-4.647,-4.7275,-4.8272,-4.8494,-4.8532,-4.8605,-4.8605,-4.8623,-4.8623,-4.8623,-4.8605,-4.8513,-4.8513,-4.8419,-4.8226,-4.8207,-4.8126,-4.7943,-4.7902,-4.7552,-4.6669,-4.5665,-4.4713,-4.385,-4.3028,-4.2496,-4.2308,-4.2166,-4.2058,-4.2005,-4.1862,-4.1723,-4.1583,-4.2472,-4.2893,-4.2911,-4.3705,-4.4489,-2.7131,-2.8779,-3.0545,-3.2048,-3.3311,0.0,0.0,-3.4667,-3.4693,-3.4435,-3.5012,0.0,0.0,0.0,-4.1051,-4.2074,-4.2981,-4.3433,-4.318,-4.3418,-4.365,-4.3785,-4.3746,-4.398,-4.4744,-4.4685,-4.4776,-4.5129,-4.5185,-4.5569,-4.639,-4.6738,-4.7326,-4.8209,-4.819,-4.8306,-4.8569,-4.855,-4.8532,-4.8495,-4.8808,-4.9008,-4.9115,-4.9028,-4.8864,-4.8605,-4.8822,-4.9078,-4.9374,-4.9735,-4.9978,-5.0098,-4.9818,-4.9528,-4.925,-4.8735,-4.8343,-4.807,-4.8012,-4.7968,-4.7902,-4.7925,-4.7945,-4.7966,-4.799,-4.8008,-4.8026,-4.805,-4.7425,-4.6711,-4.6614,-4.6503,-4.6446,-4.656,-4.7182,-4.788,-4.8383,-4.8513,-4.8513,-4.8513,-4.8569,-4.855,-4.842,-4.8476,-4.8494,-4.8323,-4.8304,-4.8265,-4.809,-4.7968,-4.7904,-4.7902,-4.7759,-4.7247,-4.6284,-4.5938,-4.5135,-4.3698,-4.2834,-4.2346,-4.2308,-4.2139,-4.203,-4.2005,-4.1797,-4.2101,-4.2957,-4.2863,-4.3266,-4.4149,-4.3898,-4.3944,-2.8043,-2.9726,-3.1319,-3.2796,0.0,0.0,-3.5558,-3.5726,-3.5933,-3.6222,-3.7091,0.0,-3.9525,0.0,0.0,0.0,-4.2979,-4.312,-4.2387,-4.2632,-4.2732,-4.2364,-4.2239,-4.2661,-4.383,-4.4137,-4.4596,-4.5433,-4.5782,-4.6222,-4.6827,-4.716,-4.7602,-4.8209,-4.8286,-4.8401,-4.8587,-4.8642,-4.866,-4.866,-4.8624,-4.8827,-4.9266,-4.8808,-4.8624,-4.866,-4.8786,-4.8822,-4.8842,-4.9539,-4.9709,-4.9565,-4.9565,-4.9399,-4.9133,-4.8621,-4.8208,-4.7909,-4.7949,-4.7886,-4.778,-4.7861,-4.7881,-4.7902,-4.7947,-4.7945,-4.7902,-4.7968,-4.7143,-4.643,-4.7098,-4.7044,-4.6785,-4.6921,-4.7543,-4.8187,-4.838,-4.8418,-4.8418,-4.8418,-4.842,-4.8364,-4.8229,-4.8286,-4.8304,-4.8168,-4.809,-4.803,-4.7929,-4.7762,-4.7657,-4.7717,-4.7533,-4.7147,-4.6474,-4.6227,-4.5484,-4.401,-4.3147,-4.2555,-4.2246,-4.2094,-4.1984,-4.1945,-4.1732,-4.2214,-4.3489,-4.2775,-4.305,-4.4224,-4.3436,-4.3144,-2.9462,-3.0148,-3.0825,0.0,0.0,0.0,-3.6107,-3.6568,-3.6978,-3.7659,-3.9029,-4.0157,-4.0367,-4.1169,0.0,-4.2246,-4.2351,-4.2331,-4.2124,-4.2225,-4.2145,-4.1753,-4.2615,-4.3305,-4.3393,-4.4357,-4.5068,-4.5271,-4.6152,-4.6784,-4.698,-4.7633,-4.8092,-4.8287,-4.8306,-4.8401,-4.8587,-4.8732,-4.8787,-4.8804,-4.8804,-4.8732,-4.8605,-4.8732,-4.8787,-4.8804,-4.8874,-4.8856,-4.8787,-4.8787,-4.8715,-4.8587,-4.8587,-4.8458,-4.8287,-4.8287,-4.805,-4.7717,-4.784,-4.7717,-4.7533,-4.7819,-4.7899,-4.7881,-4.7881,-4.7881,-4.7881,-4.7881,-4.6658,-4.5709,-4.7443,-4.732,-4.6723,-4.6804,-4.7427,-4.805,-4.8168,-4.8187,-4.8187,-4.8187,-4.809,-4.7992,-4.7992,-4.7992,-4.7992,-4.7992,-4.7893,-4.777,-4.7699,-4.7593,-4.7446,-4.7302,-4.7298,-4.7298,-4.7298,-4.651,-4.5674,-4.4846,-4.3989,-4.308,-4.2139,-4.2051,-4.1945,-4.1801,-4.167,-4.1923,-4.262,-4.1946,-4.1873,-4.2392,-4.1861,-4.1873,-2.9559,-3.1202,0.0,-3.3621,0.0,0.0,0.0,-3.6385,0.0,0.0,-3.9068,-4.0307,-4.0424,-4.1204,0.0,-4.2103,-4.2139,-4.2055,-4.1909,-4.1697,-4.1591,-4.1762,-4.1515,-4.1818,-4.3075,-4.3389,-4.3918,-4.489,-4.5568,-4.6204,-4.6827,-4.7276,-4.7718,-4.8209,-4.842,-4.8532,-4.8605,-4.8732,-4.8876,-4.9016,-4.891,-4.8786,-4.8605,-4.8642,-4.8715,-4.8787,-4.8714,-4.8678,-4.8642,-4.8457,-4.8343,-4.8305,-4.8209,-4.811,-4.8008,-4.7972,-4.785,-4.7678,-4.7636,-4.7636,-4.7636,-4.7636,-4.7678,-4.7759,-4.7759,-4.7759,-4.7759,-4.7759,-4.7394,-4.7102,-4.7632,-4.7578,-4.7438,-4.7605,-4.7828,-4.8052,-4.8247,-4.8228,-4.8168,-4.809,-4.8012,-4.7931,-4.7684,-4.7723,-4.7723,-4.7557,-4.7475,-4.741,-4.7356,-4.7359,-4.7298,-4.7116,-4.716,-4.716,-4.6962,-4.6788,-4.6279,-4.528,-4.4578,-4.3568,-4.2157,-4.2051,-4.1945,-4.1801,-4.167,-4.2231,-4.3506,-4.2231,-4.2226,-4.3419,-4.1997,-4.1399,-3.0005,-3.1755,0.0,-3.3649,-3.5053,-3.645,-3.6849,0.0,0.0,0.0,0.0,-4.0627,-4.0717,-4.124,0.0,-4.1403,-4.1651,-4.1648,-4.1117,-4.1171,-4.1196,-4.0989,-4.0775,-4.1121,-4.2308,-4.2714,-4.3408,-4.4643,-4.5192,-4.5745,-4.6277,-4.6816,-4.7333,-4.7828,-4.8329,-4.8642,-4.8678,-4.8786,-4.8928,-4.9101,-4.8962,-4.8874,-4.8804,-4.875,-4.875,-4.8821,-4.8678,-4.855,-4.8476,-4.8285,-4.8168,-4.811,-4.8032,-4.7927,-4.7822,-4.7811,-4.7666,-4.7486,-4.749,-4.7511,-4.7533,-4.7511,-4.7636,-4.7759,-4.7717,-4.7738,-4.7759,-4.7699,-4.7422,-4.7238,-4.7606,-4.7422,-4.728,-4.7775,-4.7931,-4.8012,-4.811,-4.813,-4.8088,-4.7988,-4.7868,-4.7726,-4.7533,-4.7533,-4.749,-4.7323,-4.7276,-4.712,-4.6704,-4.6695,-4.6547,-4.6065,-4.6337,-4.647,-4.6305,-4.6351,-4.599,-4.5014,-4.4622,-4.3687,-4.2048,-4.1948,-4.1819,-4.1648,-4.156,-4.2151,-4.3378,-4.2134,-4.2123,-4.3273,-4.1916,-4.118,-3.0592,0.0,0.0,-3.3613,-3.5224,0.0,-3.7763,-3.8278,-3.8801,-3.9566,0.0,-4.1093,-4.1117,-4.1261,-4.1158,-4.0504,-4.099,-4.1116,-4.0134,-4.0739,-4.0878,-3.9865,-4.0405,-4.0943,-4.1153,-4.2118,-4.3165,-4.4132,-4.4739,-4.5245,-4.5566,-4.6315,-4.6944,-4.739,-4.8181,-4.8697,-4.8787,-4.8856,-4.8979,-4.9118,-4.8979,-4.8979,-4.9101,-4.896,-4.8891,-4.8855,-4.8696,-4.8495,-4.8267,-4.8207,-4.809,-4.7972,-4.7951,-4.7847,-4.7678,-4.7728,-4.7515,-4.7223,-4.7403,-4.7385,-4.7341,-4.7446,-4.7657,-4.7861,-4.7738,-4.7798,-4.7861,-4.7738,-4.709,-4.6612,-4.7476,-4.6979,-4.654,-4.7455,-4.7827,-4.797,-4.7922,-4.7893,-4.786,-4.7772,-4.7548,-4.7381,-4.736,-4.7309,-4.728,-4.7258,-4.7183,-4.6802,-4.5887,-4.5757,-4.5468,-4.4685,-4.5143,-4.5519,-4.5581,-4.5457,-4.5138,-4.4509,-4.435,-4.358,-4.204,-4.1938,-4.1741,-4.1403,-4.1403,-4.1787,-4.2579,-4.177,-4.1736,-4.2375,-4.1684,-4.1129,-3.0382,-3.2128,0.0,0.0,-3.5719,-3.7126,-3.8205,-3.854,-3.8846,-3.9674,-4.0516,-4.1117,-4.1157,-4.1209,-4.1202,-4.1028,-4.0685,-4.0545,-4.0873,-4.0509,-4.0219,-4.0175,-4.0405,-4.0246,-3.944,-4.0787,-4.1604,-4.1321,-4.262,-4.4028,-4.5452,-4.5975,-4.6801,-4.805,-4.8513,-4.8769,-4.8787,-4.8822,-4.8979,-4.9244,-4.9012,-4.8995,-4.9164,-4.8978,-4.8803,-4.866,-4.8623,-4.8402,-4.8072,-4.8052,-4.7929,-4.7762,-4.766,-4.7575,-4.7529,-4.7381,-4.7316,-4.7254,-4.7138,-4.7272,-4.7428,-4.7363,-4.7533,-4.7738,-4.7717,-4.7717,-4.7738,-4.7717,-4.7488,-4.7295,-4.7496,-4.6916,-4.648,-4.7209,-4.7657,-4.7922,-4.7902,-4.7432,-4.6919,-4.6695,-4.6594,-4.6509,-4.6356,-4.6833,-4.7156,-4.6939,-4.6801,-4.6441,-4.5655,-4.5567,-4.5491,-4.529,-4.4847,-4.5014,-4.6117,-4.5181,-4.4928,-4.575,-4.4753,-4.3902,-4.332,-4.2828,-4.2209,-4.142,-4.1295,-4.1655,-4.2439,-4.1655,-4.1632,-4.2375,-4.1557,-4.1053,0.0,0.0,0.0,-3.5604,0.0,-3.6787,-3.7987,-3.8451,-3.8824,-3.9652,-4.0493,-4.1093,-4.1065,-4.114,-4.1041,-4.0545,-4.0538,-4.0556,-4.0493,-4.0487,-4.0417,-4.0232,-4.0539,-4.0399,-3.9425,-4.0669,-4.1376,-4.1012,-4.2083,-4.3405,-4.485,-4.5497,-4.6452,-4.7831,-4.8402,-4.875,-4.8857,-4.891,-4.9032,-4.9197,-4.9064,-4.9013,-4.9046,-4.8909,-4.875,-4.8587,-4.8587,-4.8344,-4.7992,-4.7992,-4.7888,-4.7678,-4.7407,-4.7363,-4.7363,-4.7178,-4.7116,-4.716,-4.716,-4.7254,-4.7407,-4.7407,-4.7593,-4.778,-4.7717,-4.7738,-4.7759,-4.7636,-4.7511,-4.7407,-4.7407,-4.6787,-4.6259,-4.6672,-4.7012,-4.7309,-4.7627,-4.7083,-4.6463,-4.6341,-4.6236,-4.6108,-4.6018,-4.657,-4.6934,-4.6731,-4.6637,-4.6307,-4.5545,-4.5138,-4.4903,-4.4834,-4.4445,-4.447,-4.5146,-4.4524,-4.4237,-4.4553,-4.3863,-4.3161,-4.2544,-4.2527,-4.2114,-4.1279,-4.1175,-4.136,-4.1777,-4.136,-4.136,-4.1759,-4.1243,-4.0888,0.0,0.0,-3.4742,-3.6429,-3.6507,0.0,-3.7551,-3.8096,-3.8624,-3.9526,-4.0429,-4.1047,-4.0935,-4.1041,-4.0863,-4.0038,-4.0447,-4.0625,-3.9997,-4.051,-4.0729,-4.0155,-4.0596,-4.0614,-3.9772,-4.0604,-4.1266,-4.1354,-4.1973,-4.2905,-4.4212,-4.5089,-4.612,-4.7315,-4.818,-4.8714,-4.8909,-4.8998,-4.9084,-4.9118,-4.9101,-4.9032,-4.8874,-4.8786,-4.8715,-4.8587,-4.8495,-4.8286,-4.7992,-4.799,-4.7868,-4.7657,-4.728,-4.7214,-4.732,-4.707,-4.7025,-4.707,-4.7209,-4.7298,-4.7363,-4.7446,-4.7636,-4.784,-4.7738,-4.7798,-4.7819,-4.7593,-4.7407,-4.7302,-4.7302,-4.655,-4.5857,-4.6065,-4.6077,-4.6202,-4.6912,-4.6422,-4.5864,-4.5825,-4.5674,-4.5609,-4.5877,-4.6287,-4.6542,-4.6572,-4.6542,-4.6183,-4.5264,-4.461,-4.414,-4.3902,-4.3885,-4.3874,-4.3863,-4.3758,-4.3454,-4.2957,-4.2817,-4.2323,-4.1412,-4.1909,-4.1838,-4.1087,-4.1047,-4.1023,-4.1023,-4.1047,-4.1047,-4.1023,-4.0912,-4.0728,0.0,0.0,-3.5383,0.0,-3.6385,-3.7026,0.0,0.0,-3.7897,0.0,-4.0342,-4.0935,-4.0912,-4.0918,-4.0884,-4.0756,-4.0256,-4.0083,-4.067,-4.0441,-4.0195,-4.0108,-4.0177,-3.9849,-3.8864,-3.909,-3.9578,-4.0329,-4.0955,-4.2137,-4.4042,-4.5222,-4.6232,-4.7114,-4.8199,-4.8804,-4.8909,-4.8857,-4.8962,-4.9181,-4.9135,-4.8998,-4.8804,-4.8678,-4.8624,-4.8587,-4.8401,-4.8209,-4.7992,-4.7945,-4.7822,-4.7657,-4.7385,-4.7363,-4.7446,-4.7116,-4.7116,-4.7254,-4.7093,-4.7227,-4.7468,-4.7363,-4.7511,-4.7717,-4.7717,-4.7699,-4.7717,-4.7678,-4.749,-4.7302,-4.7302,-4.6137,-4.5115,-4.5708,-4.4897,-4.4235,-4.5144,-4.4697,-4.4101,-4.3983,-4.3793,-4.4088,-4.5419,-4.5569,-4.5705,-4.6341,-4.6326,-4.5743,-4.4284,-4.4003,-4.3704,-4.3049,-4.2956,-4.3173,-4.3669,-4.3127,-4.2981,-4.3463,-4.2846,-4.234,-4.2077,-4.2139,-4.1797,-4.0935,-4.0817,-4.0745,-4.0745,-4.0864,-4.0864,-4.0745,-4.0745,-4.0576,-3.183,-3.3565,-3.4976,0.0,-3.6334,-3.6901,-3.6774,0.0,-3.7755,-3.8341,-3.9405,-4.0377,-4.0825,-4.0912,-4.0912,-4.0912,-4.0601,-4.0515,-4.086,-4.0712,-4.0602,-4.0699,-4.0722,-4.0492,-3.9951,-3.9834,-4.0106,-4.0818,-4.0975,-4.1968,-4.41,-4.5185,-4.6195,-4.7242,-4.8253,-4.884,-4.8909,-4.8963,-4.9032,-4.915,-4.9049,-4.891,-4.8787,-4.866,-4.8587,-4.8532,-4.8324,-4.8149,-4.7992,-4.7925,-4.7678,-4.7341,-4.7187,-4.712,-4.7098,-4.7025,-4.7048,-4.716,-4.7249,-4.7338,-4.7385,-4.7407,-4.7533,-4.7717,-4.7717,-4.7717,-4.7678,-4.7615,-4.7162,-4.6669,-4.6498,-4.5207,-4.4011,-4.4218,-4.3476,-4.2825,-4.3226,-4.3432,-4.3489,-4.3429,-4.3653,-4.4196,-4.5296,-4.5387,-4.5529,-4.6196,-4.6246,-4.5951,-4.5267,-4.4431,-4.3939,-4.4079,-4.3238,-4.2829,-4.3162,-4.2748,-4.2451,-4.237,-4.1969,-4.1661,-4.149,-4.1466,-4.1192,-4.0576,-4.0721,-4.0817,-4.0817,-4.0793,-4.0769,-4.0697,-4.0551,-4.0429,-3.2772,-3.3793,-3.4456,-3.5337,0.0,-3.6512,0.0,0.0,-3.7446,0.0,-3.8602,-3.9743,-4.0579,-4.085,-4.0965,-4.0912,-4.0965,-4.1006,-4.0912,-4.0942,-4.1018,-4.1186,-4.1058,-4.0949,-4.0901,-4.0436,-4.0482,-4.1343,-4.1124,-4.1819,-4.3867,-4.5057,-4.6104,-4.7073,-4.8028,-4.8635,-4.8909,-4.898,-4.9015,-4.9033,-4.8874,-4.8786,-4.8715,-4.8624,-4.8532,-4.8438,-4.8265,-4.8,-4.7678,-4.7811,-4.7467,-4.6904,-4.7026,-4.7048,-4.7002,-4.7048,-4.7093,-4.716,-4.7363,-4.7407,-4.7363,-4.7468,-4.7593,-4.7717,-4.7717,-4.7717,-4.7678,-4.7593,-4.7032,-4.6378,-4.5988,-4.4763,-4.3543,-4.3221,-4.2558,-4.2005,-4.2005,-4.2512,-4.302,-4.3198,-4.362,-4.4168,-4.4928,-4.517,-4.5387,-4.5804,-4.6024,-4.6077,-4.5884,-4.4699,-4.4015,-4.4418,-4.3349,-4.2532,-4.2398,-4.2376,-4.2038,-4.1319,-4.1331,-4.1185,-4.0864,-4.1178,-4.1111,-4.0644,-4.0947,-4.103,-4.0799,-4.0721,-4.0697,-4.0697,-4.0478,-4.0337,-3.2361,-3.3362,0.0,-3.4729,0.0,0.0,0.0,0.0,0.0,-3.7596,-3.8407,-3.9216,-4.0079,-4.0744,-4.1117,-4.0918,-4.1175,-4.1267,-4.0942,-4.1065,-4.1186,-4.1209,-4.069,-4.0483,-4.0849,-3.9792,-3.9713,-4.1268,-4.1043,-4.1471,-4.2994,-4.4858,-4.601,-4.626,-4.7228,-4.8129,-4.889,-4.884,-4.8823,-4.8804,-4.8678,-4.8569,-4.8531,-4.8513,-4.842,-4.8306,-4.8246,-4.7649,-4.683,-4.7451,-4.7163,-4.6404,-4.7036,-4.7363,-4.7446,-4.7341,-4.7363,-4.7468,-4.7341,-4.7385,-4.749,-4.7511,-4.7593,-4.7717,-4.7717,-4.7717,-4.7717,-4.7678,-4.7475,-4.7086,-4.6345,-4.5301,-4.424,-4.3454,-4.264,-4.2005,-4.2005,-4.2041,-4.2271,-4.2961,-4.305,-4.3243,-4.4013,-4.4677,-4.5067,-4.4981,-4.5568,-4.5778,-4.5061,-4.4222,-4.3453,-4.2795,-4.2655,-4.223,-4.1261,-4.181,-4.1832,-4.097,-4.1446,-4.1459,-4.0755,-4.1928,-4.2262,-4.1553,-4.1669,-4.1334,-4.0534,-4.0648,-4.0697,-4.0697,-4.0558,-4.0412,-3.2606,-3.3474,0.0,0.0,-3.5046,-3.5903,-3.597,-3.6307,-3.6742,-3.7181,-3.8313,-3.9305,-3.9624,-4.0756,-4.1552,-4.1255,-4.1323,-4.1363,-4.1249,-4.1088,-4.1035,-4.1123,-4.056,-4.0195,-4.0251,-3.9485,-3.9447,-4.0547,-4.074,-4.1393,-4.2752,-4.4273,-4.5219,-4.5429,-4.6411,-4.707,-4.7367,-4.7801,-4.8045,-4.8027,-4.842,-4.8532,-4.8382,-4.8457,-4.8362,-4.8111,-4.8228,-4.7985,-4.7549,-4.7635,-4.7349,-4.6809,-4.6701,-4.687,-4.7151,-4.6805,-4.6975,-4.7385,-4.7407,-4.7468,-4.7511,-4.7511,-4.7593,-4.7717,-4.7717,-4.7717,-4.7717,-4.7717,-4.6789,-4.5734,-4.5404,-4.4107,-4.277,-4.2212,-4.1775,-4.1615,-4.2141,-4.27,-4.3072,-4.2983,-4.3691,-4.4437,-4.4806,-4.4922,-4.5128,-4.5551,-4.5748,-4.561,-4.4851,-4.4066,-4.3323,-4.2667,-4.2056,-4.1591,-4.1324,-4.1429,-4.1306,-4.0929,-4.101,-4.0947,-4.06,-4.1114,-4.1218,-4.0771,-4.1067,-4.1219,-4.122,-4.0774,-4.051,-4.0453,-4.0387,-4.0288,-3.316,-3.3474,0.0,0.0,0.0,-3.5107,-3.5516,0.0,-3.6462,-3.6841,-3.8282,-3.9481,-3.956,-4.0806,-4.1745,-4.1521,-4.1574,-4.1552,-4.1368,-4.118,-4.1076,-4.1093,-4.0464,-3.9978,-3.9801,-3.9284,-3.9255,-3.9969,-4.05,0.0,-4.2619,-4.3962,-4.4778,-4.502,-4.6001,-4.6364,-4.6104,-4.6785,-4.7141,-4.7141,-4.7794,-4.8015,-4.7882,-4.8252,-4.8247,-4.8012,-4.8151,-4.7985,-4.7627,-4.7738,-4.7313,-4.6557,-4.6723,-4.684,-4.6866,-4.6853,-4.715,-4.7539,-4.7597,-4.7636,-4.7636,-4.7593,-4.7636,-4.7717,-4.7717,-4.7717,-4.7717,-4.7717,-4.6771,-4.5626,-4.5006,-4.3597,-4.2207,-4.1873,-4.1864,-4.2061,-4.263,-4.2829,-4.2999,-4.3465,-4.4126,-4.4734,-4.511,-4.5025,-4.5037,-4.5436,-4.5412,-4.5275,-4.5039,-4.4125,-4.3332,-4.2899,-4.2102,-4.1505,-4.1238,-4.1342,-4.1235,-4.0858,-4.0985,-4.0906,-4.0527,-4.103,-4.1092,-4.0679,-4.0984,-4.1241,-4.1461,-4.0836,-4.0461,-4.0379,-4.0379,-4.0337,0.0,0.0,0.0,0.0,0.0,0.0,-3.4884,0.0,-3.5699,-3.6604,-3.8252,-3.9627,-3.9857,-4.0808,-4.16,-4.1679,-4.1885,-4.1878,-4.1305,-4.134,-4.1312,-4.1082,-4.0366,-3.9772,-3.9565,-3.9053,-3.9005,-3.96,-4.0336,-4.1317,-4.2582,-4.387,-4.4725,-4.5047,-4.5943,-4.6048,-4.5268,-4.5847,-4.6168,-4.6168,-4.6765,-4.7019,-4.6998,-4.7803,-4.8111,-4.7975,-4.8012,-4.7574,-4.6898,-4.7664,-4.7002,-4.563,-4.7177,-4.7322,-4.6759,-4.7605,-4.7957,-4.7974,-4.7907,-4.7845,-4.7863,-4.7738,-4.7717,-4.7717,-4.7717,-4.7717,-4.7717,-4.7696,-4.7493,-4.6924,-4.5375,-4.3946,-4.2871,-4.2672,-4.2954,-4.3328,-4.3492,-4.2334,-4.1981,-4.4401,-4.4268,-4.3989,-4.4764,-4.4886,-4.4796,-4.4497,-4.4472,-4.4732,-4.5433,-4.4347,-4.3475,-4.3395,-4.279,-4.2002,-4.1022,-4.1602,-4.1633,-4.0748,-4.1366,-4.1386,-4.0544,-4.1759,-4.2107,-4.1376,-4.1503,-4.1452,-4.117,-4.0703,-4.051,-4.0485,-4.0493,-4.0576,-3.4315,0.0,0.0,0.0,0.0,0.0,0.0,0.0,-3.4932,-3.6234,-3.745,-3.8668,-3.9833,-4.0303,-4.0734,-4.137,-4.1433,-4.1525,-4.1931,-4.1569,-4.1063,-4.0568,-3.9681,-3.8854,-3.8217,-3.8018,-3.8092,0.0,-3.9228,-4.0294,-4.1615,-4.3032,-4.3845,-4.3948,-4.434,-4.4389,-4.4064,-4.4826,-4.5197,-4.5197,-4.5901,-4.6195,-4.6157,-4.7019,-4.7348,-4.7307,-4.7952,-4.8081,-4.7898,-4.8078,-4.7854,-4.7414,-4.7327,-4.7512,-4.7713,-4.676,-4.6777,-4.725,-4.709,-4.703,-4.7118,-4.7539,-4.7717,-4.7717,-4.7717,-4.7717,-4.7678,-4.7575,-4.705,-4.6173,-4.4711,-4.3908,-4.3424,-4.3162,-4.3165,-4.3352,-4.3811,-4.3249,-4.3068,-4.4481,-4.5018,-4.5122,-4.4816,-4.4672,-4.4381,-4.3786,-4.4092,-4.4241,-4.3913,-4.3523,-4.3296,-4.3328,-4.2677,-4.2157,-4.186,-4.2033,-4.1729,-4.0772,-4.0886,-4.0854,-4.051,-4.0945,-4.1015,-4.0611,-4.0933,-4.0915,-4.0561,-4.0629,-4.0485,-4.0196,-4.0313,-4.0751,-3.5062,0.0,0.0,0.0,0.0,0.0,-3.3547,-3.4145,-3.4845,0.0,-3.7291,-3.8527,-3.9423,-3.9603,-3.989,-4.0717,-4.044,-4.0394,-4.1121,-4.1382,-4.1055,-3.9861,-3.9225,-3.8495,-3.7482,-3.7206,-3.7218,-3.759,-3.8349,-3.9418,-4.0845,-4.2213,-4.2966,-4.3001,-4.3467,-4.3701,-4.3682,-4.4093,-4.4298,-4.4316,-4.5056,-4.5352,-4.5333,-4.6176,-4.6688,-4.6939,-4.7512,-4.7974,-4.8306,-4.8401,-4.8198,-4.7829,-4.7739,-4.7813,-4.7831,-4.7168,-4.7021,-4.713,-4.7285,-4.7057,-4.6852,-4.7568,-4.7738,-4.7717,-4.7717,-4.7657,-4.7615,-4.7511,-4.6802,-4.5801,-4.4839,-4.4348,-4.4,-4.3764,-4.3846,-4.4035,-4.4323,-4.4198,-4.4216,-4.487,-4.5137,-4.5119,-4.4692,-4.4287,-4.389,-4.3383,-4.3619,-4.3793,-4.3672,-4.3723,-4.3731,-4.3713,-4.3383,-4.3027,-4.2649,-4.2908,-4.2534,-4.1253,-4.1209,-4.103,-4.06,-4.0673,-4.0624,-4.0478,-4.0697,-4.0745,-4.0534,-4.0908,-4.1117,-4.118,-4.0933,-4.1406,-3.5987,-3.4905,0.0,0.0,-3.2774,0.0,-3.298,-3.3951,-3.4907,0.0,-3.7253,-3.8563,-3.8831,-3.8813,-3.901,-3.9779,-3.9255,-3.8981,-3.9613,-4.0784,-4.0852,-3.8903,-3.8751,-3.83,-3.6977,-3.6513,-3.6487,-3.6977,-3.769,-3.8715,-4.0112,-4.1432,-4.2167,-4.2251,-4.3123,-4.3649,-4.3754,-4.3634,-4.3582,-4.36,-4.4267,-4.4545,-4.451,-4.5315,-4.6009,-4.659,-4.6888,-4.7478,-4.8235,-4.866,-4.829,-4.7555,-4.8365,-4.8234,-4.7644,-4.8089,-4.7776,-4.7224,-4.7752,-4.7359,-4.6785,-4.7632,-4.7819,-4.7696,-4.7678,-4.7575,-4.749,-4.7446,-4.6685,-4.5769,-4.5435,-4.4991,-4.4626,-4.4397,-4.4677,-4.4906,-4.4701,-4.4927,-4.5186,-4.5206,-4.4863,-4.4576,-4.4489,-4.3865,-4.3338,-4.3214,-4.3189,-4.3465,-4.4207,-4.4388,-4.4448,-4.4432,-4.4457,-4.4154,-4.3379,-4.3914,-4.3605,-4.1923,-4.2029,-4.1702,-4.0755,-4.0807,-4.0858,-4.0817,-4.0903,-4.1027,-4.1129,-4.1422,-4.1929,-4.2586,-4.2014,-4.2302,-3.6416,-3.542,-3.4429,-3.3882,0.0,0.0,-3.2768,-3.2858,-3.33,0.0,-3.5651,-3.6524,-3.8452,-3.8292,-3.804,-3.8635,-3.8538,-3.8713,-3.9649,-3.9655,-3.9013,-3.7478,-3.7494,-3.7059,-3.5561,-3.5912,-3.6281,-3.6444,-3.7481,-3.8366,-3.8932,-4.0707,-4.1814,-4.1976,-4.2989,-4.3497,-4.3482,-4.3497,-4.3513,-4.3513,-4.368,-4.3736,-4.3737,-4.4545,-4.5021,-4.5276,-4.6654,-4.7408,-4.7735,-4.8543,-4.8764,-4.8616,-4.8954,-4.8952,-4.859,-4.723,-4.6555,-4.6322,-4.6268,-4.6043,-4.5977,-4.7429,-4.7819,-4.7678,-4.7554,-4.7511,-4.7446,-4.716,-4.6694,-4.6169,-4.5678,-4.5321,-4.5007,-4.4773,-4.4657,-4.4433,-4.3823,-4.4398,-4.4834,-4.4165,-4.4688,-4.5036,-4.444,-4.374,-4.3214,-4.3189,-4.3189,-4.3465,-4.4207,-4.4337,-4.4552,-4.513,-4.4673,-4.4285,-4.4104,-4.4225,-4.363,-4.2071,-4.2578,-4.2319,-4.0916,-4.1433,-4.1712,-4.1589,-4.2207,-4.2541,-4.2515,-4.1792,-4.1613,-4.1986,-4.233,-4.3014,-3.6067,-3.5287,-3.4495,-3.3776,0.0,0.0,0.0,-3.3258,-3.3701,-3.5437,-3.5314,-3.5457,-3.7273,-3.6605,-3.5939,-3.6514,-3.6392,-3.6256,-3.6429,-3.7644,-3.7784,-3.588,-3.6116,-3.5928,-3.4589,-3.5156,-3.5841,-3.6412,-3.7004,-3.7534,-3.794,-3.9366,-4.0273,-4.0384,-4.1832,-4.263,-4.2701,-4.321,-4.3463,-4.3515,-4.3515,-4.3532,-4.3566,-4.3972,-4.4428,-4.4973,-4.6209,-4.7087,-4.772,-4.8658,-4.9096,-4.9144,-4.9148,-4.9116,-4.8919,-4.7414,-4.6812,-4.667,-4.6049,-4.5716,-4.5745,-4.6964,-4.7184,-4.7051,-4.7385,-4.7381,-4.7205,-4.6957,-4.6566,-4.6112,-4.5709,-4.5266,-4.4889,-4.462,-4.4423,-4.4091,-4.3362,-4.4094,-4.4647,-4.38,-4.4599,-4.5156,-4.4432,-4.3949,-4.3562,-4.3258,-4.35,-4.3741,-4.3741,-4.4389,-4.4716,-4.4337,-4.4311,-4.4311,-4.4311,-4.4311,-4.3983,-4.3207,-4.3534,-4.3241,-4.2085,-4.2396,-4.2578,-4.2504,-4.29,-4.3089,-4.3055,-4.2852,-4.2989,-4.3477,-4.3417,-4.3906,0.0,0.0,0.0,0.0,0.0,-3.3882,0.0,0.0,0.0,-3.599,-3.5438,0.0,0.0,0.0,0.0,0.0,0.0,0.0,0.0,-3.4872,0.0,-3.3933,-3.4505,-3.4631,-3.3539,-3.4219,-3.5095,-3.5962,-3.6238,-3.6546,-3.6916,-3.8087,-3.8883,-3.9138,-4.0817,-4.1869,-4.2265,-4.3011,-4.3429,-4.3515,-4.3515,-4.3549,-4.3599,-4.3599,-4.4034,-4.4836,-4.5831,-4.6761,-4.7681,-4.8768,-4.9292,-4.9368,-4.9214,-4.9116,-4.8937,-4.7675,-4.7165,-4.6984,-4.6158,-4.5626,-4.5491,-4.664,-4.6783,-4.6603,-4.7248,-4.7205,-4.6911,-4.6749,-4.6308,-4.5837,-4.5477,-4.4981,-4.453,-4.4281,-4.4037,-4.365,-4.2942,-4.3726,-4.4334,-4.3525,-4.4416,-4.5138,-4.457,-4.4285,-4.4001,-4.3639,-4.3975,-4.4138,-4.369,-4.4665,-4.488,-4.3552,-4.3974,-4.4267,-4.4112,-4.4112,-4.4043,-4.3905,-4.4138,-4.3897,-4.3,-4.3241,-4.3345,-4.3189,-4.344,-4.3526,-4.3414,-4.4001,-4.4551,-4.5007,-4.4534,-4.4759,0.0,0.0,0.0,0.0,-3.5095,0.0,0.0,0.0,-3.5155,-3.566,0.0,0.0,0.0,0.0,0.0,0.0,0.0,0.0,-3.0677,-3.105,-3.1352,-3.1146,-3.2297,-3.2769,-3.1861,-3.302,-3.3854,-3.3932,-3.4999,-3.5643,-3.5704,-3.7558,-3.9059,-4.002,-4.1107,-4.2196,-4.323,-4.3339,-4.3429,-4.3515,-4.3515,-4.3549,-4.3599,-4.3599,-4.3754,-4.4122,-4.576,-4.6594,-4.6953,-4.8605,-4.9308,-4.9305,-4.9352,-4.9225,-4.8807,-4.7058,-4.6245,-4.5975,-4.5846,-4.5128,-4.4661,-4.7009,-4.7512,-4.7194,-4.7209,-4.7025,-4.6749,-4.6357,-4.5963,-4.5503,-4.479,-4.4406,-4.4126,-4.3969,-4.3377,-4.2722,-4.2161,-4.2949,-4.3464,-4.261,-4.3853,-4.5069,-4.51,-4.4638,-4.4449,-4.4886,-4.4595,-4.4518,-4.5096,-4.5294,-4.5096,-4.4259,-4.4353,-4.4204,-4.3469,-4.34,-4.3123,-4.249,-4.3619,-4.3655,-4.2206,-4.3448,-4.3862,-4.3207,-4.4371,-4.4715,-4.4173,-4.4775,-4.4844,-4.4423,-4.4861,-4.5188,0.0,0.0,0.0,0.0,0.0,0.0,-3.5865,0.0,-3.5544,0.0,0.0,0.0,0.0,0.0,0.0,0.0,-3.1063,0.0,0.0,0.0,-2.942,0.0,0.0,0.0,-3.1353,-3.1966,-3.2699,-3.3546,-3.4134,-3.4677,-3.5192,-3.6175,-3.7422,-3.8917,-3.9654,-4.0835,-4.2503,-4.2575,-4.2899,-4.3548,-4.3548,-4.3632,-4.3783,-4.3783,-4.414,-4.4801,-4.5507,-4.647,-4.7616,-4.8312,-4.8628,-4.8659,-4.8612,-4.8453,-4.8032,-4.6212,-4.5676,-4.5792,-4.5279,-4.502,-4.5134,-4.6476,-4.7086,-4.7276,-4.7116,-4.6795,-4.6317,-4.5732,-4.5336,-4.4878,-4.4061,-4.3905,-4.3939,-4.3763,-4.3543,-4.3227,-4.2663,-4.3455,-4.4062,-4.325,-4.419,-4.5086,-4.4978,-4.4829,-4.4833,-4.5249,-4.5095,-4.4915,-4.4872,-4.5252,-4.4915,-4.3353,-4.4051,-4.4302,-4.3478,-4.3826,-4.4113,-4.4152,-4.4647,-4.4647,-4.4009,-4.4596,-4.4803,-4.4492,-4.4947,-4.5102,-4.4941,-4.5119,-4.5102,-4.4941,-4.5216,-4.5397,-3.6895,0.0,0.0,0.0,0.0,0.0,0.0,0.0,0.0,0.0,0.0,0.0,0.0,0.0,0.0,0.0,0.0,-2.895,0.0,-2.8101,0.0,0.0,0.0,0.0,0.0,-3.0827,-3.1336,-3.2496,-3.2949,-3.3514,-3.4271,-3.4999,-3.6173,-3.7827,-3.8441,-3.9768,-4.1922,-4.1975,-4.2534,-4.3599,-4.3599,-4.3718,-4.3897,-4.3897,-4.4326,-4.5078,-4.527,-4.629,-4.7796,-4.7769,-4.7885,-4.8019,-4.7479,-4.7099,-4.6714,-4.5394,-4.5293,-4.5718,-4.5058,-4.5362,-4.6053,-4.6125,-4.6665,-4.7249,-4.7066,-4.6637,-4.6063,-4.547,-4.4975,-4.4444,-4.3523,-4.3394,-4.3444,-4.3065,-4.3165,-4.3177,-4.278,-4.3597,-4.4262,-4.3719,-4.4429,-4.5032,-4.4831,-4.4923,-4.5113,-4.5264,-4.5344,-4.5243,-4.4853,-4.5286,-4.493,-4.3228,-4.406,-4.4433,-4.3624,-4.4053,-4.4615,-4.5217,-4.5165,-4.5173,-4.538,-4.5397,-4.5397,-4.5397,-4.5274,-4.5274,-4.5397,-4.5274,-4.5274,-4.5397,-4.5397,-4.545,0.0,0.0,0.0,-3.8457,0.0,0.0,0.0,0.0,-3.756,0.0,0.0,0.0,0.0,0.0,0.0,0.0,0.0,0.0,0.0,0.0,0.0,0.0,0.0,0.0,0.0,-2.9453,-2.9619,0.0,-3.1163,-3.2068,-3.2545,-3.4367,-3.5987,-3.7282,-3.8158,-3.9695,-4.1975,-4.1993,-4.2534,-4.3599,-4.3599,-4.3718,-4.3897,-4.3897,-4.4029,-4.4292,-4.5133,-4.5966,-4.6766,-4.6899,-4.7258,-4.757,-4.6009,-4.5127,-4.4781,-4.4726,-4.5077,-4.5603,-4.5507,-4.6325,-4.727,-4.6316,-4.6556,-4.7196,-4.7043,-4.6637,-4.6137,-4.5852,-4.5152,-4.4277,-4.3272,-4.2765,-4.2369,-4.1657,-4.1609,-4.1811,-4.1899,-4.2728,-4.3453,-4.342,-4.4166,-4.4803,-4.4803,-4.5005,-4.5167,-4.5032,-4.522,-4.5432,-4.5546,-4.5589,-4.5355,-4.4689,-4.4796,-4.4589,-4.3744,-4.3613,-4.3766,-4.4319,-4.4345,-4.4647,-4.5363,-4.5397,-4.5397,-4.5397,-4.5274,-4.5274,-4.5397,-4.5274,-4.5274,-4.5397,-4.5397,-4.5397,0.0,0.0,-3.9382,-3.9557,0.0,0.0,0.0,0.0,0.0,0.0,0.0,0.0,0.0,0.0,0.0,0.0,0.0,0.0,0.0,0.0,0.0,0.0,0.0,0.0,0.0,0.0,0.0,-2.9546,-3.0695,0.0,-3.215,-3.2988,-3.4575,-3.7022,-3.7035,-3.8349,-4.1173,-4.1296,-4.1886,-4.2941,-4.3393,-4.3732,-4.3958,-4.3913,-4.4308,-4.4966,-4.4637,-4.5333,-4.6657,-4.6094,-4.5943,-4.6032,-4.5273,-4.4515,-4.3901,-4.3812,-4.4126,-4.4734,-4.5642,-4.6585,-4.7306,-4.69,-4.6981,-4.7129,-4.6708,-4.6284,-4.5757,-4.488,-4.4497,-4.4035,-4.2646,-4.25,-4.2468,-4.1591,-4.2004,-4.2568,-4.2624,-4.3529,-4.4302,-4.4209,-4.4523,-4.4776,-4.4682,-4.4886,-4.5086,-4.514,-4.5291,-4.5476,-4.5693,-4.5641,-4.5415,-4.49,-4.5217,-4.5192,-4.4425,-4.4684,-4.4957,-4.5139,-4.5096,-4.5147,-4.538,-4.5397,-4.5371,-4.5274,-4.522,-4.522,-4.5274,-4.522,-4.5274,-4.5397,-4.5397,-4.5397,-4.1379,-4.1209,0.0,-4.0958,-4.0411,0.0,-3.9229,0.0,-3.8223,0.0,0.0,0.0,0.0,0.0,0.0,0.0,0.0,0.0,0.0,-2.6285,0.0,0.0,0.0,0.0,0.0,0.0,-2.8405,-2.9242,-2.9916,0.0,0.0,-3.2275,-3.366,-3.6097,-3.6164,-3.747,-4.0231,-4.068,-4.1466,-4.2601,-4.3281,-4.3749,-4.4005,-4.3929,-4.4289,-4.4929,-4.4278,-4.4845,-4.6162,-4.5207,-4.4927,-4.5066,-4.4532,-4.4086,-4.3707,-4.3616,-4.4119,-4.5003,-4.6151,-4.6859,-4.7249,-4.7156,-4.7133,-4.7043,-4.6542,-4.6112,-4.5605,-4.469,-4.4164,-4.3581,-4.2261,-4.1961,-4.1816,-4.0995,-4.1716,-4.2646,-4.2729,-4.377,-4.4676,-4.4598,-4.4682,-4.4709,-4.4598,-4.4831,-4.5032,-4.5113,-4.5274,-4.5502,-4.5787,-4.5667,-4.5545,-4.5383,-4.5668,-4.5655,-4.5159,-4.5389,-4.5607,-4.5607,-4.5476,-4.5423,-4.5476,-4.5423,-4.5344,-4.5203,-4.5203,-4.5203,-4.5203,-4.5203,-4.5274,-4.5397,-4.5397,-4.5397]},{"header":{"parameterUnit":"m.s-1","parameterCategory":1,"la1":30.6,"la2":29.2853,"lo1":-89.7004,"lo2":-87.6739,"dy":0.0162,"dx":0.0183,"nx":112,"ny":82,"refTime":"2026-05-23T00:00:00:Z","depth":0,"parameterNumber":3,"parameterNumberName":"V-component_of_WINDS"},"data":[0.0,0.0,0.0,0.0,0.0,0.0,0.0,0.0,0.0,0.0,0.0,0.0,0.0,0.0,0.0,0.0,0.0,0.0,0.0,0.0,0.0,0.0,0.0,0.0,0.0,0.0,0.0,0.0,0.0,0.0,0.0,0.0,0.0,0.0,0.0,0.0,0.0,0.0,0.0,0.0,0.0,0.0,0.0,0.0,0.0,0.0,0.0,0.0,0.0,0.0,0.0,0.0,0.0,0.0,0.0,0.0,0.0,0.0,0.0,0.0,0.0,0.0,0.0,0.0,0.0,0.0,0.0,0.0,0.0,0.0,0.0,0.0,0.0,0.0,0.0,0.0,0.0,0.0,0.0,0.0,0.0,0.0,0.0,0.0,0.0,0.0,0.0,0.0,0.0,0.0,0.7488,0.7606,0.7702,0.7712,0.7596,0.8436,0.8522,0.7581,0.0,0.0,0.0,0.0,0.0,0.0,0.0,0.0,0.0,0.0,0.0,0.0,0.0,0.0,0.0,0.0,0.0,0.0,0.0,0.0,0.0,0.0,0.0,0.0,0.0,0.0,0.0,0.0,0.0,0.0,0.0,0.0,0.0,0.0,0.0,0.0,0.0,0.0,0.0,0.0,0.0,0.0,0.0,0.0,0.0,0.0,0.0,0.0,0.0,0.0,0.0,0.0,0.0,0.0,0.0,0.0,0.0,0.0,0.0,0.0,0.0,0.0,0.0,0.0,0.0,0.0,0.0,0.0,0.0,0.0,0.0,0.0,0.0,0.0,0.0,0.0,0.0,0.0,0.0,0.0,0.0,0.0,0.0,0.0,0.0,0.0,0.0,0.0,0.0,0.0,0.0,0.0,0.0,0.0,0.0,0.0,0.0,0.0,0.0,0.0,0.0,0.0,0.0,0.0,0.7584,0.7679,0.7843,0.807,0.8371,0.8556,0.8449,0.8025,0.0,0.0,0.0,0.0,0.0,0.0,0.0,0.0,0.0,0.0,0.0,0.0,0.0,0.0,0.0,0.0,0.0,0.0,0.0,0.0,0.0,0.0,0.0,0.0,0.0,0.0,0.0,0.0,0.0,0.0,0.0,0.0,0.0,0.0,0.0,0.0,0.0,0.0,0.0,0.0,0.0,0.0,0.0,0.0,0.0,0.0,0.0,0.0,0.0,0.0,0.0,0.0,0.0,0.0,0.0,0.0,0.0,0.0,0.0,0.0,0.0,0.0,0.0,0.0,0.0,0.0,0.0,0.0,0.0,0.0,0.0,0.0,0.0,0.0,0.0,0.0,0.0,0.0,0.0,0.0,0.0,0.0,0.0,0.0,0.0,0.0,0.0,0.0,0.0,0.0,0.0,0.0,0.0,0.0,0.0,0.0,0.0,0.0,0.0,0.0,0.0,0.0,0.0,0.826,0.8182,0.805,0.8212,0.8402,0.859,0.8986,0.9014,0.8402,0.871,0.0,0.0,0.0,0.0,0.0,0.0,0.0,0.0,0.0,0.0,0.0,0.0,0.0,0.0,0.0,0.0,0.0,0.0,0.0,0.0,0.0,0.0,0.0,0.0,0.0,0.0,0.0,0.0,0.0,0.0,0.0,0.0,0.0,0.0,0.0,0.0,0.0,0.0,0.0,0.0,0.0,0.0,0.0,0.0,0.0,0.0,0.0,0.0,0.0,0.0,0.0,0.0,0.0,0.0,0.0,0.0,0.0,0.0,0.0,0.0,0.0,0.0,0.0,0.0,0.0,0.0,0.0,0.0,0.0,0.0,0.0,0.0,0.0,0.0,0.0,0.0,0.0,0.0,0.0,0.0,0.0,0.0,0.0,0.0,0.0,0.0,0.0,0.0,0.0,0.0,0.0,0.0,0.0,0.0,0.0,0.0,0.0,0.0,0.0,0.0,0.0,0.0,0.8656,0.8631,0.8325,0.848,0.8638,0.8747,0.9257,0.9369,0.8796,0.9011,0.0,0.0,0.0,0.0,0.0,0.0,0.0,0.0,0.0,0.0,0.0,0.0,0.0,0.0,0.0,0.0,0.0,0.0,0.0,0.0,0.0,0.0,0.0,0.0,0.0,0.0,0.0,0.0,0.0,0.0,0.0,0.0,0.0,0.0,0.0,0.0,0.0,0.0,0.0,0.0,0.0,0.0,0.0,0.0,0.0,0.0,0.0,0.0,0.0,0.0,0.0,0.0,0.0,0.0,0.0,0.0,0.0,0.0,0.0,0.0,0.0,0.0,0.0,0.0,0.0,0.0,0.0,0.0,0.0,0.0,0.0,0.0,0.0,0.0,0.0,0.0,0.0,0.0,0.0,0.0,0.0,0.0,0.0,0.0,0.0,0.0,0.0,0.0,0.0,0.0,0.0,0.0,0.0,0.0,0.0,0.0,0.0,0.0,0.0,0.0,0.0,0.0,0.8597,0.8524,0.8315,0.8469,0.878,0.9196,0.9056,0.9062,0.9223,0.8935,0.0,0.0,0.0,0.0,0.0,0.0,0.0,0.0,0.0,0.0,0.0,0.0,0.0,0.0,0.0,0.0,0.0,0.0,0.0,0.0,0.0,0.0,0.0,0.0,0.0,0.0,0.0,0.0,0.0,0.0,0.0,0.0,0.0,0.0,0.0,0.0,0.0,0.0,0.0,0.0,0.0,0.0,0.0,0.0,0.0,0.0,0.0,0.0,0.0,0.0,0.0,0.0,0.0,0.0,0.0,0.0,0.0,0.0,0.0,0.0,0.0,0.0,0.0,0.0,0.0,0.0,0.0,0.0,0.0,0.0,0.0,0.0,0.0,0.0,0.0,0.0,0.0,0.0,0.0,0.0,0.0,0.0,0.0,0.0,0.0,0.0,0.0,0.0,0.0,0.0,0.0,0.0,0.0,0.0,0.0,0.0,0.0,0.0,0.0,0.0,0.0,0.0,0.859,0.8394,0.0,0.8587,0.8911,0.9262,0.9432,0.9497,0.9473,0.0,0.0,0.0,0.0,0.0,0.0,0.0,0.0,0.0,0.0,0.0,0.0,0.0,0.0,0.0,0.0,0.0,0.0,0.0,0.0,0.0,0.0,0.0,0.0,0.0,0.0,0.0,0.0,0.0,0.0,0.0,0.0,0.0,0.0,0.0,0.0,0.0,0.0,0.0,0.0,0.0,0.0,0.0,0.0,0.0,0.0,0.0,0.0,0.0,0.0,0.0,0.0,0.0,0.0,0.0,0.0,0.0,0.0,0.0,0.0,0.0,0.0,0.0,0.0,0.0,0.0,0.0,0.0,0.0,0.0,0.0,0.0,0.0,0.0,0.0,0.0,0.0,0.0,0.0,0.0,0.0,0.0,0.0,0.0,0.0,0.0,0.0,0.0,0.0,0.0,0.0,0.0,0.0,0.0,0.0,0.0,0.0,0.0,0.0,0.0,0.0,0.0,0.8956,0.8765,0.8561,0.0,0.8788,0.9084,0.9354,0.9671,0.982,0.9697,0.0,0.0,0.0,0.0,0.0,0.0,0.0,0.0,0.0,0.0,0.0,0.0,0.0,0.0,0.0,0.0,0.0,0.0,0.0,0.0,0.0,0.0,0.0,0.0,0.0,0.0,0.0,0.0,0.0,0.0,0.0,0.0,0.0,0.0,0.0,0.0,0.0,0.0,0.0,0.0,0.0,0.0,0.0,0.0,0.0,0.0,0.0,0.0,0.0,0.0,0.0,0.0,0.0,0.0,0.0,0.0,0.0,0.0,0.0,0.0,0.0,0.0,0.0,0.0,0.0,0.0,0.0,0.0,0.0,0.0,0.0,0.0,0.0,0.0,0.0,0.0,0.0,0.0,0.0,0.0,0.0,0.0,0.0,0.0,0.0,0.0,0.0,0.0,0.0,0.0,0.0,0.0,0.0,0.0,0.0,0.0,0.0,0.0,0.0,0.0,0.0,0.0,0.8995,0.913,0.9117,0.8829,0.9046,0.9276,0.9511,0.976,0.9893,0.0,0.0,0.0,0.0,0.0,0.0,0.0,0.0,0.0,0.0,0.0,0.0,0.0,0.0,0.0,0.0,0.0,0.0,0.0,0.0,0.0,0.0,0.0,0.0,0.0,0.0,0.0,0.0,0.0,0.0,0.0,0.0,0.0,0.0,0.0,0.0,0.0,0.0,0.0,0.0,0.0,0.0,0.0,0.0,0.0,0.0,0.0,0.0,0.0,0.0,0.0,0.0,0.0,0.0,0.0,0.0,0.0,0.0,0.0,0.0,0.0,0.0,0.0,0.0,0.0,0.0,0.0,0.0,0.0,0.0,0.0,0.0,0.0,0.0,0.0,0.0,0.0,0.0,0.0,0.0,0.0,0.0,0.0,0.0,0.0,0.0,0.0,0.0,0.0,0.0,0.0,0.0,0.0,0.0,0.0,0.0,0.0,0.0,0.0,0.0,0.0,0.0,0.0,0.916,0.908,0.8936,0.8829,0.93,0.9651,0.9791,1.0332,1.0517,1.0187,0.0,0.0,0.0,0.0,0.0,0.0,0.0,0.0,0.0,0.0,0.0,0.0,0.0,0.0,0.0,0.0,0.0,0.0,0.0,0.0,0.0,0.0,0.0,0.0,0.0,0.0,0.0,0.0,0.0,0.0,0.0,0.0,0.0,0.0,0.0,0.0,0.0,0.0,0.0,0.0,0.0,0.0,0.0,0.0,0.0,0.0,0.0,0.0,0.0,0.0,0.0,0.0,0.0,0.0,0.0,0.0,0.0,0.0,0.0,0.0,0.0,0.0,0.0,0.0,0.0,0.0,0.0,0.0,0.0,0.0,0.0,0.0,0.0,0.0,0.0,0.0,0.0,0.0,0.0,0.0,0.0,0.0,0.0,0.0,0.0,0.0,0.0,0.0,0.0,0.0,0.0,0.0,0.0,0.0,0.0,0.0,0.0,0.0,0.0,0.0,0.0,0.0,0.9463,0.9461,0.9385,0.9225,0.9741,1.0095,1.0117,1.0593,1.0733,1.0454,0.0,0.0,0.0,0.0,0.0,0.0,0.0,0.0,0.0,0.0,0.0,0.0,0.0,0.0,0.0,0.0,0.0,0.0,0.0,0.0,0.0,0.0,0.0,0.0,0.0,0.0,0.0,0.0,0.0,0.0,0.0,0.0,0.0,0.0,0.0,0.0,0.0,0.0,0.0,0.0,0.0,0.0,0.0,0.0,0.0,0.0,0.0,0.0,0.0,0.0,0.0,0.0,0.0,0.0,0.0,0.0,0.0,0.0,0.0,0.0,0.0,0.0,0.0,0.0,0.0,0.0,0.0,0.0,0.0,0.0,0.0,0.0,0.0,0.0,0.0,0.0,0.0,0.0,0.0,0.0,0.0,0.0,0.0,0.0,0.0,0.0,0.0,0.0,0.0,0.0,0.0,0.0,0.0,0.0,0.0,0.0,0.0,0.0,0.0,0.0,0.0,0.0,0.9822,1.0051,1.0104,0.9841,1.0236,1.0537,1.0562,1.0619,1.0647,1.0676,0.0,0.0,0.0,0.0,0.0,0.0,0.0,0.0,0.0,0.0,0.0,0.0,0.0,0.0,0.0,0.0,0.0,0.0,0.0,0.0,0.0,0.0,0.0,0.0,0.0,0.0,0.0,0.0,0.0,0.0,0.0,0.0,0.0,0.0,0.0,0.0,0.0,0.0,0.0,0.0,0.0,0.0,0.0,0.0,0.0,0.0,0.0,0.0,0.0,0.0,0.0,0.0,0.0,0.0,0.0,0.0,0.0,0.0,0.0,0.0,0.8074,0.7447,0.0,0.0,0.0,0.0,0.0,0.0,0.0,0.0,0.0,0.0,0.0,0.0,0.0,0.0,0.0,0.0,0.0,0.0,0.0,0.0,0.0,0.0,0.0,0.0,0.0,0.0,0.0,0.0,0.0,0.0,0.0,0.0,0.0,0.0,0.0,0.0,0.0,0.0,0.0,0.0,1.0091,1.0178,1.015,1.007,1.0448,1.0824,1.1048,1.0934,1.0935,1.1159,1.0771,0.0,0.0,0.0,0.0,0.0,0.0,0.0,0.0,0.0,0.0,0.0,0.0,0.0,0.0,0.0,0.0,0.0,0.0,0.0,0.0,0.0,0.0,0.0,0.0,0.0,0.0,0.0,0.0,0.0,0.0,0.0,0.0,0.0,0.0,0.0,0.0,0.0,0.0,0.0,0.0,0.0,0.0,0.0,0.0,0.0,0.0,0.0,0.0,0.0,0.0,0.0,0.0,0.0,0.0,0.0,0.0,0.0,0.0,0.0,0.8653,0.8263,0.0,0.0,0.0,0.0,0.0,0.0,0.0,0.0,0.0,0.0,0.0,0.0,0.0,0.0,0.0,0.0,0.0,0.0,0.0,0.0,0.0,0.0,0.0,0.0,0.0,0.0,0.0,0.0,0.0,0.0,0.0,0.0,0.0,0.0,0.0,0.0,0.0,0.0,0.0,0.0,1.0315,1.035,1.0385,1.0408,1.0786,1.1102,1.1385,1.1228,1.1236,1.1615,1.1284,0.0,0.0,0.0,0.0,0.0,0.0,0.0,0.0,0.0,0.0,0.0,0.0,0.0,0.0,0.0,0.0,0.0,0.0,0.0,0.0,0.0,0.0,0.0,0.0,0.0,0.0,0.0,0.0,0.0,0.0,0.0,0.0,0.0,0.0,0.0,0.0,0.0,0.0,0.0,0.0,0.0,0.0,0.0,0.0,0.0,0.0,0.0,0.0,0.0,0.0,0.0,0.0,0.0,1.1138,1.0668,0.9949,0.9831,0.9602,0.9271,0.9277,0.9135,0.8835,0.8689,0.0,0.0,0.0,0.0,0.0,0.0,0.0,0.0,0.0,0.0,0.0,0.0,0.0,0.0,0.0,0.0,0.0,0.0,0.0,0.0,0.0,0.0,1.0589,1.0183,1.1035,1.1689,1.1071,0.0,0.0,0.0,0.0,0.0,0.0,0.0,0.0,0.0,0.0,0.0,1.0671,1.0661,1.0726,1.0863,1.1096,1.1394,1.1639,1.1456,1.151,1.2054,1.174,1.166,0.0,0.0,0.0,0.0,0.0,0.0,0.0,0.0,0.0,0.0,0.0,0.0,0.0,0.0,0.0,0.0,0.0,0.0,0.0,0.0,0.0,0.0,0.0,0.0,0.0,0.0,0.0,0.0,0.0,0.0,0.0,0.0,0.6105,0.6177,0.0,0.0,0.0,0.0,0.0,0.0,0.0,0.0,0.0,0.0,0.0,0.0,0.0,1.2058,1.2585,1.207,1.2112,1.2722,1.2054,1.1719,1.1641,1.1256,1.0925,1.0634,1.022,0.0,0.8714,0.8682,0.0,0.0,0.0,0.0,0.0,0.0,0.0,0.0,0.0,0.0,0.0,0.0,0.0,0.0,0.0,0.0,0.0,0.0,0.0,0.0,0.0,0.0,1.1022,1.0603,1.1175,1.1964,1.2563,1.2697,1.2812,1.3093,1.2406,1.1859,0.0,0.0,0.0,0.0,0.0,0.0,1.1381,1.1119,1.0938,1.1121,1.1389,1.1639,1.1932,1.1544,1.1615,1.2318,1.1706,1.1558,1.1981,1.2499,0.0,0.0,0.0,0.0,0.0,0.0,0.0,0.0,0.0,0.0,0.0,0.0,0.0,0.0,0.0,0.0,0.0,0.0,0.0,0.0,0.0,0.0,0.0,0.0,0.0,0.0,0.0,0.0,0.0,0.6758,0.6708,0.6604,0.6878,0.7215,0.0,0.0,0.0,0.0,0.0,0.0,0.0,0.0,0.0,1.228,1.2005,1.2161,1.2849,1.2607,1.2531,1.2662,1.2303,1.1881,1.1436,1.107,1.0755,1.0477,1.0292,0.9958,0.9534,0.9306,0.9523,0.9973,0.0,0.0,0.0,0.0,1.1645,1.212,1.2014,1.2354,1.2754,1.2331,0.0,0.0,0.0,0.0,0.0,0.0,0.0,1.149,1.1648,1.1589,1.1388,1.1251,1.1771,1.2579,1.3467,1.3922,1.4246,1.4547,1.3782,1.2994,1.2724,1.2083,0.0,0.0,0.0,1.1258,1.1218,1.101,1.0972,1.1175,1.1438,1.1731,1.198,1.1943,1.211,1.259,1.2187,1.2046,1.2385,1.2839,1.3166,0.0,0.0,0.0,0.0,0.0,0.0,0.0,0.0,0.0,0.0,0.0,0.0,0.0,0.0,0.0,0.0,0.0,0.0,0.0,0.0,0.0,0.0,0.0,0.0,0.0,0.0,0.0,0.0,0.7142,0.7237,0.7036,0.7354,0.7739,0.0,0.0,0.0,0.0,0.0,0.0,1.1543,1.1763,1.2189,1.2843,1.2335,1.2403,1.3212,1.2974,1.2851,1.2838,1.257,1.2119,1.1522,1.113,1.0829,1.0543,1.0402,1.0402,1.0416,1.0012,1.0171,1.0712,1.0753,1.1048,1.1489,1.2047,1.2494,1.2842,1.2719,1.3026,1.3442,1.3103,1.3114,1.3153,1.2916,0.0,0.0,0.0,0.0,1.2035,1.2127,1.2046,1.1877,1.1826,1.2089,1.2603,1.3625,1.4166,1.479,1.5873,1.5069,1.4025,1.3439,1.2642,0.0,0.0,0.0,1.141,1.1216,1.1158,1.1259,1.1457,1.1771,1.2028,1.2165,1.2402,1.2566,1.2814,1.2498,1.2417,1.268,1.3026,1.3374,1.362,0.0,0.0,0.0,0.0,0.0,0.0,0.0,0.0,0.0,0.0,0.0,0.0,0.0,0.0,0.0,0.0,0.0,0.0,0.0,0.0,0.0,0.0,0.0,0.0,0.0,0.0,0.0,0.0,0.0,0.7288,0.7482,0.0,0.0,0.0,0.0,0.939,1.064,1.1576,1.2043,1.2535,1.2983,1.333,1.3068,1.3246,1.3865,1.3073,1.3198,1.4124,1.3141,1.2776,1.2947,1.228,1.1799,1.1507,1.097,1.0921,1.1132,1.0712,1.0702,1.1009,1.1211,1.1663,1.2256,1.2359,1.2659,1.3011,1.3061,1.328,1.3543,1.375,1.3818,1.3671,1.313,1.2929,0.0,0.0,1.3162,1.2965,1.3111,1.2922,1.2615,1.218,1.1722,1.1641,1.2651,1.2646,1.3453,1.6938,1.5927,1.4569,1.4785,0.0,1.1666,1.1551,1.1365,1.1411,1.1866,1.19,1.1943,1.2204,1.2699,1.2939,1.2704,1.2741,1.2806,1.2814,1.2297,1.2243,1.2674,1.2708,1.2993,1.349,1.386,0.0,0.0,0.0,0.0,0.0,0.0,0.0,0.0,0.0,0.0,0.0,0.0,0.0,0.0,0.0,0.0,0.0,0.0,0.0,0.0,0.0,0.0,0.0,0.0,0.0,0.0,0.0,0.0,0.7832,0.8227,0.0,0.8623,0.9282,0.9906,1.0385,1.1455,1.2389,1.296,1.3199,1.343,1.3727,1.33,1.3337,1.3882,1.3638,1.358,1.376,1.3225,1.2736,1.237,1.1927,1.1688,1.159,1.1198,1.1194,1.1429,1.1322,1.128,1.1399,1.1659,1.2226,1.2913,1.323,1.3579,1.3838,1.3666,1.3777,1.3921,1.3847,1.3808,1.3753,1.3565,1.3407,1.3298,1.344,1.3285,1.3119,1.3136,1.2979,1.2744,1.2569,1.2268,1.2188,1.2837,1.2919,1.3372,1.5338,1.4541,1.3955,1.5327,1.3496,1.1956,1.2073,1.1912,1.1647,1.1477,1.1604,1.1811,1.2008,1.2395,1.2607,1.2709,1.2879,1.2883,1.2555,1.2235,1.2106,1.2236,1.2249,1.2745,1.3723,1.4123,1.4515,0.0,0.0,0.0,0.0,0.0,0.0,0.0,0.0,0.0,0.0,0.0,0.0,0.0,0.0,0.0,0.0,0.0,0.0,0.0,0.0,0.0,0.0,0.0,0.0,0.0,0.0,0.8494,0.8429,0.8886,0.9268,0.9399,0.9898,1.0443,1.1108,1.2054,1.2782,1.3222,1.3599,1.3818,1.3924,1.3576,1.3564,1.4016,1.396,1.385,1.375,1.3502,1.3143,1.2779,1.2332,1.2176,1.2208,1.1855,1.1755,1.185,1.1831,1.1904,1.1955,1.2267,1.2802,1.3485,1.3908,1.4141,1.4242,1.3975,1.404,1.4196,1.3932,1.3831,1.3831,1.3739,1.3547,1.338,1.3561,1.3432,1.324,1.3435,1.3208,1.2905,1.3017,1.271,1.2511,1.2791,1.298,1.3431,1.4527,1.4142,1.3944,1.5021,1.3769,1.2574,1.2373,1.224,1.1968,1.1497,1.1747,1.1999,1.2003,1.2339,1.2551,1.257,1.2736,1.2724,1.2429,1.2218,1.2127,1.2254,1.2193,1.2665,1.3722,1.4433,1.5103,1.5738,0.0,0.0,0.0,0.0,0.0,0.0,0.0,0.0,0.0,0.0,0.0,0.0,0.0,0.0,0.0,0.0,0.0,0.0,0.0,0.0,0.0,0.0,0.0,0.8599,0.8793,0.8955,0.9037,0.937,0.9673,0.9743,1.0368,1.0932,1.1397,1.2331,1.2823,1.2839,1.379,1.4192,1.3937,1.3937,1.4076,1.431,1.4082,1.4087,1.4322,1.4045,1.4035,1.4275,1.3469,1.3249,1.348,1.2962,1.2545,1.2324,1.2319,1.2456,1.2654,1.3002,1.3455,1.3992,1.4273,1.4345,1.4289,1.4043,1.4093,1.4274,1.3997,1.3906,1.3858,1.3611,1.332,1.3219,1.3754,1.3549,1.3322,1.4112,1.3745,1.3223,1.3465,1.298,1.244,1.244,1.2764,1.3505,1.4826,1.491,1.4569,1.4089,1.3893,1.3513,1.2515,1.2314,0.0,1.2006,1.236,1.2549,1.2324,1.2771,1.2863,1.2339,1.2369,1.2375,1.237,1.2177,1.2306,1.2739,1.2548,1.278,1.3525,1.4687,1.5665,1.6382,0.0,0.0,0.0,0.0,0.0,0.0,0.0,0.0,0.0,0.0,0.0,0.0,0.0,0.0,0.0,0.0,0.0,0.0,0.0,0.0,0.0,0.9019,0.8986,0.872,0.9116,0.9466,0.9714,1.0105,1.0533,1.09,1.1412,1.1901,1.2368,1.313,1.3784,1.4175,1.4454,1.4562,1.4502,1.4461,1.4588,1.4875,1.4985,1.4992,1.4883,1.479,1.4518,1.4021,1.3768,1.3609,1.3475,1.3116,1.2962,1.2905,1.2894,1.3007,1.3238,1.3336,1.3962,1.4835,1.5307,1.5476,1.5382,1.4914,1.484,1.4784,1.4333,1.4176,1.4126,1.3886,1.3741,1.3701,1.3869,1.3881,1.3987,1.4212,1.4127,1.3976,1.4076,1.3769,1.3371,1.2972,1.3023,1.3332,1.4139,1.4996,1.5654,1.5875,1.3992,1.2607,1.3117,1.2557,0.0,1.1741,1.1835,1.1934,1.2003,1.2123,1.2239,1.2279,1.2313,1.2157,1.1844,1.1956,1.2015,1.1936,1.2218,1.3043,1.4339,1.5035,1.5727,0.0,0.0,0.0,0.0,0.0,0.0,0.0,0.0,0.0,0.0,0.0,0.0,0.0,0.0,0.0,0.0,0.0,0.0,0.0,0.0,0.0,0.0,0.9483,0.9596,0.9562,0.9737,1.0053,1.0534,1.0904,1.1318,1.176,1.2192,1.2592,1.3062,1.3785,1.4256,1.4345,1.4802,1.4887,1.456,1.4765,1.4955,1.5091,1.5264,1.5301,1.5253,1.505,1.4747,1.4379,1.4126,1.398,1.3928,1.3666,1.3561,1.3551,1.3611,1.3789,1.4099,0.0,0.0,0.0,0.0,1.5757,1.5506,1.5208,1.5107,1.5005,1.4485,1.4282,1.4231,1.3833,1.3737,1.3759,1.3857,1.3859,1.3947,1.4207,1.4105,1.3981,1.4083,1.393,1.3674,1.3321,1.3521,1.4004,1.496,1.5492,0.0,1.691,1.5582,1.4132,1.3281,1.3078,1.2678,1.1707,1.1688,1.1737,1.1617,1.1731,1.1781,1.183,1.193,0.0,0.0,0.0,1.2076,1.2081,1.2569,0.0,0.0,0.0,0.0,0.0,0.0,0.0,0.0,1.5905,1.5669,0.0,0.0,0.0,0.0,0.0,0.0,0.0,0.0,0.0,0.0,0.0,0.0,0.0,0.0,0.0,0.0,0.995,1.028,1.0737,1.0623,1.0731,1.1405,1.1656,1.1941,1.2425,1.2726,1.3104,1.3491,1.4286,1.4564,1.4082,1.4992,0.0,0.0,0.0,1.5155,1.5233,1.523,1.5365,1.5586,1.5083,1.49,1.5065,1.4547,1.44,1.4606,1.4347,1.4234,1.4261,1.4325,1.4682,1.515,1.5011,1.5233,1.5646,1.5912,1.5661,1.5248,1.5197,0.0,0.0,1.4572,1.4367,1.4265,1.371,1.3561,1.3604,1.3803,1.3717,1.3713,1.4176,1.3972,1.371,1.3973,1.3819,1.3607,1.3613,1.4213,1.5143,1.6562,1.6412,1.64,1.7435,1.7536,1.643,1.3269,1.3585,1.3568,1.183,1.1829,1.1834,1.1296,0.0,0.0,1.1281,1.1423,1.1618,1.1892,1.2083,1.2369,1.2675,1.316,1.38,1.4592,1.508,1.5839,1.6817,1.6766,1.679,1.6869,1.6473,1.607,0.0,0.0,0.0,0.0,0.0,0.0,0.0,0.0,0.0,0.0,0.0,0.0,0.0,0.0,0.0,1.0372,1.0612,1.0984,1.1461,1.1673,1.1759,1.1895,1.2108,1.2474,1.2908,1.3414,1.3738,1.3835,1.4552,1.5078,1.5199,1.5363,1.5524,1.5606,1.5491,1.5631,1.6055,1.6061,1.6095,1.6163,1.5846,0.0,1.502,1.4913,1.4776,1.4606,1.4552,1.4498,1.4546,1.477,1.547,1.6352,1.6346,1.6392,1.6495,1.6548,1.6364,1.6063,1.5793,1.5588,1.5382,1.4999,1.4728,1.4461,1.4158,1.4056,0.0,1.411,1.4089,1.4169,1.4688,1.4607,1.4467,1.4733,1.4574,1.4307,1.4104,1.4887,1.5933,1.6885,1.764,1.806,1.7875,1.6229,1.4566,1.3485,1.3051,1.2513,1.1697,1.1829,1.1883,1.1536,1.159,1.1658,1.1744,1.1604,1.1594,1.1798,1.2117,1.2425,1.2675,1.2861,1.3286,1.4046,1.4553,1.5318,1.6343,1.6634,1.6773,1.6746,1.6661,1.6464,0.0,0.0,0.0,0.0,0.0,0.0,0.0,0.0,0.0,0.0,0.0,0.9716,0.9823,0.0,1.0824,1.0792,1.1098,1.1509,1.196,1.2169,1.2275,1.2401,1.272,1.3109,1.348,1.3738,1.3984,1.4266,1.4777,1.522,1.5475,1.5608,1.5721,1.5707,1.5701,1.5805,1.6122,1.6097,1.6076,1.6105,1.5678,1.5196,1.4821,1.4665,1.4509,1.4401,1.4401,1.4557,1.4874,1.5565,1.6205,1.673,1.7047,1.7054,1.6955,1.6955,1.6696,1.6271,1.6164,1.585,1.5428,1.5095,1.4713,1.439,1.4245,1.4083,1.3975,1.4137,1.4196,1.4299,1.4713,1.4713,1.4654,1.4767,1.4624,1.4375,1.4061,1.4733,1.5722,1.6703,1.7756,1.8465,1.8443,1.7106,1.5447,1.3738,1.3875,1.3551,1.1964,1.1855,1.19,1.1756,1.1555,1.1481,1.1702,1.166,1.1756,1.1964,1.2149,1.2374,1.2475,1.278,1.3259,1.3902,1.4302,1.4895,1.5738,1.6104,1.6204,1.6126,1.6349,1.644,0.0,0.0,0.0,0.0,0.0,0.0,0.0,0.0,0.9763,0.9775,1.0008,1.0286,1.0543,1.098,1.1269,1.1224,1.1605,1.2012,1.2336,1.253,1.2697,1.2911,1.3343,1.3642,1.3883,1.3978,1.4242,1.4653,1.5053,1.5349,1.5585,1.5814,1.5897,1.5682,1.5836,1.5954,1.6002,1.5895,1.5838,1.5832,1.5196,1.4767,1.4498,1.4299,1.4196,1.4191,1.4509,1.4773,1.5196,1.6418,1.6895,1.6842,1.7371,1.7483,1.7279,1.7232,1.6808,1.6324,1.6324,1.5903,1.5374,1.5095,1.4606,1.4121,1.4191,1.3975,1.3753,1.4083,1.4196,1.4245,1.4606,1.4659,1.4595,1.4604,1.4442,1.4187,1.3818,1.4516,1.5525,1.6423,1.7534,1.8431,1.9,1.851,1.7143,1.4406,1.5127,1.5064,1.2435,1.2304,1.2329,1.1981,1.162,1.1506,1.172,1.1874,1.2102,1.2235,1.2402,1.2415,1.2379,1.2795,1.3286,1.3811,1.41,1.4522,1.5192,1.5524,1.5613,1.5472,1.5988,1.6259,1.1863,1.1553,1.1147,1.0676,1.0197,0.9834,0.0,0.0,0.9787,1.0379,1.0385,1.0546,1.14,1.1592,1.1695,1.1866,1.2339,1.2607,1.2409,1.3003,1.3496,1.3532,1.3719,1.3883,1.3883,1.4338,1.4635,1.4714,1.5403,1.5807,1.5869,1.6098,1.6227,1.6227,1.6039,1.6039,1.6227,1.5785,1.5523,1.5559,1.4922,1.4504,1.4245,1.4191,1.4196,1.4245,1.5512,1.5826,1.5559,1.7166,1.7595,1.7173,1.7483,1.7582,1.7536,1.7279,1.6808,1.6324,1.6324,1.5737,1.5041,1.4987,1.445,1.3807,1.4083,1.3975,1.3753,1.4083,1.4196,1.4299,1.4826,1.4767,1.4604,1.4662,1.4483,1.4137,1.3664,1.4904,1.6186,1.6343,1.752,1.8728,1.9336,1.9118,1.8168,1.6184,1.6086,1.5441,1.3148,1.378,1.3818,1.2346,1.2125,1.2198,1.2427,1.2637,1.2788,1.2876,1.2899,1.2832,1.2685,1.2746,1.3055,1.3539,1.3811,1.4232,1.4787,1.5447,1.5611,1.533,1.6067,1.6272,1.2096,1.1677,1.1375,0.0,1.0699,1.047,1.0637,1.0644,1.0729,1.1151,1.1252,1.1422,1.1818,1.1999,1.2122,0.0,1.2566,1.2874,1.3076,1.3397,1.3684,1.3975,1.4094,1.4177,1.4338,1.4556,1.4742,1.494,1.5378,1.5565,1.5405,1.5683,1.585,1.585,1.5523,1.5523,1.585,1.5422,1.5148,1.4976,1.4708,1.4552,1.445,1.445,1.4504,1.4724,1.547,1.5737,1.5577,1.6743,1.7107,1.6955,1.7424,1.7582,1.7582,1.7483,1.706,1.6524,1.6524,1.5838,1.4987,1.4987,1.4396,1.3856,1.4713,1.4396,1.3862,1.4713,1.4617,1.4299,1.488,1.482,1.4637,1.4698,1.4396,1.4044,1.3981,1.4924,1.5989,1.6659,1.7918,1.9031,1.9413,1.9532,1.9251,1.8279,1.79,1.6784,1.431,1.5119,1.5234,1.3402,1.3308,1.3122,1.2346,1.2539,1.2768,1.278,1.2797,1.2809,1.2715,1.2741,1.3007,1.3491,1.363,1.4064,1.4933,1.522,1.5402,1.5391,1.6127,1.6351,1.2382,1.1959,0.0,1.1367,1.1212,1.1118,1.1289,1.1353,1.1505,1.1824,1.1949,1.2037,1.2166,1.2326,1.2451,1.2589,1.2827,1.3168,1.3613,1.3731,1.3945,1.4274,1.4364,1.4521,1.4799,1.4823,1.4879,1.5096,1.5419,1.5481,1.5244,1.5422,1.5482,1.5482,1.5154,1.5095,1.5374,1.5041,1.4767,1.4606,1.4606,1.4606,1.4606,1.4606,1.4713,1.4928,1.5416,1.5529,1.5422,1.6524,1.6836,1.673,1.7265,1.7483,1.7483,1.7371,1.71,1.6677,1.6677,1.5939,1.4987,1.4987,1.4606,1.4331,1.5345,1.4917,1.4385,1.5452,1.5035,1.4455,1.4987,1.4904,1.468,1.4601,1.4231,1.3968,1.4164,1.4757,1.564,1.6635,1.7882,1.8801,1.9079,1.9401,1.9597,1.9543,1.9272,1.8231,1.5859,1.629,1.611,1.4372,1.4358,1.3948,1.2651,1.2763,1.2873,1.2858,1.2889,1.2846,1.2715,1.285,1.3104,1.3491,1.3588,1.4076,1.4987,1.5083,1.5259,1.5518,1.6121,1.6471,1.2972,0.0,1.2228,1.1722,1.1594,1.1537,1.1332,1.1519,1.1807,1.2298,1.2198,1.2123,1.2583,1.2534,1.2537,1.2991,1.3294,1.3598,1.387,1.4123,1.4286,1.4298,1.4539,1.4805,1.5071,1.5095,1.5101,1.5119,1.559,1.5879,1.5891,1.5636,1.5482,1.5482,1.5154,1.4987,1.5041,1.4767,1.4606,1.4606,1.4606,1.4606,1.4606,1.4606,1.4606,1.4654,1.5494,1.5553,1.5143,1.6895,1.7206,1.673,1.7067,1.7226,1.7173,1.6842,1.673,1.6677,1.6677,1.5939,1.4987,1.4987,1.5137,1.5446,1.5755,1.5654,1.55,1.6086,1.5452,1.4713,1.5321,1.5256,1.4851,1.4407,1.4123,1.3875,1.3928,1.4532,1.5337,1.6062,1.7026,1.7849,1.8195,1.8462,1.8842,1.9498,1.9791,1.9431,1.7976,1.714,1.6262,1.5097,1.4995,1.4632,1.3738,1.3689,1.3603,1.3467,1.3475,1.326,1.284,1.3007,1.3195,1.3491,1.3738,1.4166,1.4694,1.4981,1.5356,1.5764,1.6062,1.6686,1.2924,0.0,1.2416,1.1997,1.1858,1.1881,1.2006,1.2107,1.2306,1.2778,1.2796,1.2802,1.2924,1.3071,1.3192,1.3338,1.3415,1.3677,1.4082,1.4104,1.4107,1.4268,1.4345,1.443,1.4554,1.5059,0.0,1.5036,1.5429,1.5439,1.5008,1.508,1.5213,1.5372,1.4883,1.4691,1.4691,1.4429,1.4342,1.4331,1.5083,1.5357,1.5267,1.639,1.6693,1.6358,1.7436,1.7363,1.6518,1.7259,1.716,1.6477,1.6736,1.6849,1.6842,1.673,1.6577,1.6424,1.6424,1.5785,1.5041,1.5261,1.5512,1.5867,1.6776,1.6929,1.6922,1.7094,1.6458,1.5666,1.5529,1.5134,1.4657,1.4362,1.3948,1.3685,1.3833,1.4526,1.5395,1.6354,1.7218,1.8015,1.8753,1.8949,1.92,1.9857,1.9339,1.9177,1.98,1.8844,1.7588,1.6274,1.6121,1.5328,1.3364,1.3315,1.347,1.3635,1.3705,1.3716,1.3551,1.3422,1.3491,1.3738,1.4016,1.4448,1.4981,1.5363,1.5737,1.6076,1.6831,1.7303,1.2956,1.2751,1.2497,1.2105,1.208,1.2205,1.237,1.2534,1.2753,1.3052,1.3062,1.3109,1.3209,1.3199,1.3281,1.3576,1.3561,1.3737,1.4334,1.4299,1.4283,1.4551,1.4616,1.4657,0.0,0.0,0.0,1.5052,1.5316,1.5323,1.4961,1.4983,1.5099,1.5276,1.4745,1.4497,1.4659,1.4409,1.4439,1.4801,1.5538,1.5928,1.5982,1.7546,1.7847,1.7203,1.8284,1.8096,1.7041,1.7305,1.7001,1.6311,1.6371,1.6495,1.6511,1.6364,1.6231,1.6164,1.6271,1.5731,1.5075,1.5393,1.5984,1.6636,1.7489,1.8035,1.823,1.7996,1.7252,1.6458,1.5791,1.5123,1.4607,1.4344,1.3836,1.3435,1.3719,1.4142,1.491,1.6148,1.6821,1.7476,1.8385,1.8701,1.9069,1.9696,1.9324,1.9443,2.0609,2.0071,1.885,1.7061,1.6962,1.5962,1.3418,1.3347,1.3538,1.362,1.3716,1.3718,1.3629,1.3613,1.3738,1.3883,1.4256,1.4688,1.522,1.5594,1.6021,1.6508,1.7207,1.7641,1.3067,1.2797,1.2522,1.2163,1.2252,1.2406,1.2406,1.2747,1.3094,1.3082,1.3037,1.3102,1.3328,1.2954,1.2892,1.3752,1.3668,1.3763,1.4606,1.4677,1.4779,0.0,0.0,0.0,0.0,0.0,0.0,1.5129,0.0,1.5557,1.5748,1.5292,1.5077,1.5315,1.4747,1.4572,1.4902,1.4561,1.4885,1.5778,1.5882,1.6232,1.6756,1.8076,1.8187,1.7252,1.8286,1.7956,1.6836,1.7087,1.6823,1.6227,1.5968,1.603,1.6221,1.5712,1.5674,1.5945,1.6199,1.5763,1.5117,1.5429,1.6428,1.763,1.7925,1.8783,1.9457,1.867,1.7832,1.6929,1.6152,1.5341,1.463,1.4362,1.3701,1.3204,1.3488,1.3582,1.4052,1.5514,1.6055,1.6501,1.7236,1.7904,1.8537,1.9106,1.9727,2.0189,2.047,2.0668,1.9857,1.7371,1.7331,1.644,1.391,1.3747,1.3728,1.3559,1.3517,1.3419,1.3175,1.3659,1.3943,1.3931,1.4454,1.4975,1.5432,1.5683,1.6258,1.7026,1.7239,1.7746,1.357,1.3272,1.2936,1.2865,1.2732,1.2619,1.2619,1.2881,1.3087,1.3048,1.3112,1.3209,1.3115,1.3153,0.0,1.3552,1.3539,0.0,1.4581,1.4527,0.0,1.505,0.0,1.5135,1.5094,1.5323,0.0,0.0,1.5183,1.511,1.512,1.5142,1.5234,1.5525,1.5194,1.4929,1.4808,1.4806,1.5106,1.5834,1.6498,1.69,1.7148,1.9236,1.9649,1.8838,2.0666,2.0143,1.8003,1.8087,1.718,1.57,1.5627,1.5646,1.5719,1.5793,1.5831,1.5861,1.5773,1.5449,1.514,1.5421,1.6285,1.7358,1.8055,1.8935,1.9511,1.9118,1.8244,1.7259,1.6424,1.5577,1.4887,1.4636,1.3968,1.3516,1.3996,1.4576,1.5196,1.5947,1.6804,1.7524,1.7965,1.8394,1.8825,1.9207,1.9723,2.0189,2.047,1.9813,1.8738,1.7259,1.6221,1.512,1.3802,1.3587,1.3635,1.4,1.4072,1.4076,1.3978,1.4317,1.4521,1.4502,1.4838,1.522,1.5683,1.6157,1.6588,1.7026,1.7621,1.7986,1.3544,1.3212,1.2918,1.2811,1.2733,1.2674,1.2644,1.2914,1.3172,1.317,1.3253,1.3366,1.3574,1.3411,1.3377,0.0,0.0,0.0,1.4575,1.4781,1.4934,0.0,1.5328,0.0,1.5106,1.5273,1.5272,0.0,1.5081,1.5188,1.5248,1.5228,1.5301,1.5591,1.529,1.5104,1.4928,1.4987,1.5382,1.6109,1.6684,1.7094,1.7444,1.9963,2.0284,1.9009,2.1425,2.074,1.7862,1.8044,1.7062,1.551,1.5385,1.5461,1.5674,1.5704,1.5742,1.5713,1.567,1.5413,1.5112,1.5421,1.6294,1.7344,1.7595,1.8657,1.9535,1.8466,1.7991,1.7523,1.6424,1.5405,1.467,1.4533,1.3901,1.3294,1.3292,1.3715,1.4355,1.5191,1.6558,1.7706,1.8028,1.8357,1.8737,1.9213,1.9737,2.0189,2.047,2.0027,1.9057,1.7266,1.6533,1.5494,1.3856,1.3641,1.3714,1.4035,1.4218,1.432,1.4283,1.4576,1.474,1.4867,1.5134,1.5493,1.5961,1.6494,1.6878,1.716,1.7807,1.804,1.34,1.3034,1.2759,1.2576,1.2686,1.2766,1.2622,1.2987,1.3319,1.3323,0.0,1.3414,1.4074,1.3572,1.3325,1.4097,0.0,1.4121,1.4704,1.5182,1.5497,1.5521,1.5728,1.5678,1.5095,1.5318,1.5102,1.4364,1.4998,1.5429,1.5569,1.5373,1.5333,1.5591,1.5299,1.5175,1.5175,1.5221,1.569,1.6473,1.6722,1.7082,1.7713,2.02,2.0295,1.8535,2.109,2.0271,1.7124,1.7476,1.6774,1.5452,1.5235,1.5422,1.5813,1.5626,1.554,1.5577,1.5707,1.5487,1.5208,1.5398,1.6275,1.7182,1.6801,1.8003,1.9177,1.7429,1.7348,1.7463,1.6258,1.5234,1.4424,1.439,1.3808,1.3075,1.2415,1.2498,1.3061,1.431,1.5967,1.7287,1.7709,1.8135,1.8543,1.9024,1.974,2.0174,2.0187,2.0321,1.9591,1.7423,1.7121,1.618,1.3964,1.38,1.382,1.3925,1.4195,1.4367,1.4384,1.4683,1.4943,1.514,1.53,1.5676,1.6237,1.673,1.7066,1.7333,1.78,1.79,1.3894,1.3613,1.3278,1.3281,1.3305,1.3153,1.2705,1.3003,0.0,0.0,1.285,1.2903,1.2989,1.2975,1.3123,1.3801,1.404,1.4333,1.493,1.5276,1.5497,0.0,1.5728,1.5791,1.5422,1.5602,0.0,0.0,1.5144,1.5254,1.5053,1.5322,1.5558,1.5601,1.5537,1.5537,1.5537,1.5499,1.5849,1.6537,1.7085,1.767,1.8292,1.9542,1.9605,1.8891,2.0134,0.0,1.7137,1.7525,1.6785,1.5399,1.5444,1.5477,1.559,1.5759,1.5849,1.5725,1.5132,1.5275,1.5708,1.5303,1.5609,1.615,1.6392,1.6837,1.728,1.7425,1.7042,1.653,1.6271,1.5778,1.5182,1.4763,1.4365,1.4047,1.3928,1.4285,1.4883,1.5787,1.6211,1.6672,1.7661,1.8274,1.8659,1.8783,1.9712,1.9994,1.8826,1.8123,1.7693,1.7542,1.5648,1.4283,1.4137,1.3912,1.3977,1.4455,1.4578,1.4717,1.4961,1.5204,1.5376,1.5447,1.5451,1.5825,1.6534,1.6629,1.6871,1.7333,1.7621,1.7721,1.3686,1.3408,1.3034,1.3077,1.3145,1.3115,1.2647,0.0,0.0,0.0,1.254,1.2547,1.2684,1.2869,0.0,1.3578,1.4068,1.4467,0.0,0.0,0.0,0.0,0.0,0.0,0.0,1.533,1.5203,1.4762,1.5044,1.5189,1.5074,1.5408,1.5661,1.5844,1.572,1.5601,1.5601,1.5601,1.5893,1.6473,1.6698,1.7105,1.7731,1.8685,1.8646,1.7811,1.9105,1.8441,1.649,1.6835,1.6382,1.547,1.55,1.5505,1.5517,1.579,1.5678,1.5411,1.5185,1.5362,1.5569,1.5044,1.5515,1.6134,1.583,1.6275,1.6859,1.6587,1.6422,1.6271,1.6105,1.5589,1.5001,1.4585,1.3957,1.3505,1.3771,1.4184,1.4582,1.5004,1.5338,1.5953,1.7016,1.7541,1.815,1.8973,1.9255,1.9206,1.8796,1.7455,1.6539,1.6704,1.5601,1.4654,1.4245,1.4239,1.4322,1.4593,1.4917,1.5235,1.5523,1.5495,1.5639,1.5918,1.5722,1.5967,1.6588,1.673,1.6965,1.7333,1.7574,1.7628,1.3379,1.3137,1.2833,1.279,1.2923,1.2948,1.2557,1.2441,0.0,0.0,1.2291,1.2305,1.248,0.0,1.32,0.0,1.416,1.4605,0.0,0.0,0.0,0.0,0.0,0.0,1.5035,1.5003,0.0,1.4536,1.4872,1.5161,1.5263,1.5558,1.5779,1.5963,1.5785,1.5661,1.5601,1.5661,1.593,1.6393,1.6379,1.6598,1.7167,1.7935,1.775,1.6876,1.8062,1.7583,1.5901,1.6126,1.5934,1.5504,1.5499,1.5482,1.5535,1.5737,1.5464,1.4995,1.521,1.5315,1.528,1.4727,1.5298,1.612,1.5287,1.5771,1.6523,1.5707,1.585,1.6164,1.5945,1.5382,1.4775,1.4464,1.361,1.2994,1.3304,1.364,1.3829,1.3872,1.4473,1.5217,1.6116,1.6594,1.7266,1.8592,1.8411,1.8235,1.8417,1.7088,1.5939,1.5624,1.5583,1.5185,1.4347,1.4504,1.4659,1.4767,1.5261,1.5613,1.5913,1.5702,1.5777,1.6234,1.6009,1.6116,1.6588,1.6878,1.7113,1.7333,1.7527,1.7481,1.337,1.3355,1.3307,1.3094,1.304,1.287,1.2421,0.0,0.0,1.2123,1.2217,1.2317,1.2011,1.2641,1.322,1.3308,0.0,1.4883,0.0,0.0,0.0,0.0,0.0,0.0,0.0,1.5003,1.4878,1.4536,1.4772,1.5106,1.5542,1.5893,1.5903,1.5661,1.5903,1.5903,1.5601,1.5903,1.6082,1.6143,1.6754,1.7074,1.7223,1.7547,1.7466,1.714,1.7229,1.6733,0.0,1.5889,1.5713,1.541,1.5462,1.5482,1.5482,1.5535,1.5315,1.4913,1.4533,1.4853,1.525,1.4271,1.4503,1.5084,1.4807,1.4975,1.5331,1.5447,1.5686,1.5945,1.5891,1.5646,1.5285,1.4694,1.3977,1.341,1.3399,1.3465,1.3632,1.3857,1.4179,1.4564,1.5143,1.566,1.61,1.6439,1.7175,1.7295,1.6226,1.6407,1.6131,1.4751,1.4478,1.4401,1.4552,1.4606,1.4821,1.5374,1.5482,1.5642,1.5866,1.5871,1.5895,1.5947,1.6108,1.6312,1.6588,1.6878,1.7113,1.7279,1.7326,1.7326,1.2993,1.2852,1.272,1.2637,1.2482,1.2305,1.2246,0.0,1.176,1.1706,1.1652,1.1594,1.1457,1.2392,1.3114,1.2919,1.419,1.5003,1.4423,0.0,0.0,0.0,0.0,0.0,0.0,0.0,1.4999,1.4945,1.5182,1.5397,1.5585,1.5585,1.5809,1.6425,1.6049,1.5965,1.6192,1.6166,1.6326,1.6726,1.6794,1.6944,1.7163,1.7089,1.6908,1.6646,1.6652,1.6324,0.0,1.5893,1.5833,1.5713,1.5571,1.5369,1.5208,1.5428,1.5208,1.477,1.4943,1.5125,1.5135,1.4574,1.4529,1.4781,1.49,1.5118,1.5423,1.5682,1.5807,1.5891,1.5891,1.5467,1.4888,1.4259,1.3907,1.3789,1.3853,1.3804,1.3705,1.3813,1.3808,1.4109,1.5097,1.5447,1.5967,1.7084,1.6981,1.6678,1.6382,1.5972,1.5446,1.4853,1.4726,1.4732,1.4822,1.5024,1.5309,1.5737,1.5753,1.5928,1.6336,1.6192,1.6196,1.639,1.6423,1.6588,1.6831,1.7118,1.7347,1.7625,1.7823,1.7911,1.2569,1.2361,1.218,1.206,1.1904,1.1766,0.0,1.1455,1.1146,1.1074,1.1162,1.1217,1.108,1.2273,1.318,1.2843,1.4073,1.4863,1.4263,1.4791,0.0,0.0,0.0,1.5019,0.0,1.4845,1.4952,1.495,1.5306,1.5526,1.5596,1.5434,1.5762,1.672,1.6239,1.6155,1.6615,1.6532,1.664,1.695,1.6874,1.6907,1.6981,1.6772,1.663,1.6537,1.6271,1.6111,0.0,1.5731,1.5678,1.5737,1.5476,1.5208,1.5035,1.5261,1.5041,1.4663,1.5187,1.5264,1.5052,1.4807,1.467,1.4696,1.4981,1.5221,1.5422,1.5785,1.5831,1.5759,1.568,1.5172,1.4589,1.4032,1.3958,1.4008,1.4158,1.4056,1.3911,1.3836,1.3705,1.3903,1.4811,1.497,1.5445,1.685,1.6413,1.6002,1.6274,1.5731,1.5225,1.5138,1.5296,1.5331,1.514,1.542,1.5737,1.5998,1.6011,1.6239,1.667,1.6384,1.6372,1.6684,1.6791,1.6918,1.7122,1.7479,1.7775,1.7962,1.8196,1.8357,1.2103,1.2046,1.1826,1.1561,1.1501,1.1361,0.0,1.0949,1.089,1.0168,1.0923,1.1532,1.0983,1.2317,1.3416,1.3219,1.3935,1.4454,1.4212,1.4493,0.0,0.0,0.0,1.5071,1.5013,1.4939,1.4772,1.4448,1.4892,0.0,1.5585,1.5662,1.5821,1.6076,1.6414,1.6615,1.6615,1.6922,1.6938,1.6733,1.6957,1.6968,1.6683,1.6677,1.6895,1.7126,1.6264,1.6051,0.0,1.5363,1.5208,1.5482,1.5148,1.4987,1.4987,1.4987,1.4821,1.4641,1.4985,1.5113,1.5067,1.4777,1.4692,1.4769,1.5028,1.5059,1.5148,1.5731,1.5704,1.5445,1.5185,1.4904,1.4587,1.4276,1.4212,1.4206,1.4196,1.4191,1.4116,1.3868,1.382,1.3843,1.3907,1.3913,1.4202,1.5035,1.5123,1.5223,1.55,1.5737,1.5773,1.5433,1.5941,1.6064,1.5541,1.5737,1.5998,1.6271,1.6325,1.6401,1.6677,1.637,1.6319,1.6595,1.7136,1.7389,1.7389,1.7998,1.8299,1.8299,1.8299,1.8474,1.2114,1.1885,1.163,1.1314,1.0929,1.0638,1.0771,1.0822,1.0833,1.0873,1.1212,1.1517,1.1628,1.2799,1.3558,1.2965,1.4177,1.4991,0.0,0.0,0.0,0.0,1.4717,1.4661,0.0,0.0,1.4963,1.5179,1.5184,1.5295,1.5585,1.5662,1.599,1.6661,1.6649,1.6815,1.7203,1.719,1.7234,1.7297,1.741,1.741,1.7312,1.7312,1.7271,1.7095,1.6819,1.6446,1.6006,1.5946,1.5737,1.5482,1.5148,1.4987,1.4987,1.4987,1.4821,1.4691,1.5382,1.5419,1.5136,1.5224,1.5128,1.5059,1.5509,1.5389,1.5147,1.5515,1.5565,1.5345,1.4699,1.4636,1.4583,1.41,1.4088,1.4205,1.4212,1.4196,1.4169,1.4089,1.4044,1.422,1.4567,1.4705,1.4937,1.5564,1.5659,1.5689,1.5779,1.5838,1.5922,1.6012,1.6213,1.6184,1.5982,1.6256,1.6683,1.7166,1.699,1.705,1.7574,1.7427,1.7422,1.747,1.7996,1.8292,1.8292,1.888,1.9207,1.9264,1.9067,1.9023,0.0,1.1872,1.1588,1.1125,1.0832,1.0558,1.0382,1.0618,1.0871,1.0857,1.1368,1.1871,1.2069,1.3205,1.3885,1.3301,1.4331,1.4932,0.0,0.0,0.0,1.5034,0.0,0.0,0.0,1.5057,1.4952,1.5136,1.5168,1.5215,1.5263,1.5585,1.6092,1.6842,1.6806,1.703,1.754,1.7515,1.7543,1.7582,1.7687,1.7694,1.7589,1.7596,1.7475,1.7285,1.6955,1.6508,0.0,1.6036,1.5838,1.5617,1.5296,1.5317,1.5462,1.5277,1.5158,1.5155,1.5707,1.5638,1.5267,1.543,1.5466,1.5447,1.5817,1.5759,1.5597,1.5655,1.556,1.5379,1.4743,1.4734,1.4728,1.43,1.4371,1.4499,1.4236,1.4282,1.4293,1.4191,1.4174,1.4381,1.4905,1.501,1.5223,1.5814,1.5891,1.5891,1.5891,1.5891,1.5962,1.6135,1.6315,1.6449,1.6552,1.6719,1.699,1.7363,1.7187,1.731,1.7917,1.7773,1.7746,1.7947,1.8446,1.8713,1.8841,1.9459,1.9742,1.968,1.9628,1.9532,0.0,1.1958,1.1653,1.1055,1.1089,1.0976,0.9879,1.0407,0.0,1.0316,1.1379,1.2426,1.2354,1.3499,1.4358,1.408,1.4301,1.4499,0.0,1.418,0.0,0.0,1.4808,0.0,1.5329,1.5121,1.4813,1.4499,1.4912,1.5101,1.4891,1.5479,1.6092,1.6602,1.6937,1.7313,1.7603,1.7849,1.7865,1.7668,1.7918,1.7932,1.7708,1.7627,1.7601,0.0,1.6742,1.6338,1.6225,1.5767,1.5736,1.584,1.5605,1.5842,1.6189,1.5658,1.5688,1.5878,1.5915,1.5738,1.5533,1.5534,1.5735,1.5952,1.6004,1.6154,1.6245,1.5979,1.5745,1.5472,1.5195,1.5135,1.5057,1.4752,1.4914,1.4924,1.4346,1.4434,1.4552,1.4299,1.425,1.4401,1.4934,1.5035,1.525,1.5838,1.5945,1.5945,1.5945,1.5945,1.596,1.5977,1.6407,1.6865,1.7136,1.7168,1.7168,1.7271,1.7201,1.7371,1.7889,1.7644,1.771,1.8163,1.8539,1.8883,1.9227,1.9832,1.9983,1.9783,1.9983,1.9983,1.2408,0.0,1.1515,1.1012,1.0963,1.08,0.0,1.0293,1.0805,1.0981,0.0,1.203,1.2691,1.3865,1.4436,1.3531,1.4678,1.5231,1.4185,0.0,0.0,1.5357,1.4764,1.4603,1.5329,1.5143,1.5088,1.5389,1.5389,1.5367,1.5502,1.5934,1.6319,1.6661,1.7203,1.7505,1.7597,1.7849,1.808,1.8305,1.8278,1.8409,1.8578,1.8137,1.7802,1.7563,1.7344,1.6722,1.5958,1.65,1.6269,1.5516,1.5738,1.5783,1.5646,1.5529,1.5523,1.566,1.6062,1.6013,1.5842,1.6045,1.6274,1.6535,1.6812,1.6601,1.6234,1.5983,1.5826,1.5763,1.5498,1.5377,1.523,1.4796,1.4914,1.4975,1.4613,1.4705,1.4821,1.4552,1.4504,1.4611,1.4934,1.519,1.5565,1.6111,1.6217,1.6264,1.6471,1.6318,1.6352,1.6877,1.6977,1.7204,1.7737,1.7803,1.8064,1.874,1.8759,1.8876,1.9177,1.9086,1.8977,1.8865,1.939,1.993,2.0476,2.0436,2.0359,2.0308,2.0189,2.0086,1.2464,1.2278,1.1822,1.1594,1.1517,1.1277,1.0592,0.0,0.0,0.0,0.0,1.2758,1.3257,1.404,1.4388,1.3785,1.4767,0.0,0.0,0.0,1.4817,1.5416,1.4973,1.4868,0.0,1.5522,1.5429,1.5557,1.5699,1.5695,1.5608,1.6067,1.6481,1.6924,1.7347,1.7669,1.7776,1.8076,1.8311,1.8475,1.8602,1.8598,1.8464,1.8277,1.7895,1.7361,1.7497,1.6949,1.6063,1.6546,1.6342,1.5838,1.5878,1.5903,1.5853,1.5725,1.5761,1.5905,1.6207,1.6377,1.653,1.6796,1.7001,1.716,1.7325,1.7067,1.6639,1.6366,1.6297,1.6183,1.5774,1.5715,1.566,1.5322,1.5463,1.5535,1.5133,1.5229,1.5303,1.4874,1.4767,1.4874,1.5208,1.5363,1.5684,1.6217,1.6324,1.6371,1.6683,1.6577,1.6586,1.6938,1.7205,1.7511,1.796,1.8352,1.8745,1.906,1.8883,1.8932,1.9295,1.919,1.9117,1.9161,1.9644,2.0091,2.059,2.0615,2.057,2.0522,2.0506,2.0403,1.2527,1.2521,1.2352,1.2405,1.2383,1.2135,1.1458,0.0,0.0,0.0,0.0,0.0,0.0,1.4174,0.0,0.0,0.0,0.0,1.5494,1.5057,1.4949,1.5567,1.5335,0.0,1.6139,1.597,1.5754,1.5535,1.594,1.6022,1.5621,1.6132,1.6651,1.7173,1.7483,1.7747,1.8016,1.833,1.8481,1.8475,1.8782,1.8644,1.8138,1.8279,1.7886,1.7146,1.7328,0.0,1.6234,1.6228,1.62,1.6198,1.5928,1.5987,1.6186,1.5953,1.603,1.6248,1.6345,1.6802,1.7331,1.7529,1.7582,1.7635,1.7635,1.7437,1.718,1.699,1.684,1.6652,1.6143,1.6167,1.6211,1.5963,1.6104,1.6144,1.5652,1.5757,1.5785,1.5202,1.5095,1.5154,1.5428,1.5535,1.5743,1.6271,1.6377,1.6477,1.6783,1.6783,1.6805,1.6886,1.7349,1.78,1.811,1.8766,1.9082,1.8905,1.8629,1.8657,1.9019,1.8746,1.8775,1.9269,1.9568,1.9908,2.0265,2.0637,2.0769,2.0597,2.0901,2.0925,1.2933,1.3076,1.3046,1.3002,1.3171,1.3177,1.2382,0.0,0.0,0.0,0.0,0.0,0.0,1.4577,1.5096,0.0,0.0,1.539,0.0,0.0,1.5488,1.611,0.0,1.591,1.6273,1.6023,1.5974,1.6127,1.6054,1.601,1.6155,1.6665,1.7068,1.7226,1.7701,1.7964,1.8016,1.8268,1.842,1.8475,1.8779,1.883,1.874,1.8305,1.7723,1.7162,0.0,1.6212,1.5794,1.5833,1.5862,1.5766,1.5574,1.5548,1.5641,1.5815,1.5916,1.6053,1.6483,1.716,1.7859,1.7641,1.7582,1.7635,1.7852,1.7595,1.7219,1.743,1.7275,1.6947,1.665,1.6581,1.6517,1.6009,1.6104,1.6201,1.5917,1.6026,1.6057,1.5535,1.5428,1.5428,1.5482,1.569,1.5998,1.6577,1.663,1.6842,1.7371,1.7272,1.7318,1.7745,1.786,1.818,1.8724,1.8593,1.8748,1.9439,1.9606,1.9587,1.9344,1.8971,1.9017,1.9594,1.9651,1.9996,2.0547,2.0933,2.1139,2.1105,2.1441,2.1573,1.3113,1.3472,1.3914,1.4444,1.4223,1.3867,1.3867,0.0,0.0,0.0,0.0,0.0,0.0,0.0,1.5748,1.5801,0.0,1.5875,1.6599,1.6542,1.6417,0.0,0.0,1.6433,1.6297,1.6189,1.6094,1.6079,1.6343,1.6572,1.6552,1.7061,1.7333,1.7424,1.7806,1.7859,1.7543,1.7852,1.8242,1.8714,1.8714,1.8644,1.8635,1.801,1.7466,1.6896,0.0,1.6329,1.604,1.6007,1.6009,1.5947,1.5881,1.5684,1.5495,1.5946,1.6424,1.6895,1.7272,1.7859,1.8443,1.8115,1.8055,1.8003,1.8016,1.7806,1.7648,1.7589,1.7472,1.7234,1.6831,1.6812,1.6817,1.6457,1.6583,1.6727,1.6605,1.6554,1.6424,1.601,1.5797,1.5737,1.5737,1.5838,1.6099,1.6624,1.6677,1.6942,1.7529,1.7641,1.7753,1.7964,1.8317,1.8601,1.8862,1.8949,1.9029,1.9071,1.9455,1.9518,1.9098,1.9054,1.9231,1.9633,1.9772,2.013,2.0837,2.1012,2.1205,2.1494,2.1651,2.1725,1.3589,1.4075,1.4787,1.5797,1.5248,1.4634,1.5317,1.5462,0.0,0.0,0.0,0.0,0.0,1.5861,0.0,1.6763,1.6475,1.6391,1.6931,1.7175,1.71,1.6473,1.6804,1.6968,1.6526,1.6469,1.6394,1.6182,1.6677,1.6946,1.6864,1.735,1.7599,1.7628,1.7905,1.7806,1.7232,1.7378,1.7869,1.8598,1.8398,1.8236,1.8194,1.7717,1.7224,1.6694,1.6478,1.6318,1.6186,1.5998,1.5975,1.6084,1.5969,1.5768,1.568,1.6184,1.6955,1.774,1.801,1.8443,1.8817,1.8534,1.8422,1.837,1.8167,1.8069,1.7964,1.7747,1.7635,1.749,1.6881,1.6914,1.7021,1.6757,1.6985,1.7286,1.7219,1.7008,1.6736,1.6424,1.6211,1.6099,1.6099,1.6099,1.6258,1.6736,1.6842,1.7054,1.7635,1.7852,1.8069,1.8181,1.8608,1.8893,1.8866,1.9233,1.9231,1.8628,1.8957,1.9074,1.8797,1.905,1.9333,1.9587,1.9799,2.0252,2.0911,2.0957,2.1198,2.1595,2.1628,2.167,1.4926,1.5147,1.5475,1.656,1.6192,0.0,1.6444,1.624,0.0,1.576,0.0,0.0,0.0,1.6919,1.7203,1.6936,1.6899,1.6935,1.6987,0.0,1.7009,1.6973,1.7252,1.732,1.6984,1.7014,1.699,1.6919,1.6787,1.6826,1.7057,1.7654,1.785,1.7628,1.8108,1.801,1.7232,1.7232,1.7404,1.7702,1.766,1.766,1.7629,1.7343,1.7029,1.6655,1.5898,1.5658,1.5779,1.5286,1.5392,1.5803,1.5292,1.5565,1.6295,1.6583,1.7213,1.8016,1.8272,1.8593,1.8817,1.8534,1.8422,1.8422,1.837,1.822,1.8016,1.7964,1.7953,1.7796,1.6931,1.6914,1.7021,1.6757,1.7144,1.7499,1.7272,1.7173,1.7067,1.6736,1.6677,1.6624,1.6624,1.6624,1.6736,1.712,1.7179,1.7384,1.7911,1.7964,1.8233,1.8764,1.8869,1.8851,1.8796,1.9032,1.8979,1.8613,1.8597,1.8644,1.8781,1.905,1.9333,1.9587,1.9799,2.0181,2.0732,2.083,2.1036,2.122,2.1375,2.1639,1.5585,1.6283,1.6888,1.7355,1.7433,0.0,0.0,1.7616,1.7392,1.7122,1.7409,0.0,0.0,0.0,1.7903,1.7697,1.7858,1.7991,1.7886,1.843,1.8584,1.7802,1.8457,1.8555,1.74,1.7602,1.7638,1.7323,1.7232,1.7321,1.7634,1.7708,1.7753,1.7845,1.7898,1.7582,1.6902,1.6895,1.6948,1.7054,1.7224,1.7535,1.7816,1.7422,1.7004,1.6677,1.6217,1.6065,1.6102,1.5681,1.5818,1.6338,1.6127,1.6572,1.732,1.7079,1.7536,1.8272,1.837,1.8593,1.8869,1.8757,1.8705,1.8653,1.8482,1.8489,1.8496,1.8325,1.8264,1.8106,1.7428,1.7445,1.7597,1.7293,1.7582,1.7723,1.7312,1.7179,1.7179,1.706,1.6842,1.6836,1.7206,1.7107,1.7173,1.7648,1.7701,1.7806,1.822,1.8593,1.881,1.8869,1.9175,1.945,1.9527,1.9441,1.9333,1.9114,1.8847,1.8743,1.8781,1.9204,1.9487,1.9587,1.9936,2.0477,2.1126,2.0964,2.1161,2.1712,2.1648,2.173,1.6272,1.699,1.7584,1.79,0.0,0.0,1.8659,1.8548,1.8358,1.8307,1.8797,0.0,1.9118,0.0,0.0,0.0,1.8465,1.8581,1.8651,1.9204,1.9362,1.8751,1.9361,1.9329,1.8155,1.8282,1.8245,1.7782,1.7746,1.7801,1.7858,1.7808,1.7798,1.7845,1.7694,1.7318,1.673,1.663,1.6577,1.6577,1.6802,1.7171,1.7567,1.7104,1.6802,1.6577,1.6264,1.6217,1.6283,1.6037,1.6271,1.6705,1.6705,1.719,1.7822,1.7457,1.7905,1.8691,1.8586,1.8803,1.9123,1.8974,1.8921,1.8869,1.8646,1.8705,1.8869,1.8593,1.8451,1.8289,1.8079,1.8058,1.8076,1.7777,1.7953,1.8016,1.7549,1.7444,1.7444,1.7444,1.7325,1.7364,1.7793,1.7694,1.7701,1.8069,1.822,1.8377,1.8639,1.9116,1.9376,1.9279,1.9628,1.9892,2.0027,1.9861,1.9659,1.9422,1.9154,1.8947,1.892,1.935,1.9633,1.9671,2.0073,2.0646,2.1328,2.0921,2.1113,2.1869,2.1479,2.1452,1.7096,1.7274,1.7307,0.0,0.0,0.0,1.9249,1.8834,1.8588,1.9188,1.994,2.0351,1.9798,1.9802,0.0,1.892,1.8635,1.8681,1.9142,1.8966,1.9096,1.9803,1.9759,1.9564,1.932,1.9115,1.8841,1.8348,1.8354,1.8135,1.7565,1.8047,1.816,1.7635,1.7582,1.7318,1.673,1.6424,1.6324,1.6271,1.6271,1.6424,1.6677,1.6424,1.6324,1.6271,1.5998,1.6051,1.6324,1.6324,1.6477,1.673,1.673,1.71,1.7635,1.7635,1.8325,1.9279,1.9026,1.9279,1.9628,1.9078,1.8928,1.8921,1.8921,1.8921,1.8921,1.8921,1.8615,1.841,1.8808,1.864,1.8346,1.8084,1.8205,1.8325,1.8069,1.8016,1.8016,1.8016,1.822,1.8422,1.8422,1.8422,1.8422,1.8422,1.8624,1.8938,1.9272,1.9532,1.9835,2.0078,2.0138,2.0138,2.0138,2.0042,1.986,1.9558,1.947,1.935,1.9204,1.9442,1.9671,1.9882,2.0155,2.0617,2.1191,2.0572,2.0763,2.16,2.07,2.0763,1.7586,1.8105,0.0,1.8589,0.0,0.0,0.0,1.9143,0.0,0.0,1.9906,2.0096,1.9771,1.9819,0.0,1.9188,1.9204,1.9387,1.9654,2.0056,2.0229,1.992,2.0868,2.1135,1.9972,1.9945,1.9726,1.9112,1.8237,1.7794,1.7858,1.7441,1.7427,1.7845,1.7265,1.6889,1.6677,1.6424,1.6117,1.5749,1.5951,1.6264,1.6677,1.663,1.6477,1.6324,1.6418,1.6524,1.663,1.7219,1.7536,1.7641,1.7845,1.8167,1.8489,1.8475,1.8788,1.9324,1.9428,1.9428,1.9428,1.9428,1.9324,1.9175,1.9175,1.9175,1.9175,1.9175,1.9088,1.903,1.9124,1.9102,1.8926,1.8393,1.8359,1.8265,1.7799,1.7852,1.8069,1.822,1.837,1.8579,1.9205,1.916,1.916,1.9517,1.9665,1.982,2.0101,2.0042,2.0138,2.0609,2.0506,2.0506,2.0909,2.077,2.0665,2.0695,2.0257,1.9741,1.9212,1.9442,1.9671,1.9882,2.0155,2.0655,2.1337,2.0655,2.0709,2.1471,2.0996,2.0924,1.7675,1.8241,0.0,1.87,1.8983,1.9228,1.9182,0.0,0.0,0.0,0.0,2.0589,2.0412,2.0281,0.0,1.9582,1.9699,1.9977,2.0221,2.0639,2.0764,2.0436,2.1453,2.1635,2.0407,2.0374,2.0184,1.9585,1.8489,1.7789,1.7822,1.7446,1.7286,1.7467,1.6996,1.663,1.6524,1.6264,1.5957,1.5482,1.5791,1.5998,1.6211,1.6311,1.6311,1.6158,1.6524,1.6836,1.7107,1.7753,1.8069,1.8167,1.8318,1.8698,1.9018,1.8833,1.9198,1.9791,1.9732,1.968,1.9628,1.968,1.9428,1.9175,1.9279,1.9227,1.9175,1.9272,1.928,1.9265,1.9294,1.928,1.9162,1.8819,1.8579,1.837,1.8167,1.8115,1.8279,1.8541,1.8795,1.9101,1.9628,1.9628,1.9732,2.0027,2.0189,2.0305,2.0429,2.0303,2.03,2.057,2.0631,2.0812,2.1224,2.1123,2.102,2.0991,2.063,2.014,1.9496,1.9617,1.9891,2.0201,2.0382,2.0729,2.1333,2.0721,2.083,2.1457,2.107,2.1096,1.7441,0.0,0.0,1.8441,1.8581,0.0,1.8982,1.982,2.0631,2.0982,0.0,2.1392,2.1347,2.1024,2.0577,2.0139,2.0214,2.0444,2.0781,2.0758,2.0829,2.1085,2.1484,2.1427,2.0631,2.0486,2.0243,1.9822,1.8818,1.7994,1.7548,1.7721,1.7493,1.6782,1.6708,1.653,1.6324,1.6051,1.5737,1.5428,1.5737,1.5737,1.5482,1.5731,1.5945,1.5992,1.6471,1.7054,1.7687,1.7964,1.822,1.8475,1.8527,1.8848,1.9324,1.9042,1.962,2.0411,1.9939,1.9931,2.0034,1.9835,1.9376,1.8974,1.9227,1.913,1.8974,1.9227,1.9265,1.9248,1.9302,1.9279,1.9218,1.9354,1.89,1.8534,1.8817,1.8624,1.8492,1.8878,1.9332,1.9687,1.9738,1.996,2.013,2.0181,2.0454,2.0594,2.049,2.0492,2.0422,2.0305,2.0573,2.0924,2.1255,2.1197,2.1048,2.0873,2.0798,2.0554,2.0108,2.0004,2.019,2.0699,2.0699,2.0891,2.1229,2.0883,2.1037,2.1591,2.101,2.1239,1.7059,1.7535,0.0,0.0,1.7566,1.851,1.9835,2.0331,2.0546,2.0818,2.1148,2.1347,2.1141,2.0997,2.0881,2.0792,2.0563,2.0492,2.0882,2.0864,2.0659,2.036,2.1484,2.1738,2.0422,2.0447,2.0292,1.9709,1.8311,1.7565,1.7733,1.7018,1.6861,1.737,1.6764,1.6377,1.6324,1.6217,1.5737,1.4821,1.5571,1.5624,1.5148,1.5678,1.6152,1.6518,1.6624,1.7259,1.8213,1.8265,1.8639,1.9116,1.9316,1.9524,1.9687,1.999,2.0145,2.0241,2.0557,2.0248,1.9828,1.9983,1.9628,1.9227,1.9279,1.9279,1.9227,1.9279,1.9428,1.959,1.9613,1.9433,1.9312,1.9796,1.9376,1.8817,1.8869,1.8624,1.8541,1.9044,1.924,1.9443,1.9856,2.0181,2.0565,2.096,2.1267,2.1348,2.1047,2.1007,2.1032,2.0999,2.0794,2.0991,2.1812,2.1188,2.1129,2.2129,2.1406,2.1058,2.1363,2.0946,2.0701,2.0708,2.0871,2.111,2.1507,2.111,2.1156,2.1591,2.1346,2.1428,0.0,0.0,0.0,1.7221,0.0,1.9048,1.9617,2.0123,2.0589,2.0862,2.1192,2.1392,2.132,2.1132,2.1025,2.105,2.0935,2.0944,2.1023,2.1076,2.0872,2.0333,2.1272,2.1537,2.0578,2.0332,2.018,1.9947,1.8517,1.7647,1.761,1.7181,1.6965,1.6997,1.6666,1.6371,1.6111,1.5951,1.5636,1.5041,1.547,1.563,1.5464,1.5891,1.6311,1.673,1.6849,1.7477,1.8422,1.8422,1.8743,1.9324,1.9879,1.9983,1.9983,2.0514,2.0609,2.0506,2.0506,2.0241,1.9879,1.9879,1.9532,1.9123,1.9279,1.9227,1.9175,1.9428,1.968,1.9879,1.9879,1.974,1.9636,1.9811,1.9353,1.8934,1.9242,1.9023,1.889,1.9136,1.9388,1.9691,1.995,2.0491,2.1019,2.142,2.1623,2.1593,2.1238,2.1048,2.0998,2.1145,2.0962,2.1092,2.1715,2.1297,2.1218,2.173,2.1275,2.1109,2.1386,2.1377,2.1285,2.1032,2.115,2.1302,2.1516,2.1302,2.1302,2.1508,2.1527,2.1741,0.0,0.0,1.7512,1.7669,1.8652,0.0,1.9185,1.9832,2.0591,2.1016,2.1271,2.1482,2.1651,2.1365,2.1159,2.1176,2.128,2.1318,2.1211,2.1201,2.1033,2.057,2.0908,2.1086,2.0759,2.0244,1.996,2.0226,1.8907,1.7937,1.7471,1.7534,1.7244,1.6465,1.6531,1.6418,1.5891,1.5743,1.5535,1.5428,1.5482,1.5636,1.5998,1.6264,1.6477,1.673,1.7113,1.7694,1.8422,1.8482,1.8795,1.9376,2.013,2.0285,2.0086,2.0712,2.0814,2.0712,2.0344,2.0138,1.9983,1.9835,1.9428,1.9026,1.9227,1.913,1.9078,1.9532,1.9879,2.0078,2.0078,1.9999,1.988,1.9791,1.9263,1.8961,1.9492,1.9348,1.9115,1.9157,1.9564,2.0009,2.0127,2.079,2.1456,2.1717,2.1827,2.172,2.1287,2.098,2.0877,2.1058,2.105,2.1162,2.1453,2.1401,2.1311,2.1126,2.1057,2.1044,2.1157,2.1643,2.178,2.1446,2.1482,2.1526,2.1526,2.1482,2.1482,2.1526,2.1696,2.1998,0.0,0.0,1.58,0.0,1.7894,1.836,0.0,0.0,2.0416,0.0,2.1394,2.1651,2.1696,2.1642,2.1624,2.1614,2.1348,2.1257,2.1568,2.0996,2.0535,2.0491,2.0527,2.0524,2.0555,2.0079,1.9895,2.0052,1.8881,1.8049,1.7738,1.7133,1.6827,1.6974,1.6596,1.6211,1.5891,1.6111,1.5791,1.5095,1.5374,1.5743,1.6271,1.6524,1.6683,1.673,1.7318,1.7845,1.8422,1.8705,1.9018,1.9376,1.9931,1.9983,1.9835,2.0609,2.0609,2.0241,2.066,2.0351,1.9783,1.9983,1.968,1.9279,1.9279,1.9272,1.9279,1.9324,1.9732,2.0078,2.0078,1.9822,1.9675,2.0171,1.9638,1.9005,1.9163,1.8915,1.872,1.8897,1.9383,1.9918,2.0579,2.1188,2.1678,2.1979,2.2283,2.2187,2.1479,2.1343,2.1198,2.0938,2.0951,2.1174,2.1713,2.1444,2.143,2.1907,2.1655,2.1573,2.1787,2.1878,2.1816,2.1651,2.1874,2.2008,2.2008,2.1785,2.1785,2.2008,2.2008,2.2318,1.5957,1.619,1.6589,0.0,1.782,1.8348,1.9451,0.0,1.9811,2.0332,2.0952,2.1412,2.165,2.1696,2.1696,2.1696,2.1531,2.1485,2.1668,2.1363,2.1024,2.0793,2.0749,2.0855,2.1131,2.0297,1.9887,2.0296,1.9162,1.8194,1.7594,1.7232,1.6928,1.6671,1.6438,1.6164,1.5891,1.585,1.5636,1.5261,1.5583,1.5951,1.6324,1.6577,1.6789,1.7008,1.7589,1.8062,1.8422,1.8757,1.9324,2.0034,2.0395,2.055,2.0601,2.0814,2.0763,2.0506,2.03,2.0094,1.9931,1.9879,1.9628,1.9279,1.9279,1.9279,1.9324,1.948,1.9656,1.987,2.0218,1.9951,1.971,2.0151,1.9756,1.9347,1.9359,1.9281,1.9249,1.9336,1.9837,2.0433,2.0941,2.1346,2.1777,2.2282,2.2493,2.2474,2.2139,2.167,2.143,2.1499,2.1264,2.1121,2.1285,2.1372,2.1397,2.1298,2.1269,2.1399,2.1771,2.1817,2.196,2.2318,2.2052,2.1874,2.1874,2.1919,2.1963,2.2097,2.2362,2.2583,1.5675,1.6346,1.6992,1.7235,0.0,1.8254,0.0,0.0,1.9389,0.0,2.0256,2.0855,2.1237,2.1436,2.1553,2.1696,2.1553,2.1517,2.1696,2.1597,2.141,2.1042,2.0864,2.1034,2.1633,2.0492,1.9963,2.0557,1.9396,1.8292,1.7335,1.7239,1.6894,1.6208,1.6128,1.6037,1.5891,1.5797,1.569,1.5696,1.5998,1.6264,1.6537,1.6743,1.7008,1.7331,1.7806,1.8126,1.8421,1.8833,1.948,2.0212,2.057,2.0763,2.0865,2.0763,2.066,2.0506,1.9983,1.9879,1.9983,1.9783,1.9532,1.9279,1.9279,1.9279,1.9324,1.9532,1.9662,1.9806,2.0116,1.9988,1.9844,1.9983,1.9789,1.9587,1.9587,1.9655,1.9719,1.98,2.0283,2.0772,2.1129,2.1485,2.1892,2.2464,2.2634,2.266,2.2565,2.1922,2.1586,2.1784,2.1436,2.1148,2.1023,2.1417,2.1477,2.0996,2.123,2.1554,2.1785,2.2068,2.2438,2.2878,2.229,2.1931,2.1865,2.2052,2.2097,2.2097,2.2495,2.2706,1.522,1.5292,0.0,1.6518,0.0,0.0,0.0,0.0,0.0,1.9311,1.9569,1.9874,2.0202,2.0704,2.1177,2.1642,2.115,2.097,2.1597,2.132,2.1042,2.0997,2.0509,2.0572,2.1606,2.0549,2.0017,2.0576,1.9522,1.8356,1.7099,1.6772,1.6406,1.5929,1.5688,1.5638,1.5885,1.6164,1.6277,1.6271,1.6524,1.6842,1.7126,1.7179,1.7325,1.7582,1.7859,1.8171,1.8447,1.9051,1.9295,1.934,1.9905,1.9983,1.9835,2.0034,1.9983,1.9783,2.0034,1.9931,1.9732,1.968,1.9532,1.9279,1.9279,1.9279,1.9279,1.9324,1.9665,1.9987,1.9732,1.9933,2.0103,1.9803,1.9657,1.9587,1.9587,1.9604,1.9711,2.0033,2.0304,2.0626,2.1052,2.161,2.2102,2.2365,2.2719,2.2824,2.2467,2.2048,2.1665,2.1278,2.1209,2.1228,2.1365,2.1707,2.1834,2.167,2.227,2.2452,2.2071,2.3062,2.3426,2.3093,2.2801,2.256,2.2353,2.2185,2.2097,2.2097,2.2309,2.2574,1.4688,1.4948,0.0,0.0,1.6669,1.7366,1.7983,1.84,1.862,1.8487,1.8842,1.917,1.9272,1.9713,2.0266,2.0907,2.0772,2.0736,2.0961,2.1275,2.1419,2.1293,2.0722,2.0535,2.1065,2.0336,1.9937,2.0271,1.9432,1.8483,1.749,1.6773,1.6124,1.5642,1.536,1.5294,1.539,1.582,1.6017,1.607,1.6495,1.6948,1.743,1.7279,1.7543,1.8108,1.7852,1.8,1.8431,1.9065,1.9612,1.999,1.9643,1.9895,2.038,1.9747,1.9698,1.9931,1.9879,1.9783,1.968,1.968,1.9532,1.9279,1.9279,1.9279,1.9279,1.9279,1.9381,1.9472,1.9449,1.9638,1.9887,2.0247,2.0432,2.0579,2.0839,2.0941,2.0891,2.0444,2.0957,2.1434,2.1431,2.191,2.2377,2.2711,2.3059,2.3114,2.2668,2.2272,2.1837,2.1273,2.114,2.1021,2.0942,2.1338,2.1617,2.1705,2.2093,2.229,2.2274,2.2556,2.273,2.2891,2.2356,2.2322,2.2848,2.2485,2.2397,2.2539,2.2618,2.2794,1.4548,1.4948,0.0,0.0,0.0,1.7218,1.7756,0.0,1.8179,1.8118,1.8414,1.8621,1.85,1.8596,1.9079,2.0195,2.0221,2.0266,2.0682,2.1096,2.1383,2.1392,2.0952,2.07,2.0996,2.0341,2.0056,2.042,1.948,0.0,1.7762,1.6821,1.6022,1.5392,1.5169,1.5065,1.498,1.5597,1.5888,1.5888,1.6573,1.7121,1.7605,1.7503,1.7799,1.837,1.8003,1.8,1.8282,1.8805,1.9236,1.9583,1.9234,1.9462,1.9954,1.9228,1.917,1.9509,1.9472,1.9428,1.9428,1.9532,1.9428,1.9279,1.9279,1.9279,1.9279,1.9279,1.9373,1.9426,1.9336,1.9582,2.0075,2.0763,2.1216,2.1605,2.1779,2.1646,2.1438,2.1199,2.1581,2.1939,2.188,2.2143,2.2516,2.3026,2.3201,2.3256,2.3073,2.2544,2.2079,2.1681,2.1394,2.1148,2.1069,2.1464,2.1752,2.1839,2.2138,2.2326,2.2407,2.2626,2.2837,2.3015,2.2426,2.2567,2.3338,2.2694,2.2485,2.2671,2.2671,2.2706,0.0,0.0,0.0,0.0,0.0,0.0,1.8305,0.0,1.8043,1.82,1.8296,1.8216,1.785,1.748,1.7765,1.9546,1.9476,1.9583,2.0763,2.0781,2.088,2.1329,2.1013,2.0925,2.1315,2.0656,2.0413,2.1,1.9728,1.8558,1.7747,1.7005,1.6113,1.5127,1.5094,1.4962,1.4708,1.5507,1.5897,1.5897,1.679,1.7346,1.7572,1.7873,1.8108,1.8356,1.837,1.8202,1.8002,1.8296,1.8219,1.7974,1.8524,1.8581,1.836,1.8393,1.8349,1.8415,1.875,1.8907,1.8914,1.9227,1.9279,1.9279,1.9279,1.9279,1.9279,1.9331,1.9672,1.9918,1.9319,1.9854,2.0679,2.1218,2.2004,2.2555,2.228,2.1628,2.1333,2.2259,2.2132,2.1992,2.2319,2.238,2.2518,2.3102,2.3151,2.3286,2.3714,2.284,2.2271,2.247,2.198,2.1633,2.1697,2.2062,2.2253,2.2124,2.246,2.2588,2.2416,2.3446,2.3823,2.3409,2.3183,2.3274,2.3769,2.2853,2.2397,2.2441,2.2388,2.2318,1.4832,0.0,0.0,0.0,0.0,0.0,0.0,0.0,1.7655,1.6944,1.687,1.7064,1.7423,1.742,1.7553,1.8149,1.8393,1.876,1.933,2.0275,2.081,2.0448,2.0382,2.028,2.0107,1.9897,1.9671,0.0,1.9239,1.8682,1.7879,1.668,1.5904,1.5617,1.5267,1.5122,1.5226,1.5654,1.5894,1.5894,1.6537,1.6985,1.7257,1.7346,1.7585,1.7805,1.7809,1.7798,1.773,1.7975,1.8071,1.7964,1.7695,1.7646,1.778,1.7541,1.7606,1.7901,1.8371,1.8525,1.862,1.9147,1.9279,1.9279,1.9279,1.9279,1.9324,1.9524,1.9669,1.9837,2.0435,2.1002,2.1591,2.2111,2.253,2.293,2.3356,2.2875,2.242,2.2664,2.2814,2.2867,2.265,2.2762,2.2858,2.2733,2.3075,2.3338,2.3165,2.2899,2.2659,2.2555,2.2157,2.1887,2.1907,2.1998,2.2071,2.208,2.2199,2.2298,2.2397,2.2579,2.2735,2.2977,2.2398,2.2389,2.3065,2.2463,2.2441,2.2916,2.275,2.2647,1.5656,0.0,0.0,0.0,0.0,0.0,1.6091,1.6561,1.7042,0.0,1.6603,1.6752,1.7141,1.7168,1.7241,1.7494,1.7741,1.8037,1.847,1.9627,2.0302,1.9983,1.9986,2.0039,2.0034,1.9679,1.953,1.962,1.912,1.8433,1.7443,1.6363,1.5692,1.5598,1.5339,1.5261,1.5255,1.556,1.5741,1.5748,1.6288,1.6675,1.6949,1.7093,1.7398,1.7784,1.7646,1.758,1.7582,1.7378,1.7364,1.7408,1.7081,1.699,1.7055,1.711,1.7172,1.7329,1.7974,1.824,1.8337,1.8917,1.9227,1.9279,1.9279,1.9376,1.948,1.968,1.9806,2.0153,2.1088,2.175,2.2359,2.2903,2.3375,2.3847,2.438,2.3998,2.351,2.3358,2.331,2.3175,2.2895,2.287,2.2787,2.2704,2.301,2.3224,2.316,2.3065,2.3008,2.2999,2.2704,2.2458,2.2379,2.2515,2.2556,2.234,2.2258,2.222,2.2274,2.2141,2.223,2.2495,2.2097,2.2008,2.2353,2.2443,2.2792,2.3358,2.3041,2.2834,1.6733,1.6602,0.0,0.0,1.6251,0.0,1.6668,1.6468,1.6324,0.0,1.6879,1.6818,1.6935,1.6927,1.7013,1.74,1.7426,1.756,1.8105,1.9018,1.965,1.9715,1.9798,1.9991,2.0391,1.9773,1.9657,2.0391,1.9256,1.8002,1.6872,1.6216,1.5713,1.543,1.543,1.535,1.5226,1.5452,1.554,1.5547,1.6002,1.6378,1.6586,1.6886,1.7317,1.7768,1.7589,1.7457,1.7377,1.6577,1.6392,1.6607,1.6535,1.6373,1.6289,1.6794,1.686,1.6781,1.7617,1.7943,1.8076,1.8703,1.9078,1.9331,1.9324,1.9524,1.9732,1.9835,2.0178,2.0798,2.161,2.2432,2.3107,2.3669,2.4384,2.502,2.5226,2.4903,2.447,2.4227,2.3666,2.3205,2.316,2.2835,2.2621,2.2857,2.2904,2.305,2.3444,2.3353,2.3323,2.3563,2.339,2.3169,2.3004,2.3288,2.3246,2.2703,2.2465,2.229,2.2071,2.2099,2.2127,2.2162,2.2208,2.2102,2.1869,2.2725,2.3301,2.3606,2.3229,2.3028,1.6596,1.6564,1.6422,1.6025,0.0,0.0,1.5411,1.5585,1.5883,0.0,1.5966,1.6214,1.707,1.6949,1.6986,1.7709,1.7919,1.8052,1.8121,1.9074,1.9451,1.8635,1.9466,1.9913,1.9358,1.9448,1.9545,1.9531,1.8892,1.8146,1.7384,1.7018,1.6629,1.6271,1.5913,1.5832,1.5987,1.5832,1.573,1.573,1.5844,1.5919,1.5973,1.6323,1.6386,1.6312,1.6693,1.6613,1.6204,1.6066,1.6021,1.6031,1.5494,1.5435,1.5671,1.5746,1.5973,1.6403,1.7069,1.7559,1.8053,1.8683,1.9078,1.9324,1.9576,1.968,1.9835,2.0506,2.1218,2.2022,2.3024,2.3718,2.431,2.4818,2.5266,2.546,2.5111,2.4928,2.4788,2.4544,2.4201,2.3883,2.3505,2.3074,2.2857,2.2904,2.2904,2.305,2.3444,2.345,2.3627,2.3996,2.3691,2.3423,2.3389,2.3453,2.3198,2.2428,2.2639,2.2502,2.1813,2.2088,2.2354,2.2581,2.2917,2.3038,2.2964,2.3226,2.3186,2.2915,2.3343,2.3598,1.7251,1.7115,1.6778,1.6337,0.0,0.0,0.0,1.5376,1.5536,1.587,1.6094,1.6299,1.6692,1.7118,1.7383,1.7221,1.7701,1.7978,1.7669,1.8564,1.8941,1.7987,1.8601,1.9003,1.8732,1.9039,1.9208,1.9006,1.8753,1.8256,1.749,1.727,1.6991,1.6676,1.6425,1.6258,1.6125,1.6048,1.5927,1.5784,1.5784,1.5737,1.5642,1.5842,1.5842,1.5705,1.6137,1.5984,1.5505,1.5459,1.5303,1.5083,1.5202,1.5369,1.5541,1.5749,1.6005,1.6298,1.676,1.7263,1.7789,1.8263,1.8825,1.9309,1.9627,1.999,2.0403,2.0968,2.1776,2.2677,2.3479,2.4322,2.5011,2.5567,2.5907,2.5972,2.5478,2.5266,2.5004,2.4718,2.4405,2.4073,2.3563,2.343,2.3284,2.294,2.3068,2.3197,2.3197,2.3602,2.3776,2.3574,2.3499,2.3499,2.3499,2.3499,2.3325,2.2913,2.3087,2.2931,2.2318,2.2483,2.2639,2.2778,2.2991,2.3092,2.3074,2.3448,2.3645,2.3606,2.3758,2.3839,0.0,0.0,0.0,0.0,0.0,1.6116,0.0,0.0,0.0,1.6307,1.6478,0.0,0.0,0.0,0.0,0.0,0.0,0.0,0.0,1.7816,0.0,1.7337,1.7676,1.8028,1.821,1.8676,1.8906,1.8771,1.8664,1.8271,1.7559,1.7357,1.7109,1.6866,1.6803,1.6598,1.6118,1.6188,1.6076,1.5784,1.5784,1.5689,1.5493,1.5493,1.5431,1.5384,1.5613,1.542,1.492,1.491,1.4659,1.4331,1.4987,1.5369,1.5547,1.5952,1.624,1.6465,1.6686,1.7116,1.7633,1.802,1.8724,1.9423,1.9752,2.0403,2.107,2.1428,2.2274,2.3229,2.3926,2.4805,2.5645,2.6149,2.633,2.6292,2.5802,2.5436,2.5083,2.4688,2.4494,2.419,2.3761,2.3795,2.3705,2.3264,2.3382,2.3407,2.3169,2.3749,2.3926,2.3096,2.3258,2.3414,2.3331,2.3331,2.3295,2.3222,2.3407,2.3279,2.2803,2.2931,2.2986,2.2904,2.3098,2.3143,2.3023,2.3705,2.4126,2.431,2.4117,2.3987,0.0,0.0,0.0,0.0,1.6975,0.0,0.0,0.0,1.616,1.7152,0.0,0.0,0.0,0.0,0.0,0.0,0.0,0.0,1.7092,1.6859,1.6627,1.6474,1.7263,1.7746,1.7615,1.8303,1.8814,1.8954,1.8463,1.8112,1.7947,1.7663,1.7339,1.6988,1.687,1.6621,1.6217,1.6204,1.6076,1.5784,1.5784,1.5689,1.5493,1.5493,1.5226,1.4816,1.5089,1.4859,1.4299,1.4571,1.4606,1.4546,1.4385,1.4815,1.5506,1.5517,1.6093,1.6904,1.7027,1.738,1.7875,1.8577,1.9317,2.0033,2.0344,2.0814,2.1428,2.2173,2.2979,2.3877,2.5148,2.5897,2.6448,2.6747,2.6516,2.6052,2.5395,2.4984,2.4716,2.4477,2.4622,2.4726,2.4424,2.3922,2.3696,2.4245,2.3837,2.3608,2.3978,2.4146,2.3978,2.3471,2.3335,2.3072,2.2749,2.2713,2.2568,2.2178,2.301,2.3151,2.2382,2.3041,2.3261,2.2913,2.3842,2.4026,2.3425,2.4122,2.4159,2.362,2.4168,2.4344,0.0,0.0,0.0,0.0,0.0,0.0,1.6109,0.0,1.5965,0.0,0.0,0.0,0.0,0.0,0.0,0.0,1.7799,0.0,0.0,0.0,1.5849,0.0,0.0,0.0,1.7604,1.7948,1.8359,1.8883,1.863,1.8487,1.8515,1.8184,1.795,1.789,1.7345,1.681,1.6316,1.6183,1.5986,1.5635,1.5635,1.5397,1.5022,1.5022,1.4823,1.4503,1.4731,1.454,1.3991,1.4253,1.4289,1.4183,1.4342,1.4871,1.5491,1.5462,1.6063,1.6837,1.6873,1.7281,1.8007,1.9014,1.9684,2.0189,2.0609,2.1326,2.203,2.212,2.335,2.4749,2.5247,2.6056,2.6794,2.7081,2.688,2.6425,2.5698,2.5279,2.4929,2.4657,2.4621,2.4735,2.4932,2.4594,2.4342,2.4313,2.4104,2.3819,2.3608,2.3808,2.3568,2.2508,2.2688,2.2756,2.2393,2.2572,2.2781,2.3045,2.3615,2.3739,2.34,2.3712,2.3822,2.3657,2.4214,2.4298,2.3895,2.4307,2.4298,2.3895,2.4168,2.4202,1.8095,0.0,0.0,0.0,0.0,0.0,0.0,0.0,0.0,0.0,0.0,0.0,0.0,0.0,0.0,0.0,0.0,1.7309,0.0,1.5657,0.0,0.0,0.0,0.0,0.0,1.7264,1.7594,1.8479,1.8311,1.8339,1.8704,1.8463,1.8232,1.8144,1.7569,1.6983,1.6303,1.6165,1.5903,1.5493,1.5493,1.5213,1.4688,1.4688,1.4509,1.4213,1.4382,1.4263,1.3931,1.4093,1.4184,1.4281,1.4516,1.5076,1.5687,1.5686,1.6206,1.6923,1.7015,1.764,1.8548,1.9401,1.9928,2.03,2.0771,2.1623,2.2466,2.23,2.3788,2.5402,2.5318,2.6074,2.6818,2.691,2.6711,2.6394,2.5768,2.5425,2.517,2.4861,2.4754,2.4833,2.5235,2.503,2.4686,2.4449,2.4301,2.3993,2.3349,2.3574,2.3327,2.2026,2.2329,2.2457,2.2108,2.2385,2.2917,2.3664,2.3889,2.4082,2.4192,2.4202,2.4202,2.4202,2.439,2.439,2.4202,2.439,2.439,2.4202,2.4202,2.4102,0.0,0.0,0.0,1.7627,0.0,0.0,0.0,0.0,1.6527,0.0,0.0,0.0,0.0,0.0,0.0,0.0,0.0,0.0,0.0,0.0,0.0,0.0,0.0,0.0,0.0,1.6075,1.6503,0.0,1.7141,1.7276,1.8273,1.8321,1.7992,1.7237,1.739,1.7054,1.6113,1.612,1.5903,1.5493,1.5493,1.5213,1.4688,1.4688,1.4412,1.3912,1.3906,1.4053,1.4242,1.4004,1.4505,1.5399,1.4894,1.5319,1.6188,1.6168,1.6742,1.7505,1.7754,1.8658,1.9701,1.9899,2.0183,2.0522,2.0822,2.1623,2.2627,2.3111,2.4452,2.5692,2.5744,2.6207,2.6475,2.603,2.5811,2.5559,2.53,2.5169,2.5088,2.5068,2.5179,2.5284,2.5284,2.4883,2.4587,2.4833,2.4489,2.4093,2.3836,2.3795,2.3485,2.277,2.2518,2.2231,2.187,2.2043,2.2602,2.3441,2.3517,2.3739,2.4183,2.4202,2.4202,2.4202,2.439,2.439,2.4202,2.439,2.439,2.4202,2.4202,2.4202,0.0,0.0,1.7999,1.7612,0.0,0.0,0.0,0.0,0.0,0.0,0.0,0.0,0.0,0.0,0.0,0.0,0.0,0.0,0.0,0.0,0.0,0.0,0.0,0.0,0.0,0.0,0.0,1.8061,1.7811,0.0,1.8844,1.8521,1.8094,1.7609,1.7073,1.6476,1.5856,1.5646,1.5349,1.4891,1.5313,1.5112,1.4442,1.464,1.4503,1.4178,1.4181,1.4185,1.4265,1.4368,1.4651,1.5012,1.5313,1.5654,1.5979,1.6109,1.6883,1.7904,1.8731,1.9415,2.0019,2.0271,2.0428,2.0676,2.1471,2.2325,2.3126,2.355,2.4792,2.5874,2.5498,2.5853,2.628,2.5989,2.5803,2.5704,2.5611,2.5385,2.5257,2.546,2.5382,2.5333,2.5538,2.5137,2.4735,2.4637,2.4399,2.4053,2.3596,2.3696,2.3453,2.257,2.2853,2.2902,2.2514,2.2952,2.3403,2.3686,2.3852,2.4005,2.4192,2.4202,2.4251,2.439,2.4489,2.4489,2.439,2.4489,2.439,2.4202,2.4202,2.4202,1.9405,1.8889,0.0,1.7969,1.7414,0.0,1.6652,0.0,1.6274,0.0,0.0,0.0,0.0,0.0,0.0,0.0,0.0,0.0,0.0,1.5176,0.0,0.0,0.0,0.0,0.0,0.0,1.6774,1.7658,1.771,0.0,0.0,1.8354,1.7944,1.746,1.6863,1.6293,1.5746,1.5616,1.5246,1.4617,1.522,1.5064,1.4298,1.4592,1.4497,1.4166,1.428,1.4301,1.4279,1.458,1.4869,1.5133,1.5606,1.61,1.6559,1.6742,1.7546,1.8641,1.959,2.0072,2.03,2.0565,2.0617,2.0822,2.1827,2.2677,2.3425,2.395,2.4987,2.5799,2.5267,2.5462,2.5625,2.5245,2.5376,2.5498,2.5358,2.5398,2.547,2.5684,2.5538,2.5489,2.5684,2.5235,2.4833,2.4686,2.439,2.4003,2.3456,2.3646,2.3457,2.2565,2.2956,2.3199,2.301,2.3502,2.3805,2.3805,2.4053,2.4152,2.4053,2.4152,2.4301,2.448,2.448,2.448,2.448,2.448,2.439,2.4202,2.4202,2.4202]}]]